[[{"header":{"parameterUnit":"m.s-1","parameterCategory":1,"la1":30.6,"la2":28.766,"lo1":-90.7593,"lo2":-88.6598,"dy":0.0162,"dx":0.0183,"nx":116,"ny":114,"refTime":"2023-05-22T12:00:00:Z","depth":0,"parameterNumber":2,"parameterNumberName":"U-component_of_WINDS"},"data":[0.0,0.0,0.0,0.0,0.0,0.0,0.0,0.0,0.0,0.0,0.0,0.0,0.0,0.0,0.0,0.0,0.0,0.0,0.0,0.0,0.0,0.0,0.0,0.0,0.0,0.0,0.0,0.0,0.0,0.0,0.0,0.0,0.0,0.0,0.0,0.0,0.0,0.0,0.0,0.0,0.0,0.0,0.0,0.0,0.0,0.0,0.0,0.0,0.0,0.0,0.0,0.0,0.0,0.0,0.0,0.0,0.0,0.0,0.0,0.0,0.0,0.0,0.0,0.0,0.0,0.0,0.0,0.0,0.0,0.0,0.0,0.0,0.0,0.0,0.0,0.0,0.0,0.0,0.0,0.0,0.0,0.0,0.0,0.0,0.0,0.0,0.0,0.0,0.0,0.0,0.0,0.0,0.0,0.0,0.0,0.0,0.0,0.0,0.0,0.0,0.0,0.0,0.0,0.0,0.0,0.0,0.0,0.0,0.0,0.0,0.0,0.0,0.0,0.0,0.0,0.0,0.0,0.0,0.0,0.0,0.0,0.0,0.0,0.0,0.0,0.0,0.0,0.0,0.0,0.0,0.0,0.0,0.0,0.0,0.0,0.0,0.0,0.0,0.0,0.0,0.0,0.0,0.0,0.0,0.0,0.0,0.0,0.0,0.0,0.0,0.0,0.0,0.0,0.0,0.0,0.0,0.0,0.0,0.0,0.0,0.0,0.0,0.0,0.0,0.0,0.0,0.0,0.0,0.0,0.0,0.0,0.0,0.0,0.0,0.0,0.0,0.0,0.0,0.0,0.0,0.0,0.0,0.0,0.0,0.0,0.0,0.0,0.0,0.0,0.0,0.0,0.0,0.0,0.0,0.0,0.0,0.0,0.0,0.0,0.0,0.0,0.0,0.0,0.0,0.0,0.0,0.0,0.0,0.0,0.0,0.0,0.0,0.0,0.0,0.0,0.0,0.0,0.0,0.0,0.0,0.0,0.0,0.0,0.0,0.0,0.0,0.0,0.0,0.0,0.0,0.0,0.0,0.0,0.0,0.0,0.0,0.0,0.0,0.0,0.0,0.0,0.0,0.0,0.0,0.0,0.0,0.0,0.0,0.0,0.0,0.0,0.0,0.0,0.0,0.0,0.0,0.0,0.0,0.0,0.0,0.0,0.0,0.0,0.0,0.0,0.0,0.0,0.0,0.0,0.0,0.0,0.0,0.0,0.0,0.0,0.0,0.0,0.0,0.0,0.0,0.0,0.0,0.0,0.0,0.0,0.0,0.0,0.0,0.0,0.0,0.0,0.0,0.0,0.0,0.0,0.0,0.0,0.0,0.0,0.0,0.0,0.0,0.0,0.0,0.0,0.0,0.0,0.0,0.0,0.0,0.0,0.0,0.0,0.0,0.0,0.0,0.0,0.0,0.0,0.0,0.0,0.0,0.0,0.0,0.0,0.0,0.0,0.0,0.0,0.0,0.0,0.0,0.0,0.0,0.0,0.0,0.0,0.0,0.0,0.0,0.0,0.0,0.0,0.0,0.0,0.0,0.0,0.0,0.0,0.0,0.0,0.0,0.0,0.0,0.0,0.0,0.0,0.0,0.0,0.0,0.0,0.0,0.0,0.0,0.0,0.0,0.0,0.0,0.0,0.0,0.0,0.0,0.0,0.0,0.0,0.0,0.0,0.0,0.0,0.0,0.0,0.0,0.0,0.0,0.0,0.0,0.0,0.0,0.0,0.0,0.0,0.0,0.0,0.0,0.0,0.0,0.0,0.0,0.0,0.0,0.0,0.0,0.0,0.0,0.0,0.0,0.0,0.0,0.0,0.0,0.0,0.0,0.0,0.0,0.0,0.0,0.0,0.0,0.0,0.0,0.0,0.0,0.0,0.0,0.0,0.0,0.0,0.0,0.0,0.0,0.0,0.0,0.0,0.0,0.0,0.0,0.0,0.0,0.0,0.0,0.0,0.0,0.0,0.0,0.0,0.0,0.0,0.0,0.0,0.0,0.0,0.0,0.0,0.0,0.0,0.0,0.0,0.0,0.0,0.0,0.0,0.0,0.0,0.0,0.0,0.0,0.0,0.0,0.0,0.0,0.0,0.0,0.0,0.0,0.0,0.0,0.0,0.0,0.0,0.0,0.0,0.0,0.0,0.0,0.0,0.0,0.0,0.0,0.0,0.0,0.0,0.0,0.0,0.0,0.0,0.0,0.0,0.0,0.0,0.0,0.0,0.0,0.0,0.0,0.0,0.0,0.0,0.0,0.0,0.0,0.0,0.0,0.0,0.0,0.0,0.0,0.0,0.0,0.0,0.0,0.0,0.0,0.0,0.0,0.0,0.0,0.0,0.0,0.0,0.0,0.0,0.0,0.0,0.0,0.0,0.0,0.0,0.0,0.0,0.0,0.0,0.0,0.0,0.0,0.0,0.0,0.0,0.0,0.0,0.0,0.0,0.0,0.0,0.0,0.0,0.0,0.0,0.0,0.0,0.0,0.0,0.0,0.0,0.0,0.0,0.0,0.0,0.0,0.0,0.0,0.0,0.0,0.0,0.0,0.0,0.0,0.0,0.0,0.0,0.0,0.0,0.0,0.0,0.0,0.0,0.0,0.0,0.0,0.0,0.0,0.0,0.0,0.0,0.0,0.0,0.0,0.0,0.0,0.0,0.0,0.0,0.0,0.0,0.0,0.0,0.0,0.0,0.0,0.0,0.0,0.0,0.0,0.0,0.0,0.0,0.0,0.0,0.0,0.0,0.0,0.0,0.0,0.0,0.0,0.0,0.0,0.0,0.0,0.0,0.0,0.0,0.0,0.0,0.0,0.0,0.0,0.0,0.0,0.0,0.0,0.0,0.0,0.0,0.0,0.0,0.0,0.0,0.0,0.0,0.0,0.0,0.0,0.0,0.0,0.0,0.0,0.0,0.0,0.0,0.0,0.0,0.0,0.0,0.0,0.0,0.0,0.0,0.0,0.0,0.0,0.0,0.0,0.0,0.0,0.0,0.0,0.0,0.0,0.0,0.0,0.0,0.0,0.0,0.0,0.0,0.0,0.0,0.0,0.0,0.0,0.0,0.0,0.0,0.0,0.0,0.0,0.0,0.0,0.0,0.0,0.0,0.0,0.0,0.0,0.0,0.0,0.0,0.0,0.0,0.0,0.0,0.0,0.0,0.0,0.0,0.0,0.0,0.0,0.0,0.0,0.0,0.0,0.0,0.0,0.0,0.0,0.0,0.0,0.0,0.0,0.0,0.0,0.0,0.0,0.0,0.0,0.0,0.0,0.0,0.0,0.0,0.0,0.0,0.0,0.0,0.0,0.0,0.0,0.0,0.0,0.0,0.0,0.0,0.0,0.0,0.0,0.0,0.0,0.0,0.0,0.0,0.0,0.0,0.0,0.0,0.0,0.0,0.0,0.0,0.0,0.0,0.0,0.0,0.0,0.0,0.0,0.0,0.0,0.0,0.0,0.0,0.0,0.0,0.0,0.0,0.0,0.0,0.0,0.0,0.0,0.0,0.0,0.0,0.0,0.0,0.0,0.0,0.0,0.0,0.0,0.0,0.0,0.0,0.0,0.0,0.0,0.0,0.0,0.0,0.0,0.0,0.0,0.0,0.0,0.0,0.0,0.0,0.0,0.0,0.0,0.0,0.0,0.0,0.0,0.0,0.0,0.0,0.0,0.0,0.0,0.0,0.0,0.0,0.0,0.0,0.0,0.0,0.0,0.0,0.0,0.0,0.0,0.0,0.0,0.0,0.0,0.0,0.0,0.0,0.0,0.0,0.0,0.0,0.0,0.0,0.0,0.0,0.0,0.0,0.0,0.0,0.0,0.0,0.0,0.0,0.0,0.0,0.0,0.0,0.0,0.0,0.0,0.0,0.0,0.0,0.0,0.0,0.0,0.0,0.0,0.0,0.0,0.0,0.0,0.0,0.0,0.0,0.0,0.0,0.0,0.0,0.0,0.0,0.0,0.0,0.0,0.0,0.0,0.0,0.0,0.0,0.0,0.0,0.0,0.0,0.0,0.0,0.0,0.0,0.0,0.0,0.0,0.0,0.0,0.0,0.0,0.0,0.0,0.0,0.0,0.0,0.0,0.0,0.0,0.0,0.0,0.0,0.0,0.0,0.0,0.0,0.0,0.0,0.0,0.0,0.0,0.0,0.0,0.0,0.0,0.0,0.0,0.0,0.0,0.0,0.0,0.0,0.0,0.0,0.0,0.0,0.0,0.0,0.0,0.0,0.0,0.0,0.0,0.0,0.0,0.0,0.0,0.0,0.0,0.0,0.0,0.0,0.0,0.0,0.0,0.0,0.0,0.0,0.0,0.0,0.0,0.0,0.0,0.0,0.0,0.0,0.0,0.0,0.0,0.0,0.0,0.0,0.0,0.0,0.0,0.0,0.0,0.0,0.0,0.0,0.0,0.0,0.0,0.0,0.0,0.0,0.0,0.0,0.0,0.0,0.0,0.0,0.0,0.0,0.0,0.0,0.0,0.0,0.0,0.0,0.0,0.0,0.0,0.0,0.0,0.0,0.0,0.0,0.0,0.0,0.0,0.0,0.0,0.0,0.0,0.0,0.0,0.0,0.0,0.0,0.0,0.0,0.0,0.0,0.0,0.0,0.0,0.0,0.0,0.0,0.0,0.0,0.0,0.0,0.0,0.0,0.0,0.0,0.0,0.0,0.0,0.0,0.0,0.0,0.0,0.0,0.0,0.0,0.0,0.0,0.0,0.0,0.0,0.0,0.0,0.0,0.0,0.0,0.0,0.0,0.0,0.0,0.0,0.0,0.0,0.0,0.0,0.0,0.0,0.0,0.0,0.0,0.0,0.0,0.0,0.0,0.0,0.0,0.0,0.0,0.0,0.0,0.0,0.0,0.0,0.0,0.0,0.0,0.0,0.0,0.0,0.0,0.0,0.0,0.0,0.0,0.0,0.0,0.0,0.0,0.0,0.0,0.0,0.0,0.0,0.0,0.0,0.0,0.0,0.0,0.0,0.0,0.0,0.0,0.0,0.0,0.0,0.0,0.0,0.0,0.0,0.0,0.0,0.0,0.0,0.0,0.0,0.0,0.0,0.0,0.0,0.0,0.0,0.0,0.0,0.0,0.0,0.0,0.0,0.0,0.0,0.0,0.0,0.0,0.0,0.0,0.0,0.0,0.0,0.0,0.0,0.0,0.0,0.0,0.0,0.0,0.0,0.0,0.0,0.0,0.0,0.0,0.0,0.0,0.0,0.0,0.0,0.0,0.0,0.0,0.0,0.0,0.0,0.0,0.0,0.0,0.0,0.0,0.0,0.0,0.0,0.0,0.0,0.0,0.0,0.0,0.0,0.0,0.0,0.0,0.0,0.0,0.0,0.0,0.0,0.0,0.0,0.0,0.0,0.0,0.0,0.0,0.0,0.0,0.0,0.0,0.0,0.0,0.0,0.0,0.0,0.0,0.0,0.0,0.0,0.0,0.0,0.0,0.0,0.0,0.0,0.0,0.0,0.0,0.0,0.0,0.0,0.0,0.0,0.0,0.0,0.0,0.0,0.0,0.0,0.0,0.0,0.0,0.0,0.0,0.0,0.0,0.0,0.0,0.0,0.0,0.0,0.0,0.0,0.0,0.0,0.0,0.0,0.0,0.0,0.0,0.0,0.0,0.0,0.0,0.0,0.0,0.0,0.0,0.0,0.0,0.0,0.0,0.0,0.0,0.0,0.0,0.0,0.0,0.0,0.0,0.0,0.0,0.0,0.0,0.0,0.0,0.0,0.0,0.0,0.0,0.0,0.0,0.0,0.0,0.0,0.0,0.0,0.0,0.0,0.0,0.0,0.0,0.0,0.0,0.0,0.0,0.0,0.0,0.0,0.0,0.0,0.0,0.0,0.0,0.0,0.0,0.0,0.0,0.0,0.0,0.0,0.0,0.0,0.0,0.0,0.0,0.0,0.0,0.0,0.0,0.0,0.0,0.0,0.0,0.0,0.0,0.0,0.0,0.0,0.0,0.0,0.0,0.0,0.0,0.0,0.0,0.0,0.0,0.0,0.0,0.0,0.0,0.0,0.0,0.0,0.0,0.0,0.0,0.0,0.0,0.0,0.0,0.0,0.0,0.0,0.0,0.0,0.0,0.0,-4.0309,-4.0823,0.0,0.0,0.0,0.0,0.0,0.0,0.0,0.0,0.0,0.0,0.0,0.0,0.0,0.0,0.0,0.0,0.0,0.0,0.0,0.0,0.0,0.0,0.0,0.0,0.0,0.0,0.0,0.0,0.0,0.0,0.0,0.0,0.0,0.0,0.0,0.0,0.0,0.0,1.0549,0.5017,-0.0127,-0.3084,-0.5209,-0.6987,0.0,0.0,0.0,0.0,0.0,0.0,0.0,0.0,0.0,0.0,0.0,0.0,0.0,0.0,0.0,0.0,0.0,0.0,0.0,0.0,0.0,0.0,0.0,0.0,0.0,0.0,0.0,0.0,0.0,0.0,0.0,0.0,0.0,0.0,0.0,0.0,0.0,0.0,0.0,0.0,0.0,0.0,0.0,0.0,0.0,0.0,0.0,0.0,0.0,0.0,0.0,0.0,0.0,0.0,0.0,0.0,0.0,0.0,0.0,0.0,0.0,0.0,0.0,0.0,0.0,0.0,0.0,0.0,0.0,0.0,-3.8865,-3.928,0.0,0.0,0.0,0.0,0.0,0.0,0.0,0.0,0.0,0.0,0.0,0.0,0.0,0.0,0.0,0.0,0.0,0.0,0.0,0.0,0.0,0.0,0.0,0.0,3.4111,3.3759,3.3158,3.2734,0.0,0.0,0.0,0.0,0.0,0.0,0.0,0.0,0.0,1.0866,0.3808,-0.5844,-1.7564,-1.9563,-1.973,-1.8707,-2.8012,0.0,0.0,0.0,0.0,0.0,0.0,0.0,0.0,0.0,0.0,0.0,0.0,0.0,0.0,0.0,0.0,0.0,0.0,0.0,0.0,0.0,0.0,0.0,0.0,0.0,0.0,0.0,0.0,0.0,0.0,0.0,0.0,0.0,0.0,0.0,0.0,0.0,0.0,0.0,0.0,0.0,0.0,0.0,0.0,0.0,0.0,0.0,0.0,0.0,0.0,0.0,0.0,0.0,0.0,0.0,0.0,0.0,0.0,0.0,0.0,0.0,0.0,0.0,-3.8676,-3.8415,-3.7893,-3.798,-3.7542,-3.6706,-3.7452,-3.7506,-3.7097,-3.7578,0.0,0.0,0.0,0.0,0.0,0.0,0.0,0.0,0.0,0.0,0.0,0.0,0.0,0.0,0.0,0.0,0.0,0.0,0.0,0.0,0.0,3.367,3.3101,3.2664,3.1545,3.0588,0.0,0.0,0.0,0.0,0.0,0.0,0.0,1.2837,0.9497,0.8152,0.015,-0.7414,-1.4431,-1.6457,-2.1119,-2.8062,-3.2441,-3.2947,-3.049,0.0,0.0,0.0,0.0,0.0,0.0,0.0,0.0,0.0,0.0,0.0,0.0,0.0,0.0,0.0,0.0,0.0,0.0,0.0,0.0,0.0,0.0,0.0,0.0,0.0,0.0,0.0,0.0,0.0,0.0,0.0,0.0,0.0,0.0,0.0,0.0,0.0,0.0,0.0,0.0,0.0,-3.4266,-3.4451,0.0,0.0,0.0,0.0,0.0,0.0,0.0,0.0,0.0,0.0,0.0,0.0,0.0,-3.8676,-3.8596,-3.8658,-3.8465,-3.8013,-3.8465,-3.8415,-3.7911,-3.8382,-3.8267,-3.7685,-3.7396,0.0,-3.6539,-3.7058,0.0,0.0,0.0,0.0,0.0,0.0,0.0,0.0,0.0,0.0,0.0,0.0,0.0,0.0,0.0,0.0,0.0,0.0,0.0,0.0,0.0,3.2201,3.1167,3.0483,2.9352,2.8275,2.7457,2.5592,0.0,0.0,0.0,0.0,1.4608,1.0338,0.6027,0.1734,-0.2428,-0.8101,-1.4985,-1.6211,-2.0494,-2.7275,-2.9922,-3.0954,-3.0702,-3.0752,0.0,0.0,0.0,0.0,0.0,0.0,0.0,0.0,0.0,0.0,0.0,0.0,0.0,0.0,0.0,0.0,0.0,0.0,0.0,0.0,0.0,0.0,0.0,0.0,0.0,0.0,0.0,0.0,0.0,0.0,0.0,0.0,0.0,0.0,0.0,0.0,0.0,0.0,0.0,-3.3621,-3.4164,-3.4551,-3.4841,-3.5296,0.0,0.0,0.0,0.0,0.0,0.0,0.0,0.0,0.0,-3.7879,-3.8401,-3.8546,-3.8249,-3.8546,-3.8578,-3.835,-3.8578,-3.8415,-3.7893,-3.7861,-3.7542,-3.7041,-3.6504,-3.6165,-3.5968,-3.6522,-3.6865,-3.7097,0.0,0.0,0.0,0.0,-3.7323,-3.7002,0.0,0.0,0.0,0.0,0.0,0.0,0.0,0.0,0.0,0.0,0.0,0.0,3.2065,3.0592,2.9186,2.8015,2.6996,2.5974,2.4913,2.2865,0.0,0.0,0.0,1.4135,1.2036,0.8882,0.4273,-0.1758,-0.3355,-0.7333,-1.3621,-1.5192,-1.8192,-2.2391,-2.4612,-2.5871,-2.6582,-2.9668,-2.7184,-2.113,0.0,0.0,0.0,0.0,0.0,0.0,0.0,0.0,0.0,0.0,0.0,0.0,0.0,0.0,0.0,0.0,0.0,0.0,0.0,0.0,0.0,0.0,0.0,0.0,0.0,0.0,0.0,0.0,0.0,0.0,0.0,0.0,0.0,0.0,0.0,0.0,0.0,-3.3125,-3.3683,-3.4513,-3.4605,-3.4841,0.0,0.0,0.0,0.0,0.0,0.0,-3.736,-3.772,-3.779,-3.7596,-3.8318,-3.8496,-3.8099,-3.8496,-3.8707,-3.8707,-3.8707,-3.8415,-3.7911,-3.7542,-3.702,-3.6374,-3.5985,-3.5739,-3.5622,-3.6011,-3.6266,-3.6416,-3.6843,-3.7076,-3.7173,-3.7038,-3.6724,-3.6374,0.0,0.0,0.0,0.0,0.0,0.0,0.0,0.0,0.0,0.0,0.0,3.155,3.0092,2.8834,2.7319,2.5348,2.4623,2.3593,2.2043,2.0172,1.8895,1.8158,1.6235,1.4268,1.2204,0.8307,0.466,0.1408,-0.1532,-0.4477,-0.7459,-1.1648,-1.3891,-1.4508,-1.727,-1.7071,-1.5273,-2.4941,-2.0513,-0.7944,-1.8664,0.0,0.0,0.0,0.0,0.0,0.0,0.0,0.0,0.0,0.0,0.0,0.0,0.0,0.0,0.0,0.0,0.0,0.0,0.0,0.0,0.0,0.0,0.0,0.0,0.0,0.0,0.0,0.0,0.0,0.0,0.0,0.0,0.0,0.0,0.0,0.0,0.0,0.0,-3.4419,-3.4593,0.0,0.0,0.0,0.0,-3.6388,-3.6881,-3.7379,-3.7843,-3.7911,-3.8099,-3.8627,-3.8658,-3.8676,-3.8658,-3.8676,-3.8707,-3.8707,-3.8707,-3.8415,-3.7893,-3.7877,-3.7342,-3.6374,-3.6374,-3.6054,-3.5622,-3.5622,-3.5941,-3.6416,-3.6416,-3.6764,-3.7152,-3.662,-3.6416,-3.635,0.0,0.0,0.0,0.0,0.0,0.0,0.0,0.0,3.3736,3.3239,3.1654,3.0218,2.9318,2.6916,2.4915,2.3799,2.2565,2.11,1.9337,1.866,1.7668,1.6244,1.4324,1.2071,0.9422,0.7275,0.5363,0.3597,0.2467,-0.0229,-0.4356,-0.5304,-0.807,-1.2195,-1.0718,-0.5446,0.1937,-0.2498,-0.3832,-0.2898,-0.2513,-0.5985,0.0,0.0,0.0,0.0,0.0,0.0,0.0,0.0,0.0,0.0,0.0,0.0,0.0,0.0,0.0,0.0,0.0,0.0,0.0,0.0,0.0,0.0,0.0,0.0,0.0,0.0,0.0,0.0,0.0,0.0,0.0,0.0,0.0,0.0,0.0,0.0,0.0,-3.2562,-3.2602,0.0,-3.3532,-3.4143,-3.4457,-3.4459,-3.4631,-3.4823,-3.5005,-3.556,-3.6237,-3.6948,-3.7567,-3.8175,-3.8689,-3.8707,-3.8707,-3.8707,-3.8707,-3.8596,-3.8382,-3.7738,-3.7248,-3.6882,-3.6165,-3.5783,-3.5622,-3.5622,-3.5694,-3.5898,-3.5898,-3.6011,-3.6165,-3.5985,-3.5898,-3.5854,0.0,0.0,0.0,0.0,0.0,0.0,0.0,0.0,3.2995,3.1994,3.0348,2.8885,2.7779,2.5497,2.3548,2.2335,2.1192,1.9705,1.761,1.7474,1.6789,1.5305,1.3598,1.1905,1.0278,0.8618,0.7403,0.6703,0.6273,0.4414,0.1084,0.0469,-0.1369,-0.4039,-0.2297,0.4599,1.4955,1.4337,1.2264,0.965,1.2579,0.929,0.2336,0.0,0.0,0.0,0.0,0.0,0.0,0.0,0.0,0.0,0.0,0.0,0.0,0.0,0.0,0.0,0.0,0.0,0.0,0.0,0.0,0.0,0.0,0.0,0.0,0.0,0.0,0.0,0.0,0.0,0.0,0.0,0.0,0.0,0.0,-3.0629,-3.0557,-3.1488,-3.1376,-3.1479,-3.2135,-3.273,-3.3109,-3.3111,-3.3271,-3.349,-3.3663,-3.4265,-3.4905,-3.5598,-3.6439,-3.7095,-3.7643,-3.7802,-3.8028,-3.8303,-3.8303,-3.8259,-3.8168,-3.7487,-3.6981,-3.6643,-3.5898,-3.5622,-3.5622,-3.5622,-3.5622,-3.5622,-3.5622,-3.5622,-3.5622,-3.5622,-3.547,-3.5207,0.0,0.0,0.0,0.0,0.0,0.0,0.0,3.3359,3.216,3.0085,2.8936,2.7508,2.5464,2.4657,2.3242,2.0835,2.059,1.9454,1.6835,1.6636,1.621,1.5234,1.4229,1.4126,1.5064,1.231,1.0813,1.0718,0.9814,0.9246,0.907,0.522,0.5934,1.0304,0.7857,1.2756,2.2731,2.3546,2.6433,3.0038,2.5038,2.2989,2.1924,0.0,0.0,0.0,0.0,0.0,0.0,0.0,0.0,0.0,0.0,0.0,0.0,0.0,0.0,0.0,0.0,0.0,0.0,0.0,0.0,0.0,0.0,0.0,0.0,0.0,0.0,0.0,0.0,0.0,0.0,0.0,0.0,0.0,-3.0419,-2.9962,-3.0061,-3.1341,-3.0923,-3.0779,-3.145,-3.2077,-3.2442,-3.2408,-3.3007,-3.3571,-3.4094,-3.4133,-3.4364,-3.4836,-3.5313,-3.5562,-3.5612,-3.6072,-3.6688,-3.7441,-3.7441,-3.7352,-3.7175,-3.7175,-3.6609,-3.5605,-3.5622,-3.5622,-3.5622,-3.5622,-3.5622,-3.5622,-3.5622,-3.5577,-3.5577,-3.5577,-3.5144,-3.4382,0.0,0.0,0.0,0.0,0.0,0.0,0.0,3.3211,3.2141,3.0847,2.8801,2.713,2.6122,2.3916,2.2298,2.1616,2.0398,1.9058,1.761,1.6954,1.621,1.5234,1.5503,1.5435,1.4957,1.4167,1.3709,1.3576,1.4027,1.3483,1.1947,1.1677,1.1928,1.2811,1.49,1.9218,2.497,2.7028,2.9771,3.2403,2.8705,2.6551,2.5177,0.0,0.0,0.0,0.0,0.0,0.0,0.0,0.0,0.0,0.0,0.0,0.0,0.0,0.0,0.0,0.0,0.0,0.0,0.0,0.0,0.0,0.0,0.0,0.0,0.0,0.0,0.0,0.0,0.0,0.0,0.0,-2.709,-2.6976,-2.8157,-2.8641,-2.8804,-2.8693,-2.8915,-2.9177,-2.9301,-3.0267,-3.0924,-3.0886,-3.1482,-3.1879,-3.202,-3.2297,-3.2819,-3.356,-3.3986,-3.4676,-3.5612,-3.5724,-3.6055,-3.6615,-3.6615,-3.6711,-3.6807,-3.6415,-3.6243,-3.6182,-3.5783,-3.5622,-3.5622,-3.5622,-3.5622,-3.5622,-3.5622,-3.5316,-3.4894,-3.4894,-3.4431,-3.3735,0.0,0.0,0.0,0.0,0.0,0.0,0.0,3.3249,3.2071,3.0349,2.8665,2.711,2.5642,2.3897,2.2604,2.1939,2.0655,1.9323,1.7996,1.7406,1.721,1.7474,1.7909,1.789,1.7281,1.688,1.684,1.7133,1.7685,1.747,1.6694,1.7539,1.8095,1.8512,2.1331,2.4493,2.7767,3.0392,3.2396,3.3665,3.2225,3.0435,2.8478,2.7454,2.6808,2.5864,2.1661,2.0215,1.9725,1.6263,0.0,0.0,0.0,0.0,0.0,0.0,0.0,0.0,0.0,0.0,0.0,0.0,0.0,0.0,0.0,0.0,0.0,0.0,0.0,0.0,0.0,0.0,0.0,0.0,-2.5758,-2.5598,-2.6104,-2.7033,-2.767,-2.7625,-2.7906,-2.8127,-2.8127,-2.8998,-2.9629,-2.9892,-3.0477,-3.0918,-3.119,-3.1411,-3.1788,-3.2273,-3.2702,-3.3247,-3.4015,-3.4199,-3.4623,-3.5204,-3.5204,-3.5379,-3.5634,-3.5326,-3.517,-3.5128,-3.5128,-3.5148,-3.5165,-3.5487,-3.5407,-3.5207,0.0,0.0,0.0,0.0,-3.3547,-3.3093,0.0,0.0,0.0,0.0,0.0,0.0,0.0,3.3413,3.2009,2.9541,2.8681,2.7355,2.491,2.4452,2.3754,2.231,2.1302,2.0009,1.8345,1.8305,1.9017,2.0526,2.0685,2.0797,2.0861,2.006,2.0117,2.1129,2.0962,2.1361,2.2263,2.2555,2.3774,2.5595,2.6867,2.8594,3.0788,3.3233,3.4279,3.4334,3.5185,3.4073,3.1726,3.025,3.0487,3.1253,2.8347,2.9933,3.1799,2.1276,0.0,0.0,0.0,0.0,0.0,0.0,0.0,0.0,0.0,0.0,0.0,0.0,0.0,0.0,0.0,0.0,0.0,0.0,0.0,0.0,0.0,0.0,0.0,0.0,-2.4758,-2.4957,-2.4395,-2.552,-2.6672,-2.7405,-2.7545,-2.7625,-2.7625,-2.8148,-2.8732,-2.9255,-2.9935,-3.0551,-3.1173,-3.1269,0.0,0.0,0.0,-3.2012,-3.2048,-3.2476,-3.3051,-3.3808,-3.3808,-3.4005,-3.4324,-3.4324,-3.4077,-3.3694,-3.4336,-3.4624,-3.4675,-3.5245,-3.5098,-3.4528,-3.5068,-3.4911,-3.4235,-3.2933,-3.2492,-3.2382,0.0,0.0,0.0,0.0,0.0,0.0,0.0,3.3626,3.2456,3.1225,2.948,2.7911,2.6924,2.5273,2.4163,2.3859,2.2482,2.1183,2.0158,2.0751,2.0967,2.059,2.1269,2.1928,2.2526,2.2345,2.2974,2.4494,2.4455,2.476,2.5418,2.5487,2.6703,2.8904,2.9156,3.0766,3.3291,3.3902,3.4589,3.533,3.5563,3.51,3.4168,3.3541,3.3196,3.294,3.2424,3.2158,3.1928,3.0997,2.2182,1.1434,1.0594,0.0412,0.0,0.0,0.0,0.0,0.0,0.0,0.0,0.0,0.0,0.0,0.0,0.0,0.0,0.0,0.0,0.0,0.0,0.0,0.0,-2.4232,-2.3888,-2.3692,-2.421,-2.5079,-2.5893,-2.6606,-2.7265,-2.7625,-2.7625,-2.8158,-2.8528,-2.8654,-2.9673,-3.0599,-3.1347,-3.1832,-3.2357,-3.2966,-3.3049,-3.3259,-3.3636,-3.3751,-3.4049,-3.45,-3.45,0.0,-3.5025,-3.5025,-3.5084,-3.5199,-3.5351,-3.5402,-3.5357,-3.4938,-3.4382,-3.3735,-3.3339,-3.3093,-3.2895,-3.2007,-3.1682,-3.1697,0.0,0.0,0.0,0.0,0.0,0.0,0.0,3.3789,3.2739,3.1737,3.0252,2.8831,2.7545,2.6448,2.5605,2.4898,2.3707,2.2684,2.185,2.2562,2.3004,2.2996,2.3427,2.3946,2.4655,2.4655,2.5176,2.6273,2.6691,2.7093,2.761,2.8078,2.9146,3.0707,3.1029,3.221,3.4023,3.4314,3.4908,3.5612,3.575,3.5606,3.5288,3.5074,3.4821,3.4542,3.4464,3.4129,3.3763,3.4164,2.8811,2.1495,1.8671,0.9718,-0.0587,0.0,0.0,0.0,0.0,0.0,0.0,0.0,0.0,0.0,0.0,0.0,0.0,0.0,0.0,-2.3248,-2.3653,0.0,-2.3248,-2.3653,-2.3359,-2.3248,-2.3666,-2.4328,-2.5285,-2.6385,-2.7151,-2.7625,-2.7625,-2.8178,-2.866,-2.8974,-2.9896,-3.0699,-3.1362,-3.1667,-3.2161,-3.2884,-3.29,-3.3186,-3.3744,-3.3744,-3.3831,-3.4056,-3.4056,-3.4123,-3.4292,-3.4292,-3.4389,-3.4539,-3.4895,-3.4869,-3.4489,-3.3841,-3.3391,-3.3039,-3.2312,-3.2272,-3.2492,-3.1796,-3.1482,-3.1482,0.0,0.0,0.0,0.0,0.0,0.0,0.0,3.4011,3.3083,3.2133,3.105,2.9807,2.8262,2.7784,2.7012,2.5708,2.5056,2.4352,2.3516,2.4217,2.4968,2.5536,2.5693,2.6044,2.6638,2.6665,2.7035,2.7758,2.8319,2.8916,2.9468,3.0209,3.1035,3.1939,3.2414,3.3176,3.416,3.4598,3.5109,3.5605,3.5786,3.5774,3.5703,3.5691,3.5696,3.5664,3.5469,3.5469,3.5463,3.4563,3.2912,3.0164,2.4182,1.74,1.0414,0.3908,-0.2893,0.0,0.0,0.0,0.0,0.0,0.0,0.0,0.0,-2.114,-2.1713,-2.185,-2.2261,-2.2735,-2.3053,-2.2955,-2.2942,-2.3065,-2.3078,-2.314,-2.3255,-2.3991,-2.4951,-2.6218,-2.7108,-2.7639,-2.7728,-2.8405,-2.8981,-2.9485,-3.0145,-3.0791,-3.1417,-3.1564,-3.1919,-3.2602,-3.2741,-3.3077,-3.364,-3.3743,-3.3846,-3.3846,-3.3846,-3.3846,-3.3829,-3.3684,-3.364,-3.3674,-3.4114,-3.3922,-3.3291,-3.2819,-3.2547,-3.2327,-3.1739,-3.1838,-3.2327,-3.1739,-3.1482,-3.1482,0.0,0.0,0.0,0.0,0.0,0.0,0.0,0.0,3.3785,3.3412,3.1871,3.0763,3.054,2.9138,2.768,2.6302,2.6633,2.6376,2.5232,2.6197,2.6657,2.6234,2.6696,2.7358,2.8032,2.8099,2.86,2.9698,2.9748,3.0309,3.1278,3.1405,3.2016,3.3012,3.3081,3.3697,3.4637,3.4693,3.507,3.5603,3.5624,3.5663,3.5701,3.5697,3.5689,3.5703,3.5664,3.5488,3.5131,3.4378,3.2367,2.9664,2.6823,2.0977,1.4404,1.036,0.4231,-0.1957,-0.5851,-1.1708,-1.6723,-1.6929,-1.8792,-2.0584,0.0,-2.0673,-2.0952,-2.1726,-2.1368,-2.1356,-2.2845,-2.254,-2.2261,-2.2967,-2.3078,-2.3292,-2.385,-2.4551,-2.5255,-2.5914,-2.69,-2.7707,-2.8194,-2.9005,-2.9529,-2.9567,-3.0164,-3.082,-3.1529,-3.2111,-3.2734,-3.3444,-3.4039,-3.4393,-3.444,-3.5064,-3.5368,-3.5368,-3.5368,-3.5368,-3.5324,-3.4755,-3.444,-3.4457,-3.3925,-3.3332,-3.2694,-3.261,-3.2216,-3.164,-3.1524,-3.1524,-3.1582,-3.1524,-3.1482,-3.1482,0.0,0.0,0.0,0.0,0.0,0.0,0.0,0.0,0.0,3.3632,3.2581,3.16,3.0959,2.9714,2.8534,2.7544,2.8114,2.8098,2.7139,2.7981,2.8387,2.8136,2.8347,2.889,2.981,2.9823,3.037,3.1455,3.1446,3.182,3.2535,3.2252,3.2614,3.3566,3.3476,3.388,3.471,3.4882,3.5166,3.5565,3.5584,3.5593,3.5588,3.563,3.5623,3.5574,3.5496,3.536,0.0,3.3487,3.1887,2.9942,2.665,2.1753,1.6439,1.2424,0.7138,0.1246,-0.5231,-0.9927,-1.3535,-1.5256,-1.702,-1.8281,-1.8281,-1.9114,-1.9974,-2.0281,-2.0489,-2.0822,-2.1498,-2.1803,-2.208,-2.2773,-2.3292,-2.3827,-2.4381,-2.4707,-2.5129,-2.5691,-2.6587,-2.746,-2.8226,-2.8956,-2.9601,-3.0118,-3.0739,-3.1238,-3.1526,-3.1787,-3.2276,-3.2986,-3.3287,-3.3633,-3.4037,-3.4301,-3.4447,-3.4447,-3.4447,-3.4447,-3.4447,-3.4137,-3.4037,-3.3987,-3.3287,-3.2841,-3.2547,-3.212,-3.1796,-3.1482,-3.1482,-3.1219,-3.0837,-3.1351,-3.1482,-3.1409,0.0,0.0,0.0,0.0,0.0,0.0,0.0,0.0,0.0,0.0,3.3195,3.2361,3.1423,3.0578,2.9794,2.9081,2.9581,2.9518,2.8652,2.9428,2.9814,2.9665,2.9811,3.0281,3.114,3.1133,3.167,3.2703,3.2703,3.2912,3.335,3.303,3.3195,3.3807,3.3715,3.4035,3.4712,3.4926,3.5185,3.5493,3.5565,3.5493,3.5378,3.5435,3.5378,3.5262,3.5109,3.4868,3.4357,3.2588,3.1147,2.9491,2.6097,2.1964,1.7595,1.3828,0.8708,0.2718,-0.4135,-0.7837,-1.0477,-1.3275,-1.4882,-1.593,-1.6469,-1.7639,-1.8662,-1.9213,-1.963,-2.009,-2.0683,-2.1074,-2.1574,-2.2348,-2.2999,-2.3711,-2.4493,-2.4658,-2.492,-2.572,-2.6411,-2.7123,-2.8047,-2.8771,-2.9577,-3.0349,-3.0865,-3.1278,-3.1482,-3.1482,-3.1739,-3.2272,-3.2477,-3.2841,-3.3339,-3.3495,-3.3582,-3.3582,-3.3582,-3.3582,-3.3582,-3.3391,-3.3235,-3.2971,-3.2532,-3.2272,-3.2272,-3.1739,-3.1482,-3.1467,-3.1278,-3.0837,-3.0329,-3.0703,-3.0837,-3.0718,0.0,0.0,0.0,0.0,0.0,0.0,0.0,0.0,0.0,0.0,0.0,0.0,0.0,3.2015,3.1489,3.0875,3.1027,3.0622,2.9426,3.0465,3.0886,3.0281,3.0842,3.1331,3.1771,3.1756,3.2229,3.3177,3.3195,3.3386,3.3788,3.377,3.377,3.3807,3.3807,3.4139,3.4688,3.4716,3.5018,3.5493,3.5493,3.5339,3.5109,3.5109,3.4941,3.471,3.4505,3.3866,3.2983,3.181,2.9949,2.7727,2.5629,2.2115,1.8279,1.5618,0.9276,0.2409,-0.0862,-0.4678,-0.8199,-1.0313,-1.2271,-1.4214,-1.618,-1.6665,-1.7203,-1.8937,-1.8622,-1.8685,-2.0772,-2.0493,-2.0421,-2.1702,-2.1974,-2.2496,-2.3973,-2.419,-2.4767,-2.6296,-2.6508,-2.6812,-2.7617,-2.8515,-2.9352,-3.024,-3.0315,-3.0703,-3.1467,-3.1482,-3.1539,-3.1524,-3.2231,-3.2602,-3.2641,-3.3287,-3.3582,-3.3582,-3.3582,-3.3582,-3.3582,-3.2949,-3.2216,-3.1582,-3.1524,-3.1524,-3.1524,-3.1539,-3.1482,-3.1409,-3.0644,-3.0329,-3.0208,-2.938,-2.9066,-2.9066,0.0,0.0,0.0,0.0,0.0,0.0,0.0,0.0,0.0,0.0,0.0,0.0,0.0,0.0,0.0,0.0,3.2015,3.1873,3.1489,3.1839,3.1964,3.1788,3.1964,3.2281,3.2701,3.2742,3.303,3.3597,3.3597,3.3652,3.3807,3.3807,3.3807,3.3825,3.4228,3.4506,3.4708,3.5076,3.532,3.5493,3.5493,3.5435,3.5355,3.5169,3.5042,3.4813,0.0,3.3158,3.2632,3.1372,2.9293,2.6931,2.498,2.1934,1.8308,1.4281,0.8793,0.3581,0.1176,-0.2481,-0.6083,-0.8223,-1.0674,-1.2833,-1.3526,-1.5191,-1.677,-1.7387,-1.7992,-1.8614,-1.937,-1.9949,-2.0659,-2.1453,-2.2023,-2.2717,-2.3632,-2.4317,-2.4885,-2.5417,-2.6094,-2.6589,-2.6905,-2.767,-2.8492,-2.938,-2.9442,-2.9827,-3.0644,-3.0703,-3.097,-3.1467,-3.1739,-3.1853,-3.1853,-3.2104,-3.2201,-3.2201,-3.2201,-3.2201,-3.2201,-3.1951,-3.1739,-3.1467,-3.097,-3.0703,-3.0644,-3.0072,-2.9827,-2.9827,-2.9566,-2.9066,-2.8556,-2.8247,-2.7802,-2.7417,0.0,0.0,0.0,0.0,0.0,0.0,0.0,0.0,0.0,0.0,0.0,0.0,0.0,0.0,0.0,0.0,0.0,3.3248,3.295,3.2932,3.2792,3.2511,3.2511,3.2722,3.3213,3.3189,3.3386,3.3807,3.3807,3.3807,3.3807,3.388,3.388,3.3825,3.4439,3.4698,3.4733,3.5168,3.5397,3.5493,3.5493,3.5388,3.5211,3.5021,3.4815,0.0,3.3411,3.258,3.1748,3.0335,2.8417,2.6293,2.3966,2.0696,1.6912,1.2492,0.8321,0.466,0.2272,-0.1171,-0.4525,-0.6662,-0.888,-1.0899,-1.1996,-1.3648,-1.5258,-1.606,-1.7252,-1.8182,-1.8441,-1.9487,-2.0541,-2.1036,-2.1607,-2.2219,-2.2881,-2.3514,-2.4047,-2.4409,-2.5159,-2.5861,-2.6214,-2.6866,-2.7605,-2.8454,-2.8556,-2.8939,-2.9766,-2.9827,-3.0208,-3.1029,-3.1087,-3.1219,-3.1482,-3.1482,-3.1351,-3.1087,-3.1351,-3.1351,-3.1087,-3.1351,-3.1351,-3.1029,-3.0524,-3.0133,-2.9766,-2.9254,-2.9002,-2.9002,-2.8684,-2.8182,-2.767,-2.7351,-2.6905,-2.6589,0.0,0.0,0.0,0.0,0.0,0.0,0.0,0.0,0.0,0.0,0.0,0.0,0.0,0.0,0.0,0.0,0.0,0.0,3.3872,3.3844,3.3505,3.272,3.2684,3.2893,3.335,3.335,3.356,3.3962,3.3925,3.388,3.3925,3.4109,3.4107,3.3876,3.4465,3.473,3.4749,3.4999,3.5262,3.5493,3.5504,3.5153,3.4723,3.4686,3.432,3.3725,3.3301,3.2111,3.0477,2.8895,2.7295,2.5515,2.245,1.859,1.445,1.0565,0.788,0.5558,0.2582,-0.0548,-0.3513,-0.5547,-0.6898,-0.8458,-1.1428,-1.2164,-1.2885,-1.5106,-1.6395,-1.7436,-1.8177,-1.9155,-2.0002,-2.0498,-2.0566,-2.0944,-2.1842,-2.1993,-2.2371,-2.3361,-2.3932,-2.46,-2.563,-2.619,-2.6724,-2.7574,-2.7696,-2.8066,-2.8917,-2.898,-2.9345,-3.0208,-3.0208,-3.0584,-3.1351,-3.1351,-3.097,-3.0269,-3.1029,-3.097,-3.0269,-3.1029,-3.097,-3.0208,-3.0208,-2.969,-2.8939,-2.8876,-2.8876,-2.8812,-2.7986,-2.767,-2.7537,-2.6714,-2.6383,-2.6383,0.0,0.0,0.0,0.0,0.0,0.0,0.0,0.0,0.0,0.0,0.0,0.0,0.0,0.0,0.0,0.0,0.0,0.0,3.5659,3.5643,3.5541,3.5329,3.5311,3.5393,3.5504,3.5504,3.566,3.5964,3.5375,3.5182,3.5356,3.4815,3.4526,3.4483,3.4833,3.5015,3.5018,3.5282,3.5435,3.547,3.5296,3.5107,3.4952,3.4494,3.404,3.358,3.2915,3.1895,3.0624,2.92,2.6104,2.2387,1.975,1.7195,1.4707,1.2205,0.899,0.5873,0.4252,0.1018,-0.2264,-0.3579,-0.5226,-0.7301,-0.9751,-1.149,-1.3037,-1.452,-1.5931,-1.7149,-1.8095,-1.8839,-1.9556,-2.0459,-2.0566,-2.0752,-2.1313,-2.2029,-2.2755,-2.3239,-2.4093,-2.4714,-2.5023,-2.5147,-2.565,-2.6699,-2.7573,-2.8164,-2.8625,-2.8599,-2.8861,-2.9331,-2.9317,-2.9442,-2.9628,-2.9628,-2.9504,-2.9317,-2.9566,-2.9504,-2.9317,-2.9566,-2.9504,-2.9317,-2.862,-2.8247,-2.7986,-2.7351,-2.7162,-2.7095,-2.6905,-2.6782,-2.6714,-2.5721,-2.537,-2.53,0.0,0.0,0.0,0.0,0.0,0.0,0.0,0.0,0.0,0.0,0.0,0.0,0.0,0.0,0.0,0.0,0.0,0.0,0.0,3.6945,3.6775,3.6313,3.6415,3.6415,3.6295,3.6544,3.6701,3.6701,3.639,3.6311,3.6451,3.6128,3.5912,3.582,3.6198,3.631,3.6213,3.6493,3.6613,0.0,0.0,3.6087,3.5903,3.5224,3.4532,3.3791,3.2704,3.0609,2.8064,2.6351,2.3182,1.969,1.7829,1.5673,1.3498,1.1546,0.8345,0.5237,0.4238,0.1252,-0.1876,-0.2882,-0.4368,-0.6126,-0.8404,-1.0178,-1.1762,-1.3094,-1.4822,-1.6277,-1.6987,-1.8162,-1.9204,-1.9766,-2.0409,-2.0947,-2.1201,-2.185,-2.2442,-2.2686,-2.3369,-2.397,-2.4512,-2.4697,-2.5311,-2.638,-2.7064,-2.7703,-2.8293,-2.835,-2.8481,-2.8754,-2.8793,-2.8866,-2.9002,-2.9002,-2.8812,-2.8427,-2.8812,-2.8812,-2.8427,-2.8812,-2.8812,-2.8427,-2.792,-2.7484,-2.7162,-2.6714,-2.6533,-2.6452,-2.6025,-2.5873,-2.5734,-2.4707,-2.4337,-2.4264,0.0,0.0,0.0,0.0,0.0,0.0,0.0,0.0,0.0,0.0,0.0,0.0,0.0,0.0,0.0,0.0,0.0,0.0,0.0,0.0,0.0,3.6705,3.6882,3.6863,3.6636,3.7168,3.7344,3.7098,3.7298,3.7444,3.7478,3.755,3.7478,3.7324,3.7742,3.7819,3.767,3.7886,3.7964,3.7905,3.7593,3.7239,3.6864,0.0,3.5178,3.3977,3.2315,2.8793,2.4596,2.2384,1.9954,1.7716,1.6441,1.4261,1.1784,0.9739,0.6965,0.4419,0.3352,0.0938,-0.1645,-0.2813,-0.3834,-0.5126,-0.7482,-0.8974,-1.0226,-1.1646,-1.3641,-1.5294,-1.5644,-1.7286,-1.8709,-1.9038,-2.0198,-2.1086,-2.1316,-2.1728,-2.1992,-2.2041,-2.2373,-2.3003,-2.3961,-2.4398,-2.5041,-2.6224,-2.6245,-2.6816,-2.7903,-2.8136,-2.8257,-2.8307,-2.8363,-2.8425,-2.8698,-2.8684,-2.8298,-2.7537,-2.8298,-2.8233,-2.7537,-2.8298,-2.8247,-2.7537,-2.7537,-2.7095,-2.6314,-2.6314,-2.6233,-2.6013,-2.5146,-2.4791,-2.4707,-2.3672,-2.3294,-2.3294,0.0,0.0,0.0,0.0,0.0,0.0,0.0,0.0,0.0,0.0,4.0543,4.0354,0.0,0.0,0.0,0.0,0.0,0.0,0.0,0.0,0.0,0.0,3.8456,3.8338,3.8288,3.8603,3.8883,3.9107,3.8709,3.8654,3.8916,3.7963,3.764,3.7847,3.7659,3.7698,3.7943,3.7986,3.7847,3.7563,3.7299,3.6747,3.6071,3.5699,0.0,0.0,3.0557,2.7592,2.4392,0.0,1.9724,1.7455,1.4898,1.3208,1.1636,0.8903,0.6437,0.4419,0.3352,0.1409,-0.0706,-0.2656,-0.3329,-0.4362,-0.757,-0.9374,-1.0653,-1.1939,-1.338,-1.4594,-1.553,-1.6164,-1.7263,-1.9181,-1.9934,-2.0661,-2.2068,-2.2353,-2.2539,-2.2881,-2.2988,-2.3114,-2.3278,-2.3337,-2.3887,-2.5041,-2.5061,-2.5769,-2.7358,-2.8299,-2.8396,-2.7506,-2.7538,-2.7341,-2.6918,-2.6905,-2.685,-2.6714,-2.685,-2.685,-2.6714,-2.685,-2.685,-2.6714,-2.6714,-2.6151,-2.5229,-2.5229,-2.4779,-2.4036,-2.3818,-2.3745,-2.3672,-2.2627,-2.2253,-2.2188,0.0,0.0,0.0,0.0,0.0,0.0,0.0,0.0,4.0946,4.0776,4.0677,4.0543,4.0335,4.0046,0.0,0.0,0.0,0.0,0.0,0.0,0.0,0.0,0.0,0.0,3.871,3.9138,3.9331,3.9342,0.0,3.9304,3.9438,3.9054,3.8955,3.9081,3.9067,3.915,3.9304,3.9304,3.9128,3.8852,3.8536,3.7912,3.7138,0.0,0.0,0.0,0.0,2.6624,2.359,2.1475,1.8685,1.5761,1.3528,1.1844,1.0318,0.8385,0.5906,0.3736,0.32,0.1565,-0.0551,-0.2698,-0.3291,-0.408,-0.6996,-0.8623,-0.9916,-1.1161,-1.2334,-1.3587,-1.4852,-1.5667,-1.649,-1.7855,-1.9392,-2.0671,-2.1493,-2.2246,-2.291,-2.3115,-2.3135,-2.3135,-2.3135,-2.3135,-2.3299,-2.3877,-2.4457,-2.5438,-2.6772,-2.7062,-2.7251,-2.7297,-2.6737,-2.6549,-2.6892,-2.6672,-2.6245,-2.5734,-2.6233,-2.6245,-2.5734,-2.6245,-2.6233,-2.5734,-2.5734,-2.5146,-2.4192,-2.4192,-2.3963,-2.3441,-2.2925,-2.2702,-2.2627,-2.1593,-2.1298,-2.1231,0.0,0.0,0.0,0.0,0.0,0.0,0.0,4.1113,4.0994,4.0854,4.0781,4.0677,4.0562,4.0277,3.9986,0.0,0.0,0.0,0.0,0.0,0.0,0.0,0.0,0.0,0.0,0.0,0.0,3.9109,3.9452,0.0,0.0,0.0,0.0,0.0,4.0311,4.0403,4.0415,4.0415,4.0196,0.0,0.0,3.8971,0.0,0.0,0.0,0.0,0.0,2.6021,2.301,2.0751,1.7714,1.453,1.2395,1.0436,0.8741,0.7476,0.5217,0.3046,0.2813,0.1415,-0.0556,-0.2822,-0.3426,-0.4062,-0.6357,-0.7881,-0.9132,-1.0317,-1.1466,-1.2753,-1.4195,-1.5238,-1.606,-1.6639,-1.8555,-2.0219,-2.0754,-2.1923,-2.2775,-2.3047,-2.3135,-2.3135,-2.3135,-2.3135,-2.3135,-2.3135,-2.3963,-2.5052,-2.64,-2.601,-2.6143,-2.6909,-2.606,-2.5917,-2.66,-2.6254,-2.555,-2.4707,-2.5511,-2.5429,-2.4707,-2.5499,-2.5441,-2.4707,-2.4707,-2.4108,-2.3147,-2.3147,-2.3073,-2.2776,-2.2038,-2.1735,-2.1593,-2.0857,-2.0566,-2.0566,0.0,0.0,0.0,0.0,0.0,0.0,0.0,4.1191,4.1132,4.0991,4.0878,4.0754,4.0696,4.0335,4.0092,0.0,0.0,0.0,0.0,0.0,0.0,0.0,0.0,0.0,0.0,0.0,0.0,3.9095,3.9438,0.0,0.0,0.0,0.0,0.0,0.0,4.0136,4.0129,4.0129,0.0,0.0,0.0,0.0,0.0,0.0,0.0,0.0,0.0,2.6059,2.3432,1.9831,1.7418,1.5341,1.1379,0.9185,0.7667,0.5572,0.4059,0.289,0.1957,0.0876,-0.0567,-0.2832,-0.3508,-0.4136,-0.6401,-0.7887,-0.9213,-1.0346,-1.1466,-1.2753,-1.4195,-1.4825,-1.5535,-1.6884,-1.7591,-1.8724,-2.0971,-2.1364,-2.1845,-2.296,-2.3135,-2.3135,-2.3135,-2.3135,-2.3135,-2.3135,-2.3222,-2.4221,-2.6389,-2.6438,-2.6192,-2.5801,-2.562,-2.5239,-2.4503,-2.4446,-2.4112,-2.3672,-2.3734,-2.3734,-2.3672,-2.3734,-2.3734,-2.3672,-2.3672,-2.3073,-2.2103,-2.2103,-2.1669,-2.0867,-2.0789,-2.0712,-2.0712,-2.0644,-2.0566,-2.0566,0.0,0.0,0.0,0.0,0.0,0.0,0.0,4.1074,4.1035,4.0898,4.0809,4.0696,4.06,4.0431,4.0277,0.0,0.0,0.0,0.0,0.0,0.0,0.0,0.0,0.0,0.0,0.0,3.8854,3.8854,3.8995,0.0,0.0,0.0,0.0,0.0,0.0,3.9796,3.9789,3.9797,0.0,0.0,0.0,0.0,0.0,0.0,0.0,0.0,0.0,0.0,2.2371,1.9612,1.6468,1.3385,1.0985,0.8852,0.7037,0.5333,0.4076,0.3017,0.1877,0.0824,-0.0583,-0.2944,-0.3592,-0.4169,-0.6508,-0.745,-0.836,-1.0178,-1.1152,-1.2207,-1.4369,-1.5023,-1.5494,-1.6237,-1.713,-1.8048,-1.9047,-1.9761,-2.0666,-2.1845,-2.2031,-2.2306,-2.3047,-2.3135,-2.3135,-2.3135,-2.3135,-2.3474,-2.4392,-2.4478,-2.4639,-2.5099,-2.483,-2.461,-2.4713,-2.4334,-2.3632,-2.2627,-2.322,-2.3147,-2.2627,-2.322,-2.3147,-2.2627,-2.2627,-2.2038,-2.1155,-2.1155,-2.0934,-2.0566,-2.0566,-2.0566,-2.0566,-2.0566,-2.0566,-2.0566,0.0,0.0,0.0,0.0,0.0,4.1003,4.0996,4.0996,4.0973,4.0875,4.0768,4.0658,4.0581,4.0508,4.0392,4.0123,0.0,0.0,0.0,0.0,0.0,0.0,0.0,0.0,0.0,0.0,3.8707,3.8707,3.8707,3.8707,0.0,0.0,3.9091,3.9124,0.0,0.0,0.0,0.0,0.0,0.0,0.0,0.0,0.0,0.0,0.0,0.0,0.0,0.0,0.0,0.0,0.0,1.2391,1.0578,0.0,0.0,0.5068,0.3936,0.3016,0.151,0.0591,-0.0597,-0.3022,-0.3568,-0.421,-0.6584,-0.7139,-0.7661,-0.9662,-1.0612,-1.182,-1.4077,-1.5008,-1.5491,-1.5785,-1.6574,-1.7225,-1.7692,-1.8411,-1.9405,-2.0666,-2.0755,-2.1123,-2.1952,-2.2041,-2.2041,-2.2041,-2.2041,-2.2041,-2.2041,-2.2403,-2.3096,-2.4296,-2.3924,-2.3867,-2.4277,-2.3802,-2.2942,-2.1799,-2.2327,-2.2264,-2.1593,-2.2339,-2.2264,-2.1593,-2.1593,-2.1221,-2.0566,-2.0566,-2.0566,-2.0566,-2.0566,-2.0401,-2.0167,-2.0167,-1.9923,-1.959,0.0,0.0,0.0,0.0,0.0,0.0,0.0,4.0996,4.1,4.1007,4.0812,4.0696,4.0696,4.0581,4.0392,4.0123,0.0,0.0,0.0,0.0,0.0,0.0,0.0,0.0,0.0,0.0,3.8707,3.8707,3.8707,3.8707,3.8707,3.8977,3.9098,3.9107,0.0,0.0,0.0,0.0,0.0,0.0,0.0,0.0,0.0,0.0,0.0,0.0,0.0,0.0,0.0,0.0,0.0,0.0,0.0,0.0,0.0,0.0,0.335,0.2849,0.0588,0.0,-0.0608,-0.3033,-0.3605,-0.4192,-0.6602,-0.7139,-0.7489,-0.8627,-1.0088,-1.1552,-1.2983,-1.4447,-1.5491,-1.5785,-1.5832,-1.6298,-1.7498,-1.7684,-1.8141,-1.9405,-1.9497,-1.9497,-1.9588,-1.9588,-1.9588,-1.9588,-1.9588,-1.9588,-1.9588,-2.0666,-2.1845,-2.3047,-2.3135,-2.293,-2.251,-2.2173,-2.166,-2.1221,-2.085,-2.0644,-2.0644,-2.0644,-2.0644,-2.0644,-2.0644,-2.0644,-2.0566,-2.0566,-2.0566,-2.0566,-2.0566,-1.9923,-1.9036,-1.9036,-1.831,-1.7334,0.0,0.0,0.0,0.0,0.0,0.0,0.0,4.0859,4.0863,4.0858,4.0696,4.0562,4.0562,4.0543,4.0392,4.0123,0.0,0.0,0.0,0.0,0.0,0.0,0.0,0.0,0.0,0.0,3.8707,3.8707,3.8707,3.8707,3.8707,3.8781,3.8835,3.8836,3.8929,3.8929,0.0,0.0,0.0,0.0,0.0,0.0,3.2253,0.0,0.0,0.0,0.0,0.0,0.0,0.0,0.0,0.0,0.0,0.0,0.0,0.3166,0.289,0.2977,0.0616,0.0,-0.0622,-0.3008,-0.3641,-0.4194,-0.6602,-0.7139,-0.7432,-0.8779,-1.0296,-1.1785,-1.3044,-1.4633,-1.5718,-1.5812,-1.5832,-1.592,-1.6386,-1.6386,-1.685,-1.8141,-1.9047,-1.9497,-1.9497,-1.9497,-1.9497,-1.9497,-1.9497,-1.9497,-1.9497,-1.9852,-2.0576,-2.1845,-2.2677,-2.2939,-2.2519,-2.21,-2.167,-2.123,-2.0781,-2.0566,-2.0566,-2.0566,-2.0566,-2.0566,-2.0566,-2.0566,-2.0566,-2.0566,-2.0566,-2.0566,-1.9756,-1.9283,-1.8877,-1.8149,-1.7577,-1.7342,0.0,0.0,0.0,0.0,0.0,0.0,0.0,4.0781,4.0766,4.08,4.062,4.0489,4.0489,4.0412,4.0239,3.9935,0.0,0.0,0.0,0.0,0.0,0.0,0.0,0.0,0.0,3.8707,3.8707,3.8707,3.8707,3.8707,3.8707,3.8707,3.8707,3.8707,3.8707,3.8578,0.0,0.0,0.0,0.0,0.0,0.0,3.0177,0.0,0.0,0.0,0.0,0.0,0.0,0.0,0.0,0.0,0.0,0.0,0.0,0.0,0.2325,0.2503,0.0539,-0.0359,-0.1165,-0.3126,-0.3927,-0.473,-0.6694,-0.7183,-0.7431,-0.8332,-0.9723,-1.1067,-1.1859,-1.3702,-1.5045,-1.5045,-1.5534,-1.5832,-1.5832,-1.5832,-1.6109,-1.685,-1.7669,-1.8118,-1.8118,-1.8118,-1.8118,-1.8118,-1.8118,-1.8118,-1.8118,-1.8588,-1.9131,-1.9943,-2.1123,-2.1581,-2.1185,-2.078,-2.0375,-1.997,-1.9556,-1.9353,-1.9353,-1.9353,-1.9353,-1.9353,-1.9353,-1.9353,0.0,-1.9353,-1.9353,-1.9274,-1.863,-1.8141,-1.7658,-1.6927,-1.6445,-1.6124,0.0,0.0,0.0,0.0,0.0,0.0,0.0,0.0,4.0727,4.08,4.062,4.0489,4.0489,4.0277,3.9996,3.9627,0.0,0.0,0.0,0.0,0.0,0.0,0.0,0.0,0.0,3.8707,3.8707,3.8707,3.8707,3.8707,3.8707,3.8658,3.8627,3.8627,3.8627,3.8267,0.0,0.0,0.0,0.0,0.0,0.0,0.0,0.0,0.0,0.0,0.0,0.0,0.0,0.0,0.0,0.0,0.0,0.0,0.0,0.0,0.0,0.0,0.0,-0.0986,-0.2147,-0.3393,-0.4552,-0.5714,-0.6871,-0.7258,0.0,-0.7387,-0.873,-0.9814,-0.9827,-1.1985,-1.3776,-1.3872,-1.4854,-1.573,-1.5825,-1.5832,-1.5832,-1.5832,-1.5832,-1.5832,-1.5832,-1.5832,-1.5832,-1.5832,-1.5832,-1.5832,-1.5832,-1.6943,-1.7598,-1.7598,-1.8656,-1.9208,-1.9146,-1.8597,-1.8242,-1.7962,-1.7516,-1.7342,-1.7342,-1.7342,-1.7342,-1.7342,-1.7342,-1.7342,-1.7342,-1.7342,-1.7342,-1.7253,-1.7261,-1.6601,-1.5696,-1.5621,-1.4977,-1.4088,0.0,0.0,0.0,0.0,0.0,0.0,0.0,0.0,0.0,0.0,4.062,4.0489,4.0489,4.0431,4.0196,0.0,0.0,0.0,0.0,0.0,0.0,0.0,0.0,0.0,0.0,3.8707,3.8707,3.8707,3.8707,3.8707,3.8707,3.8267,3.8099,3.8065,3.7703,3.6988,0.0,0.0,0.0,0.0,0.0,0.0,0.0,0.0,0.0,0.0,1.6401,1.4011,0.0,0.0,0.0,0.0,0.0,0.0,0.0,0.0,-0.0984,-0.1252,-0.2412,0.0,-0.2325,-0.4465,-0.5179,-0.5714,0.0,0.0,0.0,0.0,0.0,-0.9853,-0.9905,-1.1327,-1.2721,-1.368,-1.4166,-1.4657,-1.5635,-1.5832,-1.5832,-1.5832,-1.5832,-1.5832,-1.5832,-1.5832,-1.5832,-1.5832,-1.5832,-1.5832,-1.5832,-1.6109,-1.6292,-1.6292,-1.6344,-1.7258,-1.9049,-1.8597,-1.8242,-1.7962,-1.7516,-1.7342,-1.7342,-1.7342,-1.7342,-1.7342,-1.7342,-1.7342,-1.7342,-1.7342,-1.7342,-1.7261,-1.6437,-1.5944,-1.5621,-1.4817,-1.4328,-1.4088,0.0,0.0,0.0,0.0,0.0,0.0,0.0,0.0,0.0,0.0,0.0,0.0,0.0,0.0,0.0,0.0,0.0,0.0,0.0,0.0,0.0,0.0,0.0,0.0,3.8016,3.8016,3.8016,3.8016,3.8016,3.8016,3.8016,3.7703,3.7578,3.7542,3.6738,3.5848,0.0,0.0,0.0,0.0,2.8822,0.0,0.0,0.0,0.0,0.0,1.4871,1.2246,0.0,0.769,0.5598,0.3486,0.0,0.0,0.0,0.0,-0.179,-0.2147,-0.3929,-0.3929,-0.3753,-0.509,-0.5802,-0.6337,-0.6962,0.0,0.0,0.0,0.0,-0.9006,-0.9099,-1.0194,-1.1263,-1.2037,-1.2619,-1.3397,-1.4752,-1.5439,-1.554,-1.5045,-1.5439,-1.5534,-1.4949,-1.5439,-1.5832,-1.5832,-1.5832,-1.5832,-1.5832,-1.5832,-1.5765,-1.5631,-1.5478,-1.5958,-1.7227,-1.6805,-1.6473,-1.6232,-1.5967,-1.5794,-1.5794,-1.5794,-1.5794,-1.5794,-1.5794,-1.5794,-1.5794,-1.5794,-1.5794,-1.5794,-1.522,-1.4977,-1.4894,-1.4328,-1.4088,-1.4088,0.0,0.0,0.0,0.0,0.0,0.0,0.0,0.0,0.0,0.0,0.0,0.0,0.0,0.0,0.0,0.0,0.0,0.0,0.0,0.0,0.0,0.0,0.0,3.719,3.719,3.719,3.719,3.719,3.719,3.719,3.719,3.7114,3.6981,3.6751,3.571,3.4725,0.0,0.0,0.0,2.9464,2.7508,0.0,0.0,0.0,0.0,0.0,0.0,0.0,0.0,0.6471,0.4269,0.17,0.1342,0.0,0.0,0.0,0.0,0.0,-0.509,-0.5625,-0.5625,-0.5625,-0.6425,-0.7139,-0.7139,0.0,0.0,0.0,0.0,0.0,-0.8038,-0.8924,-0.9805,-0.9998,-1.1072,-1.2334,-1.3392,-1.4561,-1.4758,-1.3686,-1.4561,-1.4758,-1.368,-1.4752,-1.5534,-1.5534,-1.573,-1.5832,-1.5832,-1.5785,-1.5651,-1.5404,-1.5311,-1.5144,-1.4897,-1.4643,-1.4376,-1.4088,-1.4088,-1.4088,-1.4088,-1.4088,-1.4088,-1.4088,-1.4088,-1.4088,-1.4088,-1.4088,-1.4088,-1.4088,-1.4088,-1.4088,-1.4088,-1.4088,-1.4088,-1.4088,0.0,0.0,0.0,0.0,0.0,0.0,0.0,0.0,0.0,0.0,0.0,0.0,0.0,0.0,0.0,0.0,0.0,0.0,0.0,0.0,0.0,0.0,3.6724,3.719,3.719,3.719,3.719,3.719,3.719,3.719,3.7173,3.6724,3.5985,3.4968,3.4797,3.3607,3.1764,3.157,3.0156,2.7788,2.4997,0.0,0.0,0.0,0.0,0.0,0.0,0.0,0.0,0.3652,0.2235,0.1431,-0.0626,0.0,0.0,0.0,0.0,0.0,-0.6514,-0.6871,-0.6871,-0.6871,-0.6962,-0.7139,-0.7139,0.0,0.0,0.0,0.0,0.0,0.0,-0.8137,-0.8726,-0.9805,-1.1072,-1.1945,-1.2139,-1.2334,-1.2431,-1.2237,-1.2334,-1.2431,-1.2237,-1.3392,-1.4166,-1.4166,-1.5146,-1.5832,-1.5832,-1.5591,-1.5444,-1.5398,-1.4917,-1.4636,-1.4589,-1.4543,-1.4376,-1.4088,-1.4088,-1.4088,-1.4088,-1.4088,-1.4088,-1.4088,-1.4088,-1.4088,-1.4088,-1.4088,-1.4088,-1.4088,-1.4088,-1.4088,-1.4088,-1.4088,-1.4088,-1.4088,0.0,0.0,0.0,0.0,0.0,0.0,0.0,0.0,0.0,0.0,0.0,0.0,0.0,0.0,0.0,0.0,0.0,0.0,0.0,0.0,0.0,3.5605,3.5725,3.5951,3.6316,3.6316,3.6316,3.6316,3.6316,3.6316,3.6316,3.5217,3.4023,3.2776,3.2307,3.1063,2.9218,2.8795,2.7328,2.5069,0.0,0.0,0.0,0.0,0.0,0.0,0.0,0.0,0.0,0.0,0.1344,0.0538,-0.1253,0.0,0.0,0.0,0.0,0.0,-0.6786,-0.7139,-0.7139,-0.7139,-0.7139,-0.7139,-0.7139,0.0,0.0,0.0,0.0,0.0,0.0,-0.8038,-0.8237,-0.8825,-0.9998,-1.0877,-1.0877,-1.1458,-1.1653,-1.0974,-1.1458,-1.1653,-1.0974,-1.2037,-1.3102,-1.3878,-1.4459,-1.5045,-1.573,-1.5558,-1.5324,-1.517,-1.4743,-1.4442,-1.4289,-1.4282,-1.4222,-1.4088,-1.4088,-1.4088,-1.4088,-1.4088,-1.4088,-1.4088,-1.4088,-1.4088,-1.4088,-1.4088,-1.4088,-1.4088,-1.4088,-1.4088,-1.3997,-1.3379,-1.3118,-1.3033,0.0,0.0,0.0,0.0,0.0,0.0,0.0,0.0,0.0,0.0,0.0,0.0,0.0,0.0,0.0,0.0,0.0,0.0,0.0,0.0,3.5586,3.4844,3.4333,3.4495,3.5362,3.5207,3.5115,3.5115,3.5115,3.5035,3.4781,3.3627,3.2191,3.0632,2.9966,2.8636,2.6824,2.5971,2.4402,2.2282,0.0,0.0,0.0,0.0,0.0,0.0,0.0,0.0,0.0,0.0,0.0,0.0,0.0,0.0,0.0,-0.5179,-0.5802,-0.5983,-0.6874,-0.7139,-0.7139,-0.7139,0.0,0.0,0.0,0.0,0.0,0.0,0.0,0.0,-0.8011,-0.8038,-0.8038,-0.8038,-0.8821,-0.9509,-0.9509,-1.0386,-1.0583,-0.9608,-1.0386,-1.0583,-0.9608,-1.0681,-1.1848,-1.2909,-1.3295,-1.3855,-1.476,-1.4596,-1.4318,-1.4135,-1.3762,-1.3515,-1.3307,-1.33,-1.3561,-1.4088,-1.4088,-1.4088,-1.4088,-1.4088,-1.4088,-1.4088,-1.4088,-1.4088,-1.4088,-1.4088,-1.4088,-1.4088,-1.3822,-1.3561,-1.313,-1.2248,-1.1895,-1.1809,0.0,0.0,0.0,0.0,0.0,0.0,0.0,0.0,0.0,0.0,0.0,0.0,0.0,0.0,0.0,0.0,0.0,0.0,0.0,0.0,3.3876,3.2576,3.2469,3.3149,3.4624,3.4087,3.3735,3.3735,3.3735,3.3348,3.2522,3.2415,3.1102,2.8822,2.8685,2.7249,2.4919,2.3881,2.2261,2.0117,1.7045,0.0,0.0,0.0,0.0,0.0,0.0,0.0,0.0,0.0,0.0,0.0,0.0,0.0,-0.5356,-0.6605,-0.6962,-0.6962,-0.7051,-0.7139,-0.7139,-0.7139,-0.7139,0.0,-0.7139,-0.7258,0.0,-0.7567,0.0,0.0,-0.8011,-0.8038,-0.8038,-0.8038,-0.8038,-0.8137,-0.8137,-0.8233,-0.8237,-0.8137,-0.8233,-0.8237,-0.8137,-0.9312,-1.0194,-1.0288,-1.1361,-1.2047,-1.202,-1.1703,-1.1566,-1.1421,-1.1102,-1.0885,-1.0869,-1.0869,-1.1912,-1.4088,-1.4088,-1.4088,-1.4088,-1.4088,-1.4088,-1.4088,-1.4088,-1.4088,-1.4088,-1.4088,-1.4088,-1.3997,-1.2851,-1.1815,-1.0869,-1.0783,-1.0697,-1.0697,0.0,0.0,0.0,0.0,0.0,0.0,0.0,0.0,0.0,0.0,0.0,0.0,0.0,0.0,0.0,0.0,0.0,0.0,0.0,0.0,3.1157,3.0654,2.9604,2.9323,2.9944,3.1283,3.1989,3.1989,3.1394,3.0409,2.9036,2.7808,2.6531,2.5196,2.3171,2.146,1.9898,1.7976,1.5992,1.4008,1.2052,0.9667,0.0,0.0,0.0,0.0,0.0,0.0,0.0,0.0,-0.3158,-0.3429,-0.5031,-0.5556,-0.5724,-0.6811,-0.7139,-0.7139,-0.7139,-0.7139,-0.7139,-0.7139,-0.7139,0.0,0.0,-0.7183,-0.7299,-0.755,-0.7641,-0.7753,-0.7994,-0.8038,-0.8038,-0.8038,-0.8038,-0.8038,-0.8038,-0.8038,-0.8038,-0.8038,-0.8038,-0.8038,-0.8038,-0.8432,-0.9118,-0.9903,-1.0369,-1.0938,-1.1611,-1.1359,-1.112,-1.1122,-1.0727,-1.0611,-1.0611,-1.0611,-1.1047,-1.1912,-1.1912,-1.1912,-1.1912,-1.1912,-1.1912,-1.1912,-1.1912,-1.1912,-1.1912,-1.1912,-1.1912,-1.1912,-1.1386,-1.0956,-1.0524,-0.9836,-0.9579,-0.9405,0.0,0.0,0.0,0.0,0.0,0.0,0.0,0.0,0.0,0.0,0.0,0.0,0.0,0.0,0.0,0.0,0.0,0.0,3.0366,2.9091,2.8153,2.7611,2.6164,2.5241,2.4937,2.6323,2.7705,2.89,2.7919,2.6544,2.4755,2.3456,2.1843,2.0072,1.7847,1.5959,1.4251,1.2298,1.0168,0.8138,0.6439,0.4343,0.0,0.0,0.0,0.0,0.0,0.0,0.0,0.0,-0.4555,-0.4733,-0.5887,-0.6236,-0.6403,-0.7041,-0.7251,-0.7214,-0.7214,-0.7177,-0.7139,-0.7139,0.0,0.0,-0.7139,-0.7139,-0.7214,-0.7475,-0.76,-0.7743,-0.7994,-0.8038,-0.8038,-0.8038,-0.8038,-0.8038,-0.8038,-0.8038,-0.8038,-0.8038,-0.8038,-0.8038,-0.8038,-0.7994,-0.8357,-0.9229,-0.9164,-0.951,-1.0286,-1.0117,-0.9933,-0.9864,-0.9643,-0.9483,-0.9483,-0.9483,-0.9483,-0.9483,-0.9483,-0.9918,-1.0611,-1.0611,-1.0611,-1.0611,-1.0611,-1.0611,-1.0611,-1.0611,-1.0351,-1.0096,-1.0096,-0.9831,-0.9396,-0.8623,-0.8364,-0.8189,0.0,0.0,0.0,0.0,0.0,0.0,0.0,0.0,0.0,0.0,0.0,0.0,0.0,0.0,0.0,0.0,0.0,0.0,2.8547,2.6804,2.499,2.3167,2.2028,2.1077,2.0264,1.9053,2.0357,2.4317,2.3219,2.1677,1.973,1.972,1.7441,1.3453,1.3365,1.1577,0.8305,0.7274,0.5414,0.31,0.0529,-0.036,-0.0548,0.0,0.0,0.0,0.0,0.0,0.0,0.0,-0.5881,-0.6072,-0.7218,-0.76,-0.76,-0.76,-0.7492,-0.7373,-0.7373,-0.7261,-0.7143,-0.7143,0.0,0.0,-0.7139,-0.7139,-0.7183,-0.7339,-0.7604,-0.7858,-0.8011,-0.8038,-0.8038,-0.8038,-0.8038,-0.8038,-0.8038,-0.8038,-0.8038,-0.8038,-0.8038,-0.8038,-0.8038,-0.7899,-0.7811,-0.7811,-0.7678,-0.7533,-0.738,-0.737,-0.7299,-0.7146,-0.7139,-0.7139,-0.7139,-0.7139,-0.7139,-0.7139,-0.7139,-0.8356,-1.0611,-1.0611,-1.0611,-1.0611,-1.0611,-1.0611,-1.0611,-1.0611,-0.9923,-0.889,-0.889,-0.8193,-0.7139,-0.7139,-0.7139,-0.7139,0.0,0.0,0.0,0.0,0.0,0.0,0.0,0.0,0.0,0.0,0.0,0.0,0.0,0.0,0.0,0.0,0.0,0.0,2.286,2.1534,1.9887,1.7778,1.6724,1.6059,1.5789,1.3912,1.455,1.8002,1.6846,1.5582,1.4318,1.1887,1.0068,0.8711,0.6266,0.421,0.2398,0.0433,-0.14,-0.3101,-0.4748,-0.6056,-0.6998,0.0,0.0,0.0,0.0,0.0,0.0,0.0,0.0,0.0,-0.939,-0.9163,-0.8954,-0.7911,-0.7567,-0.7533,-0.7533,-0.7421,-0.7302,-0.7302,-0.7221,-0.7139,0.0,-0.7139,0.0,0.0,-0.7604,-0.7824,-0.7872,-0.7967,-0.8038,-0.8038,-0.8038,-0.8038,-0.8038,-0.8038,-0.8038,-0.8038,-0.7943,-0.7879,-0.7879,-0.7746,-0.7662,-0.7662,-0.7526,-0.7417,-0.7373,-0.7268,-0.7187,-0.7143,-0.7139,-0.7139,-0.7139,-0.7139,-0.7139,-0.7139,-0.7139,-0.7489,-0.8093,-0.8093,-0.8093,-0.8093,-0.8093,-0.8093,-0.8093,-0.8093,-0.7925,-0.7665,-0.7665,-0.7404,-0.7139,-0.7139,-0.7139,-0.7139,0.0,0.0,0.0,0.0,0.0,0.0,0.0,0.0,0.0,0.0,0.0,0.0,0.0,0.0,0.0,0.0,0.0,0.0,0.0,0.0,1.4508,1.2769,1.1679,1.0683,0.9795,0.7986,0.7506,0.8576,0.9711,0.9503,0.7924,0.5328,0.3699,0.2674,0.0087,-0.2257,-0.4226,-0.5656,-0.7403,-0.9306,-1.0666,-1.1499,-1.2045,0.0,0.0,0.0,0.0,0.0,0.0,0.0,0.0,0.0,-1.0922,-1.0596,-1.0459,-0.9415,-0.8753,-0.8318,-0.8255,-0.7756,-0.7278,-0.7278,-0.721,-0.7139,-0.7139,-0.7139,-0.7183,-0.7339,-0.7512,-0.7655,-0.7716,-0.7801,-0.7865,-0.7865,-0.7865,-0.7865,-0.7865,-0.7865,-0.7865,-0.7865,-0.7784,-0.7726,-0.7726,-0.7594,-0.7509,-0.7509,-0.7366,-0.7278,-0.7278,-0.719,-0.7139,-0.7139,-0.7139,-0.7139,-0.7139,-0.7139,-0.7139,-0.7139,-0.7139,-0.7139,-0.7139,-0.7139,-0.7139,-0.7139,-0.7139,-0.7139,-0.7139,-0.7139,-0.7139,-0.7139,-0.7139,-0.7139,-0.7139,-0.7139,-0.7139,-0.7139,0.0,0.0,0.0,0.0,0.0,0.0,0.0,0.0,0.0,0.0,0.0,0.0,0.0,0.0,0.0,0.0,0.0,0.0,0.0,0.0,0.8795,0.7621,0.6634,0.4995,0.272,0.1663,-0.0087,-0.2363,0.2355,0.3408,0.1049,-0.0087,-0.1913,-0.4212,-0.5418,-0.7834,-1.0964,-1.1038,-1.2559,-1.497,-1.6413,-1.6477,-1.5889,-1.7217,0.0,0.0,0.0,0.0,0.0,0.0,0.0,0.0,-1.2139,-1.2042,-1.2002,-1.1592,-1.0533,-0.9507,-0.9249,-0.8169,-0.7163,-0.7163,-0.7149,-0.7139,-0.7139,-0.7139,-0.718,-0.7322,-0.736,-0.7414,-0.7553,-0.759,-0.76,-0.76,-0.76,-0.76,-0.76,-0.76,-0.76,-0.76,-0.7587,-0.758,-0.758,-0.7441,-0.735,-0.735,-0.7221,-0.7139,-0.7139,-0.7139,-0.7139,-0.7139,-0.7139,-0.7139,-0.7139,-0.7139,-0.7139,-0.7139,-0.7139,-0.7139,-0.7139,-0.7139,-0.7139,-0.7139,-0.7139,-0.7139,-0.7139,-0.7139,-0.7139,-0.7139,-0.7139,-0.7139,-0.7139,-0.7139,-0.7139,-0.7139,0.0,0.0,0.0,0.0,0.0,0.0,0.0,0.0,0.0,0.0,0.0,0.0,0.0,0.0,0.0,0.0,0.0,0.0,0.0,0.0,0.2124,-0.0775,-0.1124,-0.1909,-0.3401,-0.3664,-0.4894,-0.7299,-0.2554,-0.1495,-0.3839,-0.5003,-0.6747,-0.897,-1.0198,-1.2169,-1.4538,-1.5368,-1.6428,-1.765,-1.8795,-1.8966,-1.8605,-1.8967,-1.8899,0.0,0.0,0.0,0.0,0.0,0.0,0.0,-1.4058,-1.3488,-1.3284,-1.2174,-1.0852,-0.9737,-0.9699,-0.8532,-0.7322,-0.7322,-0.7231,-0.7139,-0.7139,-0.7139,-0.7149,-0.7183,-0.7285,-0.7383,-0.7414,-0.7519,-0.76,-0.76,-0.76,-0.76,-0.76,-0.76,-0.76,-0.76,-0.7495,-0.7421,-0.7421,-0.7282,-0.719,-0.719,-0.716,-0.7139,-0.7139,-0.7139,-0.7139,-0.7139,-0.7139,-0.7139,-0.7139,-0.7139,-0.7139,-0.7139,-0.7139,-0.7139,-0.7139,-0.7139,-0.7139,-0.7139,-0.7139,-0.7139,-0.7139,-0.7139,-0.7139,-0.7139,-0.7139,-0.7139,-0.7139,-0.7139,-0.7139,-0.7139,0.0,0.0,0.0,0.0,0.0,0.0,0.0,0.0,0.0,0.0,0.0,0.0,0.0,0.0,0.0,0.0,0.0,0.0,0.0,0.0,0.0,-0.6701,-0.731,-0.7924,-0.8564,-0.9096,-1.0249,-1.2035,-0.9055,-0.7685,-0.7895,-1.0133,-1.1516,-1.2199,-1.3915,-1.5599,-1.734,-1.8567,-1.9751,-2.093,-2.2244,-2.2804,-2.2805,-2.2805,-2.2465,-2.2054,-2.2054,0.0,0.0,0.0,0.0,0.0,0.0,0.0,-1.4607,-1.3684,-1.2483,-1.1218,-1.0365,-0.9178,-0.7975,-0.7441,-0.72,-0.7139,-0.7139,-0.7139,-0.7139,-0.7139,-0.7204,-0.7261,-0.7261,-0.7326,-0.738,-0.738,-0.738,-0.738,-0.738,-0.738,-0.738,-0.738,-0.7309,-0.7261,-0.7261,-0.7187,-0.6874,-0.6337,-0.6786,-0.6874,-0.6337,-0.6782,-0.7139,-0.7139,-0.7139,-0.7139,-0.7139,-0.7139,-0.7139,-0.7139,-0.7139,-0.7139,-0.7139,-0.7139,-0.7139,-0.7139,-0.7139,-0.7139,-0.7139,-0.7139,-0.7139,-0.7139,-0.7139,-0.7139,-0.7051,-0.6517,-0.6605,-0.6959,0.0,0.0,0.0,0.0,0.0,0.0,0.0,0.0,0.0,0.0,0.0,0.0,0.0,0.0,0.0,0.0,0.0,0.0,0.0,0.0,0.0,-1.2093,-1.3123,-1.3654,-1.3523,-1.4529,-1.5346,-1.6141,-1.536,-1.3895,0.0,-1.4428,-1.5352,-1.4975,-1.6968,-1.8372,-1.9381,-2.1213,-2.2615,-2.3615,-2.536,-2.6278,-2.6483,-2.6483,-2.588,-2.5041,-2.4872,-2.3557,-2.1817,-2.1471,0.0,0.0,0.0,0.0,-1.5919,-1.5208,-1.4096,-1.2777,-1.138,-0.9951,-0.8627,-0.7401,-0.7139,-0.7139,-0.7139,-0.7139,-0.7139,-0.7139,-0.7139,-0.7139,-0.7139,-0.7139,-0.7139,-0.7139,-0.7139,-0.7139,-0.7139,-0.7139,-0.7139,-0.7139,-0.7139,-0.7139,-0.7139,-0.6962,-0.6425,-0.5447,-0.6068,-0.6068,-0.5179,-0.598,-0.6602,-0.6782,-0.6782,-0.6871,-0.7139,-0.7139,-0.7139,-0.7139,-0.7139,-0.6962,-0.6782,-0.7051,-0.7139,-0.7139,-0.7139,-0.7139,-0.7051,-0.6871,-0.6782,-0.6786,-0.6602,-0.6514,-0.6425,-0.5445,-0.5714,-0.6245,0.0,0.0,0.0,0.0,0.0,0.0,0.0,0.0,0.0,0.0,0.0,0.0,0.0,0.0,0.0,0.0,0.0,0.0,0.0,0.0,0.0,-1.9053,-1.9792,-1.9944,-1.9186,-1.9378,-1.9104,-1.8391,-1.9118,0.0,0.0,0.0,0.0,-1.8372,-1.9515,-2.0168,-2.0576,-2.3857,-2.45,-2.3684,-2.6152,-2.6828,-2.6483,-2.6483,-2.6389,-2.6141,-2.5126,-2.4617,-2.3998,-2.1994,-2.1114,0.0,0.0,0.0,-1.6708,-1.5404,-1.3951,-1.2839,-1.2592,-1.0757,-0.8627,-0.7401,-0.7139,-0.7139,-0.7139,-0.7139,-0.7139,-0.7139,-0.7139,-0.7139,-0.7139,-0.7139,-0.7139,-0.7139,-0.7139,-0.7139,-0.7139,-0.7139,-0.7139,-0.7139,-0.7139,-0.7139,-0.7139,-0.6248,-0.5536,-0.5447,-0.4552,-0.4014,-0.3838,-0.4014,-0.455,-0.5625,-0.5625,-0.6071,-0.7051,-0.7139,-0.7139,-0.7139,-0.7139,-0.6605,-0.5625,-0.6694,-0.7139,-0.7139,-0.7139,-0.7139,-0.7051,-0.6071,-0.5625,-0.5536,-0.4461,-0.4103,-0.4014,-0.3926,-0.3927,-0.4014,0.0,0.0,0.0,0.0,0.0,0.0,0.0,0.0,0.0,0.0,0.0,0.0,0.0,0.0,0.0,0.0,0.0,0.0,0.0,0.0,0.0,-2.3587,-2.3896,-2.3885,-2.3587,-2.3078,-2.2611,-2.2168,0.0,0.0,0.0,-1.9684,-1.939,0.0,0.0,0.0,-2.2392,-2.457,-2.5406,-2.5426,-2.7753,-2.8065,-2.7149,-2.8012,-2.745,-2.6091,-2.5876,-2.5378,-2.4532,-2.2911,-2.1697,-2.0756,-1.9516,0.0,0.0,0.0,-1.4764,-1.3405,-1.193,-1.0251,-0.8627,-0.7401,-0.7139,-0.7139,-0.7139,-0.7139,-0.7139,-0.7139,-0.7139,-0.7139,-0.7139,-0.7139,-0.7139,-0.7139,-0.7139,-0.7139,-0.7139,-0.7139,-0.7139,-0.7139,-0.7139,-0.6874,-0.6248,-0.5716,-0.4823,-0.3486,-0.3482,-0.3303,-0.2592,-0.3215,-0.3838,-0.4374,-0.4374,-0.4999,-0.616,-0.616,-0.616,-0.616,-0.616,-0.5534,-0.4374,-0.4905,-0.5174,-0.5174,-0.5891,-0.58,-0.5085,-0.4641,-0.4374,-0.4374,-0.3838,-0.357,-0.3481,-0.2858,-0.3037,-0.3392,0.0,0.0,0.0,0.0,0.0,0.0,0.0,0.0,0.0,0.0,0.0,0.0,0.0,0.0,0.0,0.0,0.0,0.0,0.0,0.0,0.0,-2.6852,-2.7038,-2.7038,-2.6852,-2.6219,-2.564,-2.5165,0.0,0.0,-2.3514,-2.2999,-2.2371,0.0,-2.2371,-2.2925,0.0,0.0,0.0,-2.6749,-2.8758,-2.8907,0.0,0.0,-2.8123,0.0,0.0,-2.5694,-2.4777,-2.3381,-2.214,-2.1034,-2.0567,-1.8835,0.0,0.0,0.0,-1.3832,-1.1262,-1.0009,-0.8973,-0.7489,-0.7139,-0.7139,-0.7139,-0.7139,-0.7139,-0.7139,-0.7139,-0.7139,-0.7139,-0.7139,-0.7139,-0.7139,-0.7139,-0.7139,-0.7139,-0.7139,-0.7139,-0.7139,-0.6874,-0.6337,-0.5447,-0.4823,-0.3753,-0.1969,-0.2325,-0.2325,-0.1433,-0.2236,-0.286,-0.3126,-0.3126,-0.3749,-0.4912,-0.4912,-0.509,-0.5359,-0.509,-0.4285,-0.3126,-0.3481,-0.3304,-0.2771,-0.4285,-0.4463,-0.357,-0.3304,-0.3126,-0.3126,-0.2769,-0.2681,-0.2592,-0.17,-0.1879,-0.2413,0.0,0.0,0.0,0.0,0.0,0.0,0.0,0.0,0.0,0.0,0.0,0.0,0.0,-3.1977,-3.1369,-3.2004,-3.1468,-3.0483,-2.9038,-3.0375,-3.0495,-2.8911,-2.9676,0.0,-2.8848,-2.8784,-2.7971,0.0,0.0,0.0,-2.3514,-2.4409,-2.4779,-2.4779,-2.4791,-2.3818,-2.2317,0.0,0.0,0.0,0.0,0.0,0.0,0.0,-2.8099,-2.7755,-2.6221,-2.5594,-2.5271,-2.3187,-2.2444,-2.21,-2.0264,-1.8837,-1.767,0.0,0.0,0.0,-1.1219,-1.0524,-1.0005,-0.7661,-0.7139,-0.7139,-0.7139,-0.7139,-0.7139,-0.7139,-0.7139,-0.7139,-0.7139,-0.7139,-0.7139,-0.7139,-0.7139,-0.7139,-0.7139,-0.7139,-0.7139,-0.7139,-0.616,-0.5447,-0.5447,-0.3306,-0.1969,-0.179,-0.0807,-0.018,-0.009,-0.018,-0.0718,-0.1879,-0.1879,-0.2503,-0.3659,-0.3659,-0.4283,-0.5359,-0.4283,-0.3037,-0.1969,-0.3037,-0.2325,-0.0359,-0.2681,-0.3659,-0.3481,-0.2325,-0.1879,-0.179,-0.0628,-0.018,-0.018,-0.009,-0.009,-0.018,0.0,0.0,0.0,0.0,0.0,0.0,0.0,0.0,0.0,0.0,0.0,0.0,0.0,-3.3135,-3.2892,-3.314,-3.2929,-3.2555,-3.1977,-3.2493,-3.2563,-3.1977,-3.2244,-3.2093,-3.1332,-3.0764,-2.9958,0.0,0.0,-2.678,-2.6189,-2.5983,-2.5521,-2.5004,-2.5004,-2.4992,-2.4945,-2.6106,0.0,0.0,0.0,0.0,0.0,0.0,-2.7494,-2.6553,-2.6253,-2.6209,-2.581,-2.3745,-2.2839,-2.2392,-2.1047,-1.9209,-1.7179,-1.5257,-1.4412,-1.3561,-1.1219,-1.0611,-1.0005,-0.7661,-0.7139,-0.7139,-0.7139,-0.7139,-0.7139,-0.7139,-0.7139,-0.7139,-0.7139,-0.7139,-0.7139,-0.7139,-0.7139,-0.7139,-0.7139,-0.7139,-0.7139,-0.7139,-0.6071,-0.509,-0.4285,-0.2771,-0.1523,-0.0718,-0.0269,0.0,0.0,0.0,-0.018,-0.0628,-0.0628,-0.1254,-0.2413,-0.3213,-0.3393,-0.3129,-0.2681,-0.179,-0.0628,-0.1076,-0.0807,-0.009,-0.0897,-0.1254,-0.1254,-0.0807,-0.0628,-0.0628,-0.018,0.0,0.0,0.0,0.0,0.0,0.0,0.0,0.0,0.0,0.0,0.0,0.0,0.0,0.0,0.0,0.0,0.0,0.0,0.0,-3.3937,-3.3937,-3.3937,-3.3836,-3.3582,-3.3582,-3.3582,-3.3582,-3.3582,-3.3287,-3.2586,-3.2013,-3.126,0.0,0.0,0.0,0.0,-2.7085,-2.6352,-2.5511,-2.5511,-2.5664,0.0,0.0,0.0,-2.7821,-2.7821,-2.7544,-2.7138,-2.7665,-2.7209,-2.6348,-2.6459,-2.6391,-2.5838,-2.3802,-2.2903,-2.2475,-2.1352,-1.9334,0.0,0.0,0.0,0.0,-1.1729,0.0,0.0,-0.8189,-0.7401,-0.7139,-0.7139,-0.7139,-0.7139,-0.7139,-0.7139,-0.7139,-0.7139,-0.7139,-0.7139,-0.7139,-0.7139,-0.7139,-0.7139,-0.7139,-0.6962,-0.6605,-0.5534,-0.4285,-0.3126,-0.1879,-0.0897,-0.009,0.0,0.0,0.0,0.0,0.0,0.0,0.0,-0.0539,-0.179,-0.2236,-0.2236,-0.179,-0.1433,-0.0807,0.0,0.0,0.0,0.0,0.0,0.0,0.0,0.0,0.0,0.0,0.0,0.0,0.0,0.0,0.0,0.0,0.0,0.0,0.0,0.0,0.0,0.0,0.0,0.0,0.0,-3.4528,0.0,0.0,0.0,0.0,0.0,-3.4624,-3.4624,-3.4333,-3.3684,-3.3633,-3.3633,-3.3633,-3.3633,-3.3339,-3.2695,-3.2641,-3.189,-3.0389,-3.0329,-2.9442,0.0,0.0,-2.7284,-2.6521,-2.6533,-2.5955,-2.5111,0.0,-2.7268,-2.7281,-2.7268,-2.7582,-2.7949,-2.7469,-2.7256,-2.7176,-2.6647,-2.6044,-2.5289,-2.3317,-2.2709,-2.2403,-2.0995,0.0,0.0,0.0,0.0,0.0,0.0,0.0,0.0,-0.9148,-0.8017,-0.7139,-0.7139,-0.7139,-0.7139,-0.7139,-0.7139,-0.7139,-0.7139,-0.7139,-0.7139,-0.7139,-0.7139,-0.7139,-0.7139,-0.7051,-0.6605,-0.5536,-0.4285,-0.3126,-0.1879,-0.0718,0.0,0.0,0.0,0.0,0.0,0.0,0.0,0.0,0.0,-0.0539,-0.1701,-0.0628,-0.0628,-0.1701,-0.0539,0.0,0.0,0.0,0.0,0.0,0.0,0.0,0.0,0.0,0.0,0.0,0.0,0.0,0.0,0.0,0.0,0.0,0.0,0.0,0.0,0.0,0.0,0.0,0.0,-3.4399,-3.4958,0.0,0.0,0.0,-3.5577,-3.5407,-3.5316,-3.5316,-3.5316,-3.5253,-3.5068,-3.5068,-3.5068,-3.5068,-3.5068,-3.4752,-3.4087,-3.3582,-3.2864,-3.1946,-3.1422,-3.0644,-2.9566,-2.8939,-2.8182,0.0,-2.6782,-2.6383,-2.6107,-2.6546,-2.6917,-2.7256,-2.6854,-2.6627,-2.6433,-2.6669,-2.6247,-2.5612,-2.5469,-2.5277,-2.4847,-2.2896,-2.2216,-2.189,-2.001,0.0,0.0,0.0,0.0,0.0,-1.2832,0.0,0.0,0.0,0.0,0.0,-0.7139,-0.7139,-0.7139,-0.7139,-0.7139,-0.7139,-0.7139,-0.7139,-0.7139,-0.7139,-0.7139,-0.7139,-0.7139,-0.6425,-0.5716,-0.5447,-0.3573,-0.2147,-0.179,-0.0718,0.0,0.0,0.0,0.0,0.0,0.0,0.0,0.0,0.0,-0.018,-0.0539,-0.018,-0.018,-0.0539,-0.018,0.0,0.0,0.0,0.0,0.0,0.0,0.0,0.0,0.0,0.0,0.0,0.0,0.0,0.0,0.0,0.0,0.0,0.0,0.0,0.0,0.0,0.0,0.0,-3.4496,-3.5115,-3.547,0.0,0.0,0.0,-3.5622,-3.5622,-3.5622,-3.5622,-3.5622,-3.5622,-3.5622,-3.5622,-3.5622,-3.5622,-3.5622,-3.5316,-3.4624,-3.4235,-3.3684,-3.3039,-3.2327,-3.1507,-3.069,-2.9922,-2.8876,-2.767,0.0,0.0,0.0,0.0,-2.6653,-2.6917,-2.6148,-2.6122,-2.6395,-2.6233,-2.6122,-2.591,-2.5469,-2.548,-2.5288,-2.284,-2.1735,-2.1211,-2.006,-1.9362,0.0,0.0,0.0,0.0,0.0,0.0,0.0,0.0,0.0,0.0,-0.7139,-0.7139,-0.7139,-0.7139,-0.7139,-0.7139,-0.7139,-0.7139,-0.7139,-0.7139,-0.7139,-0.6962,-0.6428,-0.5802,-0.5001,-0.402,-0.2683,-0.1612,-0.1076,-0.0449,0.0,0.0,0.0,0.0,0.0,0.0,0.0,0.0,0.0,0.0,0.0,0.0,0.0,0.0,0.0,0.0,0.0,0.0,0.0,0.0,0.0,0.0,0.0,0.0,0.0,0.0,0.0,0.0,0.0,0.0,0.0,0.0,0.0,0.0,0.0,-3.5001,-3.5237,-3.5622,-3.5622,-3.5622,-3.5622,0.0,-3.5739,-3.5766,-3.5766,-3.5739,-3.5694,-3.5766,-3.5739,-3.5694,-3.5766,-3.5739,-3.5694,-3.5694,-3.5622,-3.5316,-3.4736,-3.464,-3.4333,-3.3735,-3.2933,-3.221,-3.1444,-3.0645,-2.9442,-2.7868,0.0,0.0,0.0,0.0,-2.6465,-2.6245,-2.537,-2.5802,-2.6955,-2.5961,-2.619,-2.6884,-2.5804,-2.5744,-2.5721,-2.284,-2.1298,-2.0566,-2.0566,-1.9923,-1.8957,-1.7819,-1.6683,0.0,0.0,0.0,0.0,0.0,-0.8965,0.0,-0.7139,-0.7139,-0.7139,-0.7139,-0.7139,-0.7051,-0.6962,-0.6874,-0.6871,-0.6694,-0.6782,-0.6517,-0.5536,-0.527,-0.4376,-0.2058,-0.17,-0.1165,-0.009,0.0,0.0,0.0,0.0,0.0,0.0,0.0,0.0,0.0,0.0,0.0,0.0,0.0,0.0,0.0,0.0,0.0,0.0,0.0,0.0,0.0,0.0,0.0,0.0,0.0,0.0,0.0,0.0,0.0,0.0,0.0,0.0,0.0,0.0,0.0,0.0,-3.602,-3.5793,-3.5622,-3.5622,-3.5622,-3.5739,-3.6182,-3.6603,-3.6904,-3.6904,-3.6481,-3.6416,-3.6865,-3.6481,-3.6416,-3.6865,-3.6481,-3.6249,-3.6249,-3.581,-3.5532,-3.5407,-3.4894,-3.4528,-3.4382,-3.3182,-3.2532,-3.2336,-3.0955,-2.9766,-2.8748,-2.7986,0.0,0.0,-2.6533,-2.6025,-2.53,-2.5075,-2.5218,-2.5373,-2.433,-2.4548,-2.523,-2.3427,-2.3287,-2.3734,-2.1593,-2.0789,-2.0566,-2.0566,-2.0479,-2.0079,-1.8957,-1.7908,-1.6764,0.0,0.0,0.0,-1.0869,-0.9575,0.0,-0.7316,-0.7139,-0.7139,-0.7139,-0.7139,-0.6782,-0.5894,-0.5714,-0.5445,-0.4461,-0.5087,-0.5625,-0.5447,-0.4552,-0.3393,-0.1969,-0.0987,-0.0269,0.0,0.0,0.0,0.0,0.0,0.0,0.0,0.0,0.0,0.0,0.0,0.0,0.0,0.0,0.0,0.0,0.0,0.0,0.0,0.0,0.0,0.0,0.0,0.0,0.0,0.0,0.0,0.0,0.0,0.0,0.0,0.0,0.0,0.0,0.0,0.0,0.0,-3.6416,-3.5941,-3.5622,-3.5622,-3.5622,-3.5766,-3.6333,-3.6643,-3.6803,-3.6803,-3.658,-3.6498,0.0,0.0,-3.6921,-3.7173,-3.696,-3.6684,-3.6416,-3.6139,-3.5854,-3.5622,-3.5253,-3.5098,-3.5098,-3.3751,-3.3093,-3.3093,-3.1622,-3.0208,-2.9002,-2.8556,-2.767,0.0,-2.6533,-2.6233,-2.5652,-2.4636,-2.4564,-2.4862,-2.3294,-2.4036,-2.5441,-2.2914,-2.2038,-2.1973,-2.1451,-2.1011,-2.0566,-2.0566,-2.0566,-2.0401,-1.9274,-1.823,-1.709,-1.6026,-1.4015,-1.2151,-1.1552,-1.0183,0.0,0.0,-0.7489,-0.7139,-0.7139,-0.7139,-0.6962,-0.634,-0.6248,-0.6068,-0.544,-0.5888,-0.5802,-0.4643,-0.4016,-0.2948,-0.1076,-0.0359,0.0,0.0,0.0,0.0,0.0,0.0,0.0,0.0,0.0,0.0,0.0,0.0,0.0,0.0,0.0,0.0,0.0,0.0,0.0,0.0,0.0,0.0,0.0,0.0,0.0,0.0,0.0,0.0,0.0,0.0,0.0,0.0,0.0,0.0,0.0,-3.7255,0.0,0.0,0.0,-3.6097,-3.5739,-3.5622,0.0,0.0,0.0,0.0,0.0,0.0,-3.6457,0.0,0.0,0.0,0.0,-3.7323,-3.7248,-3.7076,-3.6706,-3.6481,-3.6182,-3.5783,-3.565,-3.5622,-3.5622,-3.4252,-3.3582,-3.3582,-3.2145,-3.0703,-2.9254,-2.9066,-2.8182,0.0,-2.6589,-2.6314,-2.5791,-2.4181,-2.4181,-2.5075,-2.285,-2.3722,-2.5873,-2.2988,-2.1375,-2.0712,-2.1669,-2.1517,-2.0857,-2.0857,-2.0857,-2.0624,-1.9599,-1.839,-1.709,-1.6273,-1.435,-1.2589,-1.2328,-1.0956,-0.9405,0.0,0.0,0.0,-0.7139,-0.7139,-0.7051,-0.6782,-0.6782,-0.6694,-0.6425,-0.6425,-0.5708,-0.357,-0.3215,-0.2413,-0.0269,0.0,0.0,0.0,0.0,0.0,0.0,0.0,0.0,0.0,0.0,0.0,0.0,0.0,0.0,0.0,0.0,0.0,0.0,0.0,0.0,0.0,0.0,0.0,0.0,0.0,0.0,0.0,0.0,0.0,0.0,0.0,0.0,0.0,0.0,0.0,0.0,-3.7246,-3.734,0.0,0.0,0.0,0.0,0.0,0.0,0.0,0.0,0.0,0.0,-3.7135,-3.6684,-3.6603,0.0,-3.6724,-3.6865,-3.7755,-3.7433,-3.736,-3.772,-3.6865,-3.6374,-3.6291,-3.5854,-3.5622,-3.5622,-3.4252,-3.3582,-3.3582,-3.2145,-3.1029,-3.0133,-2.9317,-2.8492,-2.755,-2.6782,-2.5499,-2.3818,-2.3588,-2.4624,-2.6013,-2.3136,-2.3294,-2.485,-2.2776,-2.1375,-2.0712,-2.1669,-2.1962,-2.1811,-2.1811,-2.1811,-2.1659,-2.0702,-1.8948,-1.7253,-1.718,-1.5545,-1.3646,-1.2589,-1.2072,-1.1381,-0.9318,0.0,-0.8364,-0.7316,0.0,-0.6786,-0.5805,0.0,0.0,-0.4194,-0.4014,-0.3571,-0.2236,-0.1969,-0.1522,-0.018,0.0,0.0,0.0,0.0,0.0,0.0,0.0,0.0,0.0,0.0,0.0,0.0,0.0,0.0,0.0,0.0,0.0,0.0,0.0,0.0,0.0,0.0,0.0,0.0,0.0,0.0,0.0,0.0,0.0,0.0,0.0,0.0,0.0,0.0,0.0,0.0,-3.7235,-3.7192,0.0,0.0,0.0,0.0,0.0,0.0,0.0,0.0,0.0,0.0,-3.7614,-3.7173,-3.6943,-3.7173,-3.6981,-3.7173,-3.7859,-3.772,0.0,-3.7893,-3.7488,-3.7117,-3.6882,-3.6333,-3.6054,-3.6054,-3.4414,-3.3582,-3.3582,-3.2145,-3.1087,-3.0269,-2.938,-2.8492,-2.767,-2.685,-2.6013,-2.5205,-2.5205,-2.5429,-2.5288,-2.2339,-2.1669,-2.2414,-2.2113,-2.1375,-2.0644,-2.1078,-2.1155,-2.1155,-2.1155,-2.1155,-2.1078,-2.0712,-1.952,-1.8149,-1.7504,-1.6198,-1.472,-1.3633,-1.2851,-1.2066,-1.1128,-0.9836,-0.8715,-0.8277,0.0,0.0,0.0,0.0,0.0,0.0,-0.5085,-0.4196,-0.3037,-0.2236,-0.1344,-0.018,0.0,0.0,0.0,0.0,0.0,0.0,0.0,0.0,0.0,0.0,0.0,0.0,0.0,0.0,0.0,0.0,0.0,0.0,0.0,0.0,0.0,0.0,0.0,0.0,0.0,0.0,0.0,0.0,0.0,0.0,0.0,0.0,0.0,0.0,0.0,0.0,-3.6731,0.0,0.0,0.0,0.0,0.0,0.0,0.0,-3.772,-3.7248,-3.7614,-3.7859,-3.772,-3.7285,-3.6999,-3.6999,-3.6825,-3.702,-3.7685,-3.772,-3.7755,-3.7893,-3.7893,-3.7685,-3.7228,-3.6684,-3.6374,-3.6374,-3.4686,-3.3786,-3.3582,-3.2367,-3.1379,-3.0584,-2.9504,-2.8465,-2.7604,-2.6539,-2.5791,-2.5276,-2.5276,-2.4696,-2.3599,-2.168,-2.0779,-2.0722,-2.1375,-2.1155,-2.0644,-2.0934,-2.1011,-2.1011,-2.1011,-2.1011,-2.0934,-2.0644,-1.9844,-1.8798,-1.798,-1.6764,-1.5538,-1.4734,-1.3626,-1.2681,-1.2413,-1.1042,-0.9666,-0.9065,-0.8189,0.0,0.0,0.0,-0.7139,0.0,0.0,-0.4999,-0.3748,-0.2592,-0.1344,-0.018,0.0,0.0,0.0,0.0,0.0,0.0,0.0,0.0,0.0,0.0,0.0,0.0,0.0,0.0,0.0,0.0,0.0,0.0,0.0,0.0,0.0,0.0,0.0,0.0,0.0,0.0,0.0,0.0,0.0,0.0,0.0,0.018,0.0449,0.009,0.018,0.0449,-3.5459,-3.5955,0.0,0.0,0.0,0.0,0.0,-3.7614,-3.772,-3.7248,-3.7614,-3.772,-3.7248,-3.6764,-3.6416,-3.6416,-3.5941,-3.6079,-3.7135,-3.721,-3.7433,-3.7859,-3.7893,-3.7685,-3.7228,-3.6684,-3.6374,-3.6374,-3.5186,-3.4235,-3.3582,-3.2895,-3.216,-3.1409,-2.9766,-2.8474,-2.738,-2.5775,-2.3891,-2.2178,-2.2178,-2.1593,-2.0867,-2.1669,-2.1364,-2.0566,-2.0644,-2.0644,-2.0712,-2.1669,-2.1952,-2.1952,-2.1952,-2.1952,-2.1811,-2.0857,-1.9844,-1.8957,-1.8957,-1.7334,-1.5696,-1.5703,-1.481,-1.373,-1.2589,-1.2242,-1.1552,-0.9323,-0.889,-0.8452,-0.7316,-0.7139,-0.7139,0.0,0.0,0.0,0.0,-0.2592,-0.1344,-0.018,0.0,0.0,0.0,0.0,0.0,0.0,0.0,0.0,0.0,0.0,0.0,0.0,0.0,0.0,0.0,0.0,0.0,0.0,0.0,0.0,0.0,0.0,0.0,0.0,0.0,0.0,0.0,0.0,0.0,0.0,0.0,0.0718,0.1612,0.0449,0.0718,0.1701,0.0,0.0,0.0,0.0,-3.6882,-3.7339,-3.7612,-3.8117,-3.8117,-3.7303,-3.7614,-3.772,-3.7248,-3.6724,-3.6374,-3.6374,-3.5898,-3.5898,-3.6603,-3.6981,-3.7248,-3.7433,-3.8083,-3.805,-3.7228,-3.702,-3.6764,-3.6374,-3.517,-3.4284,-3.3582,-3.2895,-3.2231,-3.1467,-3.0329,-2.8969,-2.7433,-2.6332,-2.4767,-2.2925,-2.2253,-2.2178,-2.2414,-2.1451,-2.0857,-2.0566,-2.0566,-2.0566,-2.0644,-2.0934,-2.1078,-2.1078,-2.1078,-2.1078,-2.1011,-2.0712,-2.0323,-1.9923,-1.9195,-1.79,-1.6601,-1.5861,-1.4894,-1.3997,-1.3555,-1.2851,-1.1901,-1.0351,-0.941,-0.854,-0.7316,-0.7139,0.0,0.0,0.0,0.0,0.0,-0.1879,-0.0449,-0.009,0.0,0.0,0.0,0.0,0.0,0.0,0.0,0.0,0.0,0.0,0.0,0.0,0.0,0.0,0.0,0.0,0.0,0.0,0.0,0.0,0.0,0.0,0.0,0.0,0.0,0.0,0.0,0.0,0.0,0.0,0.0,0.0718,0.1791,0.1344,0.1969,0.2948,-3.4445,0.0,0.0,-3.5615,-3.6762,-3.7552,-3.774,-3.8118,-3.8183,-3.7542,-3.7578,-3.7542,-3.721,-3.6724,-3.6374,-3.6374,-3.5898,-3.581,-3.6374,-3.6724,-3.6921,-3.6921,-3.7721,-3.7791,-3.6921,-3.6921,-3.6764,-3.6374,-3.5431,-3.4496,-3.3582,-3.3145,-3.2407,-3.1467,-3.0644,-2.9282,-2.7433,-2.6269,-2.4649,-2.285,-2.1886,-2.1897,-2.2339,-2.1088,-2.0789,-2.1078,-2.0712,-2.0566,-2.0566,-2.0566,-2.0566,-2.0566,-2.0566,-2.0566,-2.0566,-2.0566,-2.0566,-2.0401,-1.9274,-1.8149,-1.7009,-1.5944,-1.4894,-1.4088,-1.4088,-1.347,-1.251,-1.0956,-1.0009,-0.8969,-0.7401,-0.7139,0.0,0.0,0.0,0.0,0.0,-0.1522,0.0,0.0,0.0,0.0,0.0,0.0,0.0,0.0,0.0,0.0,0.0,0.0,0.0,0.0,0.0,0.0,0.0,0.0,0.0,0.0,0.0,0.0,0.0,0.0,0.0,0.0,0.0,0.0,0.0,0.0,0.0,0.0,0.0,0.0986,0.2413,0.1969,0.286,0.4283,-3.4694,-3.4208,-3.4045,-3.4807,-3.6321,-3.747,-3.7477,-3.774,-3.7893,-3.7859,-3.747,-3.7135,-3.7097,-3.6684,-3.6333,-3.6333,-3.5898,-3.5827,-3.635,-3.6392,-3.6374,-3.6333,-3.6921,-3.696,-3.6374,-3.6392,-3.6392,-3.6333,-3.5854,-3.4911,-3.3582,-3.3582,-3.2864,-3.1467,-3.0644,-2.9219,-2.7288,-2.5534,-2.3693,-2.1886,-2.0934,-2.0644,-2.0634,-2.0644,-2.1145,-2.1886,-2.0934,-2.0566,-2.0566,-2.0566,-2.0566,-2.0566,-2.0566,-2.0566,-2.0566,-2.0566,-2.0566,-2.0401,-1.9274,-1.8149,-1.7009,-1.5944,-1.4894,-1.4088,-1.4088,-1.4082,-1.3385,-1.1042,-1.0524,-0.9831,-0.7489,-0.7139,-0.7139,0.0,0.0,0.0,0.0,-0.1612,-0.009,0.0,0.0,0.0,0.0,0.0,0.0,0.0,0.0,0.0,0.0,0.0,0.0,0.0,0.0,0.0,0.0,0.0,0.0,0.0,0.0,0.0,0.0,0.0,0.0,0.0,0.0,0.0,0.0,0.0,0.0,0.0,0.009,0.1522,0.357,0.2503,0.3484,0.5625,-3.4734,-3.4208,-3.3862,-3.4082,-3.5495,-3.6798,-3.7404,-3.774,-3.7755,-3.7433,-3.6921,-3.644,-3.6054,-3.5898,-3.5827,-3.5827,-3.5694,-3.565,-3.5783,-3.6182,-3.6224,-3.581,-3.6706,-3.6746,-3.5827,-3.6182,-3.6224,-3.5827,-3.5667,-3.4911,-3.3582,-3.3582,-3.2864,-3.1467,-3.0644,-2.885,-2.6413,-2.5244,-2.3329,-2.0934,-2.0712,-2.1011,-2.1593,-2.0857,-2.1145,-2.1886,-2.0934,-2.0566,-2.0566,-2.0566,-2.0566,-2.0566,-2.0566,-2.0566,-2.0566,-2.0566,-2.0566,-2.0401,-1.9274,-1.8149,-1.7009,-1.5944,-1.4894,-1.4088,-1.4088,-1.3379,-1.2334,-1.0869,-0.9923,-0.8886,-0.7401,-0.7139,-0.7139,0.0,0.0,0.0,-0.3838,-0.2325,-0.0986,-0.009,0.0,0.0,0.0,0.0,0.0,0.0,0.0,0.0,0.0,0.0,0.0,0.0,0.0,0.0,0.0,0.0,0.0,0.0,0.0,0.0,0.0,0.0,0.0,0.0,0.0,0.0,0.0,0.0,0.0,0.009,0.0986,0.2772,0.5001,0.5534,0.6157,0.6694,-3.4754,-3.4208,-3.3807,-3.3807,-3.4713,-3.5629,-3.6085,-3.6666,-3.6862,-3.6432,-3.6191,-3.5941,-3.5605,-3.5622,-3.5622,-3.5622,-3.5622,-3.5622,-3.5622,-3.5898,-3.5898,-3.5622,-3.6165,-3.6207,-3.5622,-3.5582,-3.5582,-3.5622,-3.5316,-3.4657,-3.3582,-3.3582,-3.2864,-3.1467,-3.0644,-2.9219,-2.7236,-2.5095,-2.308,-2.1155,-2.0789,-2.0934,0.0,-2.0789,-2.0934,-2.1298,-2.0789,-2.0566,-2.0566,-2.0566,-2.0566,-2.0566,-2.0566,-2.0566,-2.0489,-2.0001,-1.9923,-1.9599,-1.7971,-1.709,-1.6355,-1.5304,-1.4573,-1.4088,-1.4088,-1.3203,-1.1986,-1.0869,-0.9666,-0.854,-0.7316,-0.7139,-0.7139,0.0,0.0,-0.5179,-0.4463,-0.286,-0.1522,-0.0897,-0.0359,0.0,0.0,0.0,0.0,0.0,0.0,0.0,0.0,0.0,0.0,0.0,0.0,0.0,0.0,0.0,0.0,0.0,0.0,0.0,0.0,0.0,0.0,0.0,0.0,0.0,0.0,0.0,0.0269,0.0987,0.2683,0.4198,0.5536,0.6694,0.7139,0.7139,-3.4653,-3.416,-3.3762,-3.3734,-3.4018,-3.4181,-3.4087,-3.4977,-3.553,-3.5196,-3.5241,-3.5334,-3.5334,-3.5334,-3.5334,-3.5334,-3.5419,-3.547,-3.547,-3.5464,-3.547,-3.547,-3.5362,-3.5316,-3.5316,-3.4752,-3.48,-3.547,-3.4894,-3.4284,-3.3582,-3.3582,-3.2864,-3.1467,-3.0524,-2.9428,-2.8036,-2.4744,-2.2702,-2.1735,-2.0934,-2.0566,-2.0566,-2.0566,-2.0566,-2.0566,-2.0566,-2.0566,-2.0566,-2.0566,-2.0566,-2.0566,-2.0566,-2.0566,-2.0401,-1.9274,-1.9036,-1.855,-1.6273,-1.5696,-1.5455,-1.4328,-1.4088,-1.4088,-1.4088,-1.3033,-1.1809,-1.0783,-0.9575,-0.8364,-0.7316,-0.7139,-0.7139,-0.7139,-0.6248,-0.5536,-0.5179,-0.3395,-0.1879,-0.1612,-0.0628,0.0,0.0,0.0,0.0,0.0,0.0,0.0,0.0,0.0,0.0,0.0,0.0,0.0,0.0,0.0,0.0,0.0,0.0,0.0,0.0,0.0,0.0,0.0,0.0,0.0,0.0,0.018,0.1076,0.2504,0.4556,0.5447,0.5714,0.6694,0.7139,0.7139,-3.4062,-3.3868,-3.3707,-3.3361,-3.3352,-3.3149,-3.2354,-3.3519,-3.4453,-3.4393,-3.4052,-3.3795,-3.3795,-3.3795,-3.3795,-3.3795,-3.4336,-3.4692,-3.4692,-3.4747,-3.4783,-3.4783,-3.4252,-3.3937,-3.3937,-3.3836,-3.4087,-3.4783,-3.4688,-3.4284,-3.3582,-3.3582,-3.2864,-3.1409,0.0,0.0,-2.4339,-2.2903,-2.1735,-2.0867,-2.0634,-2.0566,-2.0566,-2.0566,-2.0566,-2.0566,-2.0566,-2.0566,-2.0566,-2.0566,-2.0566,-2.0566,-2.0566,-2.0566,-2.0401,-1.9274,-1.9036,-1.855,-1.6273,-1.5696,-1.5455,-1.4328,-1.4088,-1.4088,-1.4088,-1.2431,-1.0869,-1.0611,-0.8877,-0.7312,-0.7139,-0.7139,-0.7139,-0.7139,-0.6962,-0.6157,-0.4194,-0.357,-0.2503,-0.0539,-0.009,0.0,0.0,0.0,0.0,0.0,0.0,0.0,0.0,0.0,0.0,0.0,0.0,0.0,0.0,0.0,0.0,0.0,0.0,0.0,0.0,0.0,0.0,0.0,0.0,0.0,0.009,0.1076,0.2772,0.4823,0.527,0.5983,0.6782,0.7051,0.7139,0.7139,-3.4068,-3.3725,-3.3437,-3.3243,-3.2809,-3.2332,-3.1861,-3.2259,-3.2796,-3.3174,-3.3318,-3.3406,-3.3406,-3.3406,-3.3406,-3.3406,-3.3728,-3.3785,-3.3489,-3.3475,-3.3379,-3.3078,-3.3045,-3.3088,-3.3088,-3.3061,-3.3391,-3.4087,-3.3735,-3.3391,-3.3093,-3.3093,-3.2516,-3.1409,0.0,-2.6726,-2.4192,-2.2627,-2.1735,-2.1298,-2.0789,-2.0566,-2.0566,-2.0566,-2.0245,-1.9756,-1.9756,-1.9353,-1.9027,-2.0235,-2.0235,-1.9756,-1.9756,-1.9353,-1.8709,-1.7568,-1.7326,-1.6919,-1.5304,-1.4894,-1.4734,-1.425,-1.4088,-1.4088,-1.4088,-1.226,-1.0611,-1.0611,-0.8703,-0.7139,-0.7139,-0.7139,-0.7139,-0.7139,-0.7139,-0.6514,-0.4819,-0.4016,-0.2948,-0.1165,-0.0359,0.0,0.0,0.0,0.0,0.0,0.0,0.0,0.0,0.0,0.0,0.0,0.0,0.0,0.0,0.0,0.0,0.0,0.0,0.0,0.0,0.0,0.0,0.0,0.0,0.0,0.018,0.1969,0.3751,0.5447,0.6071,0.6605,0.7139,0.7139,0.7139,0.7139,-3.4006,-3.3561,-3.3154,-3.2934,-3.2298,-3.1752,-3.1514,-3.1317,-3.1393,-3.1968,-3.256,-3.2891,-3.2749,-3.2749,-3.269,-3.2562,-3.2696,-3.259,-3.2114,-3.2079,-3.1866,-3.139,-3.1784,-3.1985,-3.1985,-3.198,-3.2298,-3.293,-3.2598,-3.2292,-3.2152,-3.2462,-3.189,-3.0526,-2.8251,-2.6158,-2.4253,-2.2594,-2.1741,-2.1515,-2.0695,-2.0206,-2.0053,-2.0053,-1.9338,-1.846,-1.846,-1.7899,-1.7334,-1.9086,-1.9229,-1.8585,-1.8585,-1.7888,-1.6934,-1.5812,-1.5494,-1.5256,-1.422,-1.3901,-1.3901,-1.3901,-1.3901,-1.3811,-1.3644,-1.1922,-1.0399,-1.0186,-0.8503,-0.7139,-0.7139,-0.7139,-0.7139,-0.7139,-0.7139,-0.6694,-0.5536,-0.4554,-0.3482,-0.1969,-0.0986,-0.0269,0.0,0.0,0.0,0.0,0.0,0.0,0.0,0.0,0.0,0.0,0.0,0.0,0.0,0.0,0.0,0.0,0.0,0.0,0.0,0.0,0.0,0.0,0.0,0.0269,0.0897,0.3127,0.4641,0.5894,0.6782,0.7139,0.7139,0.7139,0.7139,0.7139,-3.3372,-3.3225,-3.2934,-3.2092,-3.1861,-3.1476,-3.0567,-3.0861,-3.1207,-3.1275,-3.136,-3.1217,-3.0634,-3.0591,-3.0363,-2.9823,-3.0403,-3.0757,-3.0712,-3.0749,-3.0763,-3.0713,-3.0166,-2.987,-2.987,-2.9877,-3.0198,-3.09,-3.1399,-3.1399,-3.0829,-3.2051,-3.0924,-2.7838,-2.6835,-2.485,-2.2221,-2.1671,-2.0913,-2.0092,-1.9634,-1.8879,-1.8117,-1.8117,-1.749,-1.6632,-1.6632,-1.6556,-1.6556,-1.6708,-1.6927,-1.7136,-1.7136,-1.6824,-1.625,-1.5188,-1.4884,-1.4658,-1.3598,-1.3293,-1.3293,-1.3293,-1.3293,-1.3047,-1.2141,-1.0908,-0.9732,-0.9017,-0.7906,-0.7139,-0.7139,-0.7139,-0.7139,-0.7139,-0.7139,-0.6694,-0.5536,-0.527,-0.4376,-0.2058,-0.1701,-0.1165,-0.009,0.0,0.0,0.0,0.0,0.0,0.0,0.0,0.0,0.0,0.0,0.0,0.0,0.0,0.0,0.0,0.0,0.0,0.0,0.0,0.0,0.0,0.0,0.1254,0.3393,0.4732,0.5891,0.6962,0.7051,0.7139,0.7139,0.7139,0.7139,0.7139,-3.3243,-3.2745,-3.223,-3.1861,-3.1603,-3.1201,-3.0418,-3.0518,-3.0518,-3.0166,-3.0435,-3.0435,-2.9821,-2.9761,-2.9673,-2.9406,-2.9662,-2.9685,-2.9313,-2.9292,-2.9169,-2.8834,-2.8914,-2.8996,-2.8996,-2.8946,-2.9024,-2.9268,-2.9535,-2.9535,-2.9268,-2.9325,-2.7857,-2.504,-2.4109,-2.2797,-2.1219,-2.0461,-1.9889,-1.9521,-1.9355,-1.9058,-1.8682,-1.8082,-1.7226,-1.6228,-1.5626,-1.5026,-1.4499,-1.4499,-1.504,-1.5607,-1.5607,-1.5133,-1.4421,-1.3967,-1.3817,-1.3745,-1.3286,-1.3213,-1.3213,-1.3213,-1.3213,-1.2962,-1.1908,-1.0761,-0.9639,-0.8748,-0.7661,-0.7041,-0.7126,-0.7139,-0.7139,-0.7139,-0.7139,-0.6694,-0.5536,-0.4821,-0.3662,-0.1969,-0.1165,-0.0539,-0.009,0.0,0.0,0.0,0.0,0.0,0.0,0.0,0.0,0.0,0.0,0.0,0.0,0.0,0.0,0.0,0.0,0.0,0.0,0.0,0.0,0.0,0.0807,0.2057,0.3659,0.491,0.6071,0.7139,0.7139,0.7139,0.7139,0.7139,0.7139,0.7139,-3.2809,-3.2126,-3.1479,-3.1363,-3.0971,-3.0477,-2.9848,-2.9935,-2.9761,-2.8996,-2.9406,-2.9629,-2.918,-2.9134,-2.9042,-2.8904,-2.8857,-2.8685,-2.8271,-2.8238,-2.7944,-2.7306,-2.7713,-2.7859,-2.7686,-2.759,-2.7512,-2.7512,-2.7698,-2.7683,-2.7512,-2.6579,-2.5107,-2.3034,-2.2037,-2.114,-2.0329,-1.9429,-1.9092,-1.9082,-1.8658,-1.8303,-1.8015,-1.7049,-1.5997,-1.494,-1.4273,-1.3614,-1.2939,-1.2939,-1.346,-1.4066,-1.4168,-1.3607,-1.2939,-1.2939,-1.2939,-1.2939,-1.2939,-1.2939,-1.2939,-1.2939,-1.27,-1.2226,-1.1196,-1.0074,-0.8974,-0.8069,-0.7366,-0.6959,-0.7058,-0.7112,-0.7139,-0.7139,-0.7139,-0.6782,-0.5983,-0.491,-0.384,-0.295,-0.1523,-0.0539,-0.0539,-0.018,0.0,0.0,0.0,0.0,0.0,0.0,0.0,0.0,0.0,0.0,0.0,0.0,0.0,0.0,0.0,0.0,0.0,0.0,0.0,0.009,0.1612,0.2771,0.3748,0.5267,0.634,0.7139,0.7139,0.7139,0.7139,0.7139,0.7139,0.7139,-3.1915,-3.1333,-3.0813,-3.0402,-2.9805,-2.9225,-2.8606,-2.9012,-2.8996,-2.776,-2.814,-2.8511,-2.8511,-2.8511,-2.8271,-2.766,-2.7625,-2.7625,-2.761,-2.7625,-2.7306,-2.6563,-2.651,-2.619,-2.5467,-2.5425,-2.5425,-2.5425,-2.6076,-2.6062,-2.5425,-2.4365,-2.322,-2.1992,-2.1172,-2.0267,-1.9258,-1.8828,-1.8643,-1.8463,-1.7167,-1.6088,-1.5171,-1.4106,-1.3178,-1.2385,-1.2311,-1.2311,-1.2311,-1.2311,-1.2311,-1.2365,-1.2735,-1.262,-1.2311,-1.2311,-1.2311,-1.2311,-1.2311,-1.2311,-1.2311,-1.2311,-1.1552,-1.0571,-0.9528,-0.8546,-0.761,-0.6683,-0.6715,-0.6929,-0.6929,-0.7044,-0.7139,-0.7139,-0.7139,-0.7051,-0.7051,-0.6071,-0.5359,-0.5359,-0.3218,-0.179,-0.179,-0.0718,0.0,0.0,0.0,0.0,0.0,0.0,0.0,0.0,0.0,0.0,0.0,0.0,0.0,0.0,0.0,0.0,0.0,0.0,0.0,0.009,0.2503,0.357,0.3748,0.6154,0.7051,0.7139,0.7139,0.7139,0.7139,0.7139,0.7139,0.7139,-3.1825,-3.1077,-3.0452,-3.0335,-2.9805,-2.918,-2.8606,-2.8638,-2.8496,-2.771,-2.776,-2.791,-2.791,-2.791,-2.781,-2.7625,-2.7137,-2.6826,-2.6826,-2.6375,-2.6,-2.5728,-2.5728,-2.5618,-2.5398,-2.4894,-2.4624,-2.4624,-2.4281,-2.3365,-2.1982,-2.1667,-2.0716,-1.9281,-1.9,-1.8379,-1.7441,-1.7311,-1.6897,-1.6254,-1.5842,-1.5446,-1.5092,-1.4099,-1.3528,-1.3171,-1.2519,-1.2305,-1.2305,-1.2305,-1.2305,-1.2318,-1.2412,-1.2378,-1.2305,-1.2305,-1.2305,-1.2305,-1.2305,-1.2305,-1.215,-1.1465,-1.1013,-1.0335,-0.8689,-0.748,-0.6761,-0.6524,-0.663,-0.6807,-0.6909,-0.7044,-0.7139,-0.7139,-0.7139,-0.7139,-0.7139,-0.5442,-0.4194,-0.4194,-0.2058,-0.0539,-0.0539,-0.0269,0.0,0.0,0.0,0.0,0.0,0.0,0.0,0.0,0.0,0.0,0.0,0.0,0.0,0.0,0.0,0.0,0.0,0.0,0.0,0.009,0.2592,0.357,0.3748,0.6154,0.7139,0.7139,0.7139,0.7139,0.7139,0.7139,0.7139,0.7139,-3.1565,-3.0714,-2.9935,-2.9935,-2.9271,-2.8591,-2.8238,-2.814,-2.8042,-2.766,-2.7625,-2.7509,-2.7203,-2.7203,-2.7306,-2.7575,-2.693,-2.651,-2.651,-2.5783,-2.5287,-2.5007,-2.5007,-2.4711,-2.4111,-2.361,-2.3255,-2.293,-2.236,-2.1385,-1.9976,-1.9619,-1.8731,-1.7432,-1.7079,-1.6645,-1.607,-1.607,-1.572,-1.5163,-1.4807,-1.4665,-1.4522,-1.3528,-1.3171,-1.3098,-1.2519,-1.2305,-1.2305,-1.2305,-1.2305,-1.2305,-1.2305,-1.2305,-1.2305,-1.2305,-1.2305,-1.2305,-1.2305,-1.1996,-1.162,-1.0938,-1.026,-0.921,-0.7629,-0.6718,-0.6285,-0.6376,-0.6556,-0.6729,-0.6824,-0.7007,-0.7139,-0.7139,-0.7139,-0.6962,-0.6517,-0.4816,-0.357,-0.357,-0.1433,-0.018,-0.0628,-0.0269,0.0,0.0,0.0,0.0,0.0,0.0,0.0,0.0,0.0,0.0,0.0,0.0,0.0,0.0,0.0,0.0,0.0,0.0449,0.0718,0.0807,0.3217,0.4283,0.4463,0.6334,0.7139,0.7139,0.7139,0.7139,0.7139,0.7139,0.7139,0.7139,-3.1151,-3.0208,-2.9406,-2.9361,-2.8352,-2.7575,-2.7509,-2.7509,-2.7524,-2.7458,-2.7458,-2.7188,-2.651,-2.6404,-2.6654,-2.7276,-2.6759,-2.6336,-2.6336,-2.5605,-2.4824,-2.4163,-2.4105,-2.3327,-2.1815,-2.1815,-2.1365,-2.0526,-2.0526,-2.0074,-1.9166,-1.8228,-1.7406,-1.6567,-1.5658,-1.5163,-1.5092,-1.5092,-1.5092,-1.495,-1.3954,-1.3528,-1.3375,-1.2512,-1.215,-1.2077,-1.2077,-1.2077,-1.2077,-1.2077,-1.2077,-1.2077,-1.2077,-1.2077,-1.215,-1.2224,-1.2224,-1.2224,-1.2224,-1.1465,-1.0708,-1.0634,-0.9135,-0.748,-0.649,-0.6338,-0.6338,-0.6338,-0.6495,-0.6702,-0.6702,-0.6943,-0.7051,-0.6962,-0.6962,-0.6605,-0.5447,-0.4196,-0.3481,-0.3481,-0.1433,-0.0449,-0.1522,-0.0628,0.0,0.0,0.0,0.0,0.0,0.0,0.0,0.0,0.0,0.0,0.0,0.0,0.0,0.0,0.0,0.0,0.018,0.1254,0.1879,0.2058,0.4376,0.5359,0.5447,0.6605,0.7139,0.7139,0.7139,0.7139,0.7139,0.7139,0.7139,0.7139,-3.0601,-2.9892,-2.9271,-2.8779,-2.8091,-2.7408,-2.6826,-2.6774,-2.6549,-2.6,-2.5946,-2.5837,-2.5673,-2.5673,-2.5467,-2.4969,-2.484,-2.4851,-2.4851,-2.3539,-2.2652,-2.2482,-2.1842,-2.1267,-2.091,-2.091,-2.0462,-1.9628,-1.9628,-1.9177,-1.8269,-1.7326,-1.6826,-1.6567,-1.5658,-1.4736,-1.4027,-1.4027,-1.3665,-1.2945,-1.2732,-1.2204,-1.1452,-1.1236,-1.0714,-0.9976,-0.9976,-0.9976,-0.9976,-0.9976,-0.9976,-0.9976,-0.9976,-0.9976,-1.0276,-1.1855,-1.1768,-1.1168,-1.1168,-1.0415,-0.9442,-0.8689,-0.7553,-0.6567,-0.6338,-0.6338,-0.6338,-0.6338,-0.6495,-0.6702,-0.6702,-0.6943,-0.6782,-0.5983,-0.5802,-0.5356,-0.4194,-0.2949,-0.2236,-0.2236,-0.0897,-0.009,-0.0359,-0.018,0.0,0.0,0.0,0.0,0.0,0.0,0.0,0.0,0.0,0.0,0.0,0.0,0.0,0.0,0.0,0.0449,0.1344,0.17,0.2324,0.3215,0.4732,0.5359,0.5447,0.6605,0.7139,0.7139,0.7139,0.7139,0.7139,0.7139,0.7139,0.7139,-2.9935,-2.9406,-2.8873,-2.8559,-2.773,-2.693,-2.6563,-2.6229,-2.5837,-2.5453,-2.5398,-2.5287,-2.4951,-2.4513,-2.3955,-2.3166,-2.3441,-2.3513,-2.3119,-2.2003,-2.1302,-2.1302,-2.0846,-2.0398,-2.0009,-2.0009,-1.9344,-1.8075,-1.7648,-1.7179,-1.6724,-1.5728,-1.5296,-1.5226,-1.4307,-1.3593,-1.3018,-1.2565,-1.205,-1.1545,-1.1099,-1.0571,-1.0115,-1.0115,-0.9744,-0.9296,-0.9296,-0.9296,-0.9296,-0.9296,-0.9296,-0.9296,-0.9296,-0.9296,-0.9523,-1.0576,-1.0571,-1.0115,-1.0115,-0.9367,-0.8389,-0.7403,-0.6718,-0.6338,-0.6338,-0.6338,-0.6338,-0.6338,-0.6495,-0.6702,-0.6702,-0.6506,-0.616,-0.5536,-0.4912,-0.4196,-0.2948,-0.2236,-0.1612,-0.1076,-0.0359,0.0,0.0,0.0,0.0,0.0,0.0,0.0,0.0,0.0,0.0,0.0,0.0,0.0,0.0,0.0,0.0,0.0,0.0,0.0628,0.179,0.2415,0.3304,0.4463,0.5622,0.616,0.6248,0.6874,0.7139,0.7139,0.7139,0.7139,0.7139,0.7139,0.7139,0.7139,-2.9271,-2.8873,-2.8463,-2.8367,-2.7312,-2.6457,-2.6336,-2.5728,-2.5175,-2.5063,-2.4937,-2.4654,-2.3989,-2.3157,-2.2348,-2.1553,-2.2053,-2.2189,-2.1549,-2.0801,-2.0398,-2.0398,-2.0117,-1.9661,-1.889,-1.8747,-1.793,-1.6358,-1.5579,-1.5234,-1.5163,-1.4171,-1.3673,-1.3673,-1.2732,-1.2224,-1.2003,-1.1162,-1.0708,-1.049,-0.9674,-0.9221,-0.9069,-0.9069,-0.8998,-0.8841,-0.8841,-0.8841,-0.8841,-0.8841,-0.8841,-0.8841,-0.8841,-0.8841,-0.8841,-0.8841,-0.8841,-0.8841,-0.8993,-0.8313,-0.7403,-0.649,-0.6338,-0.6338,-0.6338,-0.6338,-0.6338,-0.6338,-0.6495,-0.6619,-0.645,-0.5901,-0.527,-0.4912,-0.4016,-0.2948,-0.1701,-0.1522,-0.1165,-0.009,0.0,0.0,0.0,0.0,0.0,0.0,0.0,0.0,0.0,0.0,0.0,0.0,0.0,0.0,0.0,0.0,0.0,0.0,0.018,0.0897,0.2147,0.3304,0.4552,0.5714,0.6694,0.7139,0.7139,0.7139,0.7139,0.7139,0.7139,0.7139,0.7139,0.7139,0.7139,0.7139,-2.8732,-2.8559,-2.8319,-2.781,-2.7034,-2.6283,-2.5673,-2.4951,-2.4221,-2.3531,-2.2847,-2.2408,-2.2298,-2.1467,-2.0632,-1.9759,-1.9803,-2.0117,-2.076,-1.9998,-1.9497,-1.9497,-1.8055,-1.717,-1.7042,-1.6201,-1.572,-1.5446,-1.5305,-1.5234,-1.5163,-1.4171,-1.3673,-1.3673,-1.2732,-1.1848,-1.1013,-1.0858,-1.034,-0.9523,-0.9372,-0.877,-0.8012,-0.8012,-0.748,-0.6795,-0.6795,-0.6795,-0.6795,-0.6795,-0.6795,-0.6795,-0.6795,-0.6795,-0.6795,-0.6795,-0.6795,-0.6949,-0.7783,-0.7326,-0.649,-0.6338,-0.6338,-0.6338,-0.6338,-0.6338,-0.6338,-0.6338,-0.6495,-0.6363,-0.5363,-0.5297,-0.4734,-0.2683,-0.2236,-0.1701,-0.0449,-0.0269,-0.018,0.0,0.0,0.0,0.0,0.0,0.0,0.0,0.0,0.0,0.0,0.0,0.0,0.0,0.0,0.0,0.0,0.0,0.0,0.0,0.1076,0.2147,0.3393,0.4552,0.5714,0.6874,0.7051,0.7139,0.7139,0.7139,0.7139,0.7139,0.7139,0.7139,0.7139,0.7139,0.7139,0.7139,-2.7565,-2.7414,-2.721,-2.6534,-2.5837,-2.5175,-2.4851,-2.3787,-2.2847,-2.2506,-2.1741,-2.1164,-2.1164,-2.0398,-1.9759,-1.9375,-1.8854,-1.8787,-1.9177,-1.8854,-1.8586,-1.8586,-1.7335,-1.6349,-1.586,-1.4879,-1.4386,-1.4386,-1.3875,-1.3361,-1.283,-1.2331,-1.1816,-1.1304,-1.087,-1.0421,-0.997,-0.9437,-0.8912,-0.8466,-0.7936,-0.7403,-0.7022,-0.7022,-0.6718,-0.6338,-0.6338,-0.6338,-0.6338,-0.6338,-0.6338,-0.6338,-0.6338,-0.6338,-0.6338,-0.6338,-0.6338,-0.6412,-0.6872,-0.6644,-0.6338,-0.6338,-0.6338,-0.6338,-0.6338,-0.6338,-0.6103,-0.555,-0.56,-0.536,-0.4272,-0.3734,-0.3129,-0.1969,-0.1254,-0.0628,-0.009,0.0,0.0,0.0,0.0,0.0,0.0,0.0,0.0,0.0,0.0,0.0,0.0,0.0,0.0,0.0,0.0,0.0,0.0,0.0,0.0359,0.0986,0.1522,0.2771,0.4554,0.5179,0.5983,0.7139,0.7139,0.7139,0.7139,0.7139,0.7139,0.7139,0.7139,0.7139,0.7139,0.7139,0.7139,0.7139,-2.6616,-2.6336,-2.6068,-2.5508,-2.4597,-2.4034,-2.4034,-2.264,-2.1628,-2.1628,-2.0846,-2.0268,-2.0268,-1.9497,-1.8911,-1.869,-1.8037,-1.7579,-1.7373,-1.7364,-1.7432,-1.7647,-1.6567,-1.5508,-1.4522,-1.3738,-1.323,-1.3004,-1.2285,-1.1471,-1.0415,-1.0415,-1.004,-0.9296,-0.9296,-0.9145,-0.8922,-0.8161,-0.7629,-0.7403,-0.6644,-0.6338,-0.6338,-0.6338,-0.6338,-0.6338,-0.6338,-0.6338,-0.6338,-0.6338,-0.6338,-0.6338,-0.6338,-0.6338,-0.6338,-0.6338,-0.6338,-0.6338,-0.6338,-0.6338,-0.6338,-0.6338,-0.6338,-0.6338,-0.6338,-0.6103,-0.5709,-0.4844,-0.4625,-0.4189,-0.3099,-0.226,-0.1701,-0.1433,-0.0628,0.0,0.0,0.0,0.0,0.0,0.0,0.0,0.0,0.0,0.0,0.0,0.0,0.0,0.0,0.0,0.0,0.0,0.0,0.009,0.0449,0.0449,0.0986,0.2236,0.2504,0.3575,0.5447,0.5714,0.6248,0.7139,0.7139,0.7139,0.7139,0.7139,0.7139,0.7139,0.7139,0.7139,0.7139,0.7139,0.7139,0.7139,-2.651,-2.596,-2.5453,-2.5398,-2.4142,-2.3119,-2.3119,-2.1744,-2.0719,-2.0719,-1.9944,-1.9431,-1.9431,-1.8586,-1.7774,-1.6844,-1.6775,-1.6358,-1.5446,-1.5376,-1.5799,-1.6636,-1.4942,-1.3455,-1.2519,-1.2445,-1.1916,-1.1007,-1.0932,-1.0415,-0.9448,-0.9448,-0.9372,-0.9296,-0.9296,-0.877,-0.7936,-0.7859,-0.7249,-0.6412,-0.6338,-0.6338,-0.6338,-0.6338,-0.6338,-0.6338,-0.6338,-0.6338,-0.6338,-0.6338,-0.6338,-0.6338,-0.6338,-0.6338,-0.6338,-0.6338,-0.6338,-0.6338,-0.6338,-0.6338,-0.6338,-0.6338,-0.6338,-0.6338,-0.6338,-0.555,-0.4766,-0.4688,-0.4057,-0.3183,-0.1928,-0.1739,-0.1433,-0.0269,-0.009,0.0,0.0,0.0,0.0,0.0,0.0,0.0,0.0,0.0,0.0,0.0,0.0,0.0,0.0,0.0,0.0,0.0,0.0,0.0539,0.1612,0.17,0.2236,0.3481,0.4643,0.5267,0.5447,0.6517,0.7051,0.7139,0.7139,0.7139,0.7139,0.7139,0.7139,0.7139,0.7139,0.7139,0.7139,0.7139,0.7139,0.7139,-2.5342,-2.4894,-2.4368,-2.3408,-2.2749,-2.2139,-2.162,-2.0504,-1.9814,-1.9814,-1.8536,-1.7658,-1.7658,-1.6844,-1.6088,-1.579,-1.572,-1.5587,-1.5234,-1.4593,-1.445,-1.4807,-1.4099,-1.3237,-1.2298,-1.1694,-1.1162,-1.0783,-1.019,-0.9367,-0.8389,-0.8389,-0.8012,-0.7403,-0.7403,-0.7249,-0.6872,-0.6872,-0.6644,-0.6338,-0.6338,-0.6338,-0.6338,-0.6338,-0.6338,-0.6338,-0.6338,-0.6338,-0.6338,-0.6338,-0.6338,-0.6338,-0.6338,-0.6338,-0.6338,-0.6338,-0.6338,-0.6338,-0.6338,-0.6338,-0.6338,-0.6338,-0.6338,-0.6103,-0.547,-0.5002,-0.4297,-0.3051,-0.2517,-0.1929,-0.084,-0.061,-0.0539,-0.009,0.0,0.0,0.0,0.0,0.0,0.0,0.0,0.0,0.0,0.0,0.0,0.0,0.0,0.0,0.0,0.0718,0.1076,0.1076,0.1879,0.2057,0.179,0.2503,0.3482,0.4732,0.5179,0.5805,0.6425,0.6874,0.7139,0.7139,0.7139,0.7139,0.7139,0.7139,0.7139,0.7139,0.7139,0.7139,0.7139,0.7139,0.7139,0.7139,-2.4124,-2.3741,-2.3135,-2.1741,-2.1302,-2.0771,-1.9901,-1.8992,-1.8335,-1.8055,-1.6964,-1.614,-1.614,-1.5587,-1.5092,-1.4736,-1.4736,-1.4593,-1.4307,-1.3361,-1.2778,-1.2778,-1.2778,-1.2345,-1.1397,-1.0714,-1.019,-0.9884,-0.914,-0.8313,-0.7326,-0.7326,-0.6788,-0.5786,-0.5786,-0.5628,-0.5315,-0.5315,-0.5315,-0.5315,-0.5315,-0.5315,-0.5315,-0.5315,-0.5315,-0.5315,-0.5315,-0.555,-0.5786,-0.5786,-0.6025,-0.6338,-0.6338,-0.6338,-0.6338,-0.6338,-0.6022,-0.5786,-0.5786,-0.555,-0.547,-0.6103,-0.6025,-0.5628,-0.4844,-0.4219,-0.3283,-0.188,-0.1301,-0.084,-0.0168,0.0,0.0,0.0,0.0,0.0,0.0,0.0,0.0,0.0,0.0,0.0,0.0,0.0,0.0,0.0,0.0,0.018,0.0539,0.1701,0.2325,0.2325,0.3571,0.3749,0.2949,0.3749,0.473,0.5894,0.5894,0.6337,0.7139,0.7139,0.7139,0.7139,0.7139,0.7139,0.7139,0.7139,0.7139,0.7139,0.7139,0.7139,0.7139,0.7139,0.7139,0.7139,-2.3132,-2.2384,-2.1616,-2.0719,-1.9879,-1.8936,-1.7996,-1.7142,-1.628,-1.5305,-1.5163,-1.5163,-1.5163,-1.5163,-1.4736,-1.3745,-1.3673,-1.3237,-1.2372,-1.1316,-1.0783,-1.0783,-1.0783,-1.034,-0.9296,-0.9296,-0.8765,-0.7783,-0.7783,-0.7249,-0.6261,-0.6261,-0.5709,-0.4686,-0.4686,-0.4062,-0.3124,-0.3124,-0.3124,-0.3124,-0.3124,-0.3124,-0.3124,-0.3124,-0.3124,-0.3124,-0.3124,-0.3748,-0.4686,-0.4686,-0.5395,-0.6261,-0.6261,-0.6261,-0.6261,-0.6261,-0.555,-0.4686,-0.4686,-0.3904,-0.3593,-0.5709,-0.5473,-0.4686,-0.4686,-0.3051,-0.1568,-0.1568,-0.0733,0.0,0.0,0.0,0.0,0.0,0.0,0.0,0.0,0.0,0.0,0.0,0.0,0.0,0.0,0.0,0.0,0.0,0.0,0.0539,0.1791,0.2948,0.357,0.357,0.4821,0.5447,0.5447,0.5447,0.5983,0.7139,0.7139,0.7139,0.7139,0.7139,0.7139,0.7139,0.7139,0.7139,0.7139,0.7139,0.7139,0.7139,0.7139,0.7139,0.7139,0.7139,0.7139,0.7139,-2.162,-2.1152,-2.0515,-1.8971,-1.8496,-1.7813,-1.6244,-1.5781,-1.5517,-1.5234,-1.4601,-1.4171,-1.4171,-1.291,-1.1957,-1.1668,-1.1007,-1.0484,-1.0196,-0.9895,-0.9442,-0.8761,-0.9367,-0.9599,-0.9296,-0.7901,-0.6981,-0.6678,-0.5214,-0.4365,-0.4062,-0.4062,-0.3904,-0.3591,-0.3591,-0.3435,-0.3124,-0.3124,-0.3124,-0.3124,-0.3124,-0.3124,-0.3124,-0.3124,-0.3124,-0.3124,-0.3124,-0.3279,-0.3591,-0.3591,-0.3826,-0.4062,-0.4062,-0.4062,-0.4062,-0.4062,-0.3826,-0.3591,-0.3591,-0.3357,-0.3279,-0.3904,-0.3826,-0.3359,-0.266,-0.2036,-0.1411,-0.0628,-0.0245,0.0,0.0,0.0,0.0,0.0,0.0,0.0,0.0,0.0,0.0,0.0,0.0,0.0,0.0,0.0,0.0359,0.1165,0.2057,0.2681,0.3037,0.4196,0.4821,0.4821,0.598,0.6605,0.6605,0.6605,0.6782,0.7139,0.7139,0.7139,0.7139,0.7139,0.7139,0.7139,0.7139,0.7139,0.7139,0.7139,0.7139,0.7139,0.7139,0.7139,0.7139,0.7139,0.7139,0.7139,-2.0322,-1.9781,-1.9093,-1.7629,-1.7073,-1.6305,-1.4799,-1.4593,-1.4299,-1.3556,-1.2917,-1.2412,-1.1964,-1.0932,-1.019,-1.019,-0.9669,-0.915,-0.8765,-0.8694,-0.8237,-0.7253,-0.7783,-0.7927,-0.7456,-0.6217,-0.5366,-0.4974,-0.3742,-0.3124,-0.3124,-0.3124,-0.289,-0.2501,-0.2501,-0.2267,-0.1877,-0.1877,-0.1877,-0.1877,-0.1877,-0.1877,-0.1877,-0.1877,-0.1877,-0.1877,-0.1877,-0.2111,-0.2501,-0.2501,-0.2734,-0.3124,-0.3124,-0.3124,-0.3124,-0.3124,-0.2813,-0.2501,-0.2501,-0.2189,-0.1877,-0.1877,-0.2189,-0.2347,-0.1723,-0.1254,-0.0784,-0.0157,0.0,0.0,0.0,0.0,0.0,0.0,0.0,0.0,0.0,0.0,0.018,0.0628,0.0718,0.0897,0.1344,0.1433,0.1701,0.2413,0.366,0.4285,0.4285,0.5445,0.6071,0.6071,0.6782,0.7139,0.7139,0.7139,0.7139,0.7139,0.7139,0.7139,0.7139,0.7139,0.7139,0.7139,0.7139,0.7139,0.7139,0.7139,0.7139,0.7139,0.7139,0.7139,0.7139,0.7139,0.7139,0.7139,-1.9222,-1.8305,-1.7396,-1.648,-1.5649,-1.4665,-1.3593,-1.3448,-1.2785,-1.0932,-1.0634,-1.034,-0.9372,-0.9221,-0.915,-0.915,-0.9069,-0.8618,-0.7706,-0.7553,-0.7092,-0.618,-0.6099,-0.555,-0.4453,-0.453,-0.4059,-0.2968,-0.289,-0.2812,-0.2812,-0.2812,-0.2345,-0.1489,-0.1489,-0.0941,0.0,0.0,0.0,0.0,0.0,0.0,0.0,0.0,0.0,0.0,0.0,-0.0628,-0.1489,-0.1489,-0.2035,-0.2812,-0.2812,-0.2812,-0.2812,-0.2812,-0.219,-0.1489,-0.1489,-0.0706,0.0,0.0,-0.0706,-0.1489,-0.1489,-0.0706,0.0,0.0,0.0,0.0,0.0,0.0,0.0,0.0,0.0,0.0,0.0,0.009,0.0539,0.17,0.1879,0.2413,0.3481,0.3659,0.3748,0.3748,0.491,0.5536,0.5536,0.6517,0.7139,0.7139,0.7139,0.7139,0.7139,0.7139,0.7139,0.7139,0.7139,0.7139,0.7139,0.7139,0.7139,0.7139,0.7139,0.7139,0.7139,0.7139,0.7139,0.7139,0.7139,0.7139,0.7139,0.7139,0.7139,0.7139,-1.7375,-1.6401,-1.5492,-1.4522,-1.4171,-1.344,-1.1668,-1.1452,-1.1007,-0.982,-0.9593,-0.9523,-0.9296,-0.8618,-0.8161,-0.8161,-0.7403,-0.6872,-0.6644,-0.5854,-0.5309,-0.5079,-0.4217,-0.3281,-0.227,-0.3047,-0.2969,-0.1958,-0.1097,-0.0706,-0.0706,-0.0706,-0.0549,-0.0314,-0.0314,-0.0236,0.0,0.0,0.0,0.0,0.0,0.0,0.0,0.0,0.0,0.0,0.0,-0.0157,-0.0314,-0.0314,-0.0471,-0.0706,-0.0706,-0.0706,-0.0706,-0.0706,-0.0549,-0.0314,-0.0314,-0.0157,0.0,0.0,-0.0157,-0.0314,-0.0314,-0.0157,0.0,0.0,0.0,0.0,0.0,0.0,0.0,0.0,0.0,0.0,0.0,0.0807,0.1522,0.179,0.2592,0.3303,0.357,0.4463,0.5001,0.5001,0.6068,0.6694,0.6694,0.6962,0.7139,0.7139,0.7139,0.7139,0.7139,0.7139,0.7139,0.7139,0.7139,0.7139,0.7139,0.7139,0.7139,0.7139,0.7139,0.7139,0.7139,0.7139,0.7139,0.7139,0.7139,0.7139,0.7139,0.7139,0.7139,0.7228,-1.5992,-1.5155,-1.4314,-1.3818,-1.2931,-1.197,-1.0932,-1.0415,-0.9744,-0.8689,-0.8618,-0.8389,-0.7936,-0.7403,-0.6861,-0.6391,-0.5857,-0.5315,-0.4844,-0.4217,-0.3904,-0.3904,-0.3435,-0.2657,-0.1646,-0.2113,-0.1879,-0.0863,-0.0314,0.0,0.0,0.0,0.0,0.0,0.0,0.0,0.0,0.0,0.0,0.0,0.0,0.0,0.0,0.0,0.0,0.0,0.0,0.0,0.0,0.0,0.0,0.0,0.0,0.0,0.0,0.0,0.0,0.0,0.0,0.0,0.0,0.0,0.0,0.0,0.0,0.0,0.0,0.0,0.0,0.0,0.0,0.0,0.0,0.0,0.0,0.018,0.0807,0.1433,0.2236,0.3396,0.4107,0.4641,0.5174,0.5802,0.6248,0.6248,0.6782,0.7139,0.7139,0.7139,0.7139,0.7139,0.7139,0.7139,0.7139,0.7139,0.7139,0.7139,0.7139,0.7139,0.7139,0.7139,0.7139,0.7139,0.7139,0.7139,0.7139,0.7139,0.7139,0.7139,0.7139,0.7139,0.7139,0.7753,0.8273,0.8965,-1.472,-1.3715,-1.2931,-1.2931,-1.1601,-1.0484,-1.0335,-0.9593,-0.8689,-0.7706,-0.7557,-0.7173,-0.6099,-0.5867,-0.5395,-0.453,-0.4453,-0.3982,-0.2887,-0.2652,-0.2575,-0.2575,-0.2419,-0.1954,-0.1333,-0.1333,-0.0863,0.0,0.0,0.0,0.0,0.0,0.0,0.0,0.0,0.0,0.0,0.0,0.0,0.0,0.0,0.0,0.0,0.0,0.0,0.0,0.0,0.0,0.0,0.0,0.0,0.0,0.0,0.0,0.0,0.0,0.0,0.0,0.0,0.0,0.0,0.0,0.0,0.0,0.0,0.0,0.0,0.0,0.0,0.0,0.0,0.0,0.0,0.0,0.018,0.0628,0.1701,0.2148,0.3129,0.5181,0.5536,0.6071,0.7051,0.7139,0.7139,0.7139,0.7139,0.7139,0.7139,0.7139,0.7139,0.7139,0.7139,0.7139,0.7139,0.7139,0.7139,0.7139,0.7139,0.7139,0.7139,0.7139,0.7139,0.7139,0.7139,0.7139,0.7139,0.7139,0.7139,0.7139,0.7316,0.7401,0.7577,0.8711,0.9923,1.1037,-1.259,-1.1137,-0.9895,-0.9895,-0.9669,-0.9221,-0.8309,-0.8084,-0.7629,-0.6644,-0.649,-0.6096,-0.5002,-0.4062,-0.3435,-0.3357,-0.3279,-0.2885,-0.1867,-0.0934,-0.0389,-0.0389,0.0469,0.0627,-0.0235,-0.0236,-0.0157,0.0,0.0,0.0,0.0,0.0,0.0,0.0,0.0,0.0,0.0,0.0,0.0,0.0,0.0,0.0,0.0,0.0,0.0,0.0,0.0,0.0,0.0,0.0,0.0,0.0,0.0,0.0,0.0,0.0,0.0,0.0,0.0,0.0,0.0,0.0,0.0,0.0,0.0,0.0,0.0,0.0,0.0,0.0,0.0,0.0,0.0,0.0,0.0897,0.1612,0.179,0.3575,0.5001,0.5359,0.6248,0.6962,0.7051,0.7139,0.7139,0.7139,0.7139,0.7139,0.7139,0.7139,0.7139,0.7139,0.7139,0.7139,0.7139,0.7139,0.7139,0.7139,0.7139,0.7139,0.7139,0.7139,0.7139,0.7139,0.7139,0.7139,0.7139,0.7139,0.7139,0.7228,0.8277,0.8627,0.8798,0.9923,1.1128,1.2066,-1.0542,-0.989,-0.9296,-0.9296,-0.8841,-0.8313,-0.7859,-0.7326,-0.656,-0.555,-0.5395,-0.5002,-0.3904,-0.2884,-0.2025,-0.1402,-0.0856,-0.0078,0.0934,0.0936,0.086,0.086,0.0784,0.0784,0.0863,0.0863,0.1176,0.1721,0.0549,0.0,0.0,0.0,0.0314,0.0863,0.0863,0.1175,0.1721,0.1721,0.1721,0.1721,0.1721,0.1721,0.1721,0.1721,0.1409,0.0784,0.0236,0.0,0.0,0.0,0.0,0.0,0.0,0.0,0.0,0.0,0.0,0.0,0.0,0.0,0.0,0.0,0.0,0.0,0.0,0.0,0.0,0.0,0.0,0.0,0.0,0.0,0.0,0.0,0.0986,0.2057,0.2681,0.4287,0.5625,0.6248,0.6786,0.7139,0.7139,0.7139,0.7139,0.7139,0.7139,0.7139,0.7139,0.7139,0.7139,0.7139,0.7139,0.7139,0.7139,0.7139,0.7139,0.7139,0.7139,0.7139,0.7139,0.7139,0.7139,0.7139,0.7139,0.7139,0.7139,0.7841,0.8105,0.8189,0.9405,1.0269,1.0864,1.1381,1.2248,1.3294]},{"header":{"parameterUnit":"m.s-1","parameterCategory":1,"la1":30.6,"la2":28.766,"lo1":-90.7593,"lo2":-88.6598,"dy":0.0162,"dx":0.0183,"nx":116,"ny":114,"refTime":"2023-05-22T12:00:00:Z","depth":0,"parameterNumber":3,"parameterNumberName":"V-component_of_WINDS"},"data":[0.0,0.0,0.0,0.0,0.0,0.0,0.0,0.0,0.0,0.0,0.0,0.0,0.0,0.0,0.0,0.0,0.0,0.0,0.0,0.0,0.0,0.0,0.0,0.0,0.0,0.0,0.0,0.0,0.0,0.0,0.0,0.0,0.0,0.0,0.0,0.0,0.0,0.0,0.0,0.0,0.0,0.0,0.0,0.0,0.0,0.0,0.0,0.0,0.0,0.0,0.0,0.0,0.0,0.0,0.0,0.0,0.0,0.0,0.0,0.0,0.0,0.0,0.0,0.0,0.0,0.0,0.0,0.0,0.0,0.0,0.0,0.0,0.0,0.0,0.0,0.0,0.0,0.0,0.0,0.0,0.0,0.0,0.0,0.0,0.0,0.0,0.0,0.0,0.0,0.0,0.0,0.0,0.0,0.0,0.0,0.0,0.0,0.0,0.0,0.0,0.0,0.0,0.0,0.0,0.0,0.0,0.0,0.0,0.0,0.0,0.0,0.0,0.0,0.0,0.0,0.0,0.0,0.0,0.0,0.0,0.0,0.0,0.0,0.0,0.0,0.0,0.0,0.0,0.0,0.0,0.0,0.0,0.0,0.0,0.0,0.0,0.0,0.0,0.0,0.0,0.0,0.0,0.0,0.0,0.0,0.0,0.0,0.0,0.0,0.0,0.0,0.0,0.0,0.0,0.0,0.0,0.0,0.0,0.0,0.0,0.0,0.0,0.0,0.0,0.0,0.0,0.0,0.0,0.0,0.0,0.0,0.0,0.0,0.0,0.0,0.0,0.0,0.0,0.0,0.0,0.0,0.0,0.0,0.0,0.0,0.0,0.0,0.0,0.0,0.0,0.0,0.0,0.0,0.0,0.0,0.0,0.0,0.0,0.0,0.0,0.0,0.0,0.0,0.0,0.0,0.0,0.0,0.0,0.0,0.0,0.0,0.0,0.0,0.0,0.0,0.0,0.0,0.0,0.0,0.0,0.0,0.0,0.0,0.0,0.0,0.0,0.0,0.0,0.0,0.0,0.0,0.0,0.0,0.0,0.0,0.0,0.0,0.0,0.0,0.0,0.0,0.0,0.0,0.0,0.0,0.0,0.0,0.0,0.0,0.0,0.0,0.0,0.0,0.0,0.0,0.0,0.0,0.0,0.0,0.0,0.0,0.0,0.0,0.0,0.0,0.0,0.0,0.0,0.0,0.0,0.0,0.0,0.0,0.0,0.0,0.0,0.0,0.0,0.0,0.0,0.0,0.0,0.0,0.0,0.0,0.0,0.0,0.0,0.0,0.0,0.0,0.0,0.0,0.0,0.0,0.0,0.0,0.0,0.0,0.0,0.0,0.0,0.0,0.0,0.0,0.0,0.0,0.0,0.0,0.0,0.0,0.0,0.0,0.0,0.0,0.0,0.0,0.0,0.0,0.0,0.0,0.0,0.0,0.0,0.0,0.0,0.0,0.0,0.0,0.0,0.0,0.0,0.0,0.0,0.0,0.0,0.0,0.0,0.0,0.0,0.0,0.0,0.0,0.0,0.0,0.0,0.0,0.0,0.0,0.0,0.0,0.0,0.0,0.0,0.0,0.0,0.0,0.0,0.0,0.0,0.0,0.0,0.0,0.0,0.0,0.0,0.0,0.0,0.0,0.0,0.0,0.0,0.0,0.0,0.0,0.0,0.0,0.0,0.0,0.0,0.0,0.0,0.0,0.0,0.0,0.0,0.0,0.0,0.0,0.0,0.0,0.0,0.0,0.0,0.0,0.0,0.0,0.0,0.0,0.0,0.0,0.0,0.0,0.0,0.0,0.0,0.0,0.0,0.0,0.0,0.0,0.0,0.0,0.0,0.0,0.0,0.0,0.0,0.0,0.0,0.0,0.0,0.0,0.0,0.0,0.0,0.0,0.0,0.0,0.0,0.0,0.0,0.0,0.0,0.0,0.0,0.0,0.0,0.0,0.0,0.0,0.0,0.0,0.0,0.0,0.0,0.0,0.0,0.0,0.0,0.0,0.0,0.0,0.0,0.0,0.0,0.0,0.0,0.0,0.0,0.0,0.0,0.0,0.0,0.0,0.0,0.0,0.0,0.0,0.0,0.0,0.0,0.0,0.0,0.0,0.0,0.0,0.0,0.0,0.0,0.0,0.0,0.0,0.0,0.0,0.0,0.0,0.0,0.0,0.0,0.0,0.0,0.0,0.0,0.0,0.0,0.0,0.0,0.0,0.0,0.0,0.0,0.0,0.0,0.0,0.0,0.0,0.0,0.0,0.0,0.0,0.0,0.0,0.0,0.0,0.0,0.0,0.0,0.0,0.0,0.0,0.0,0.0,0.0,0.0,0.0,0.0,0.0,0.0,0.0,0.0,0.0,0.0,0.0,0.0,0.0,0.0,0.0,0.0,0.0,0.0,0.0,0.0,0.0,0.0,0.0,0.0,0.0,0.0,0.0,0.0,0.0,0.0,0.0,0.0,0.0,0.0,0.0,0.0,0.0,0.0,0.0,0.0,0.0,0.0,0.0,0.0,0.0,0.0,0.0,0.0,0.0,0.0,0.0,0.0,0.0,0.0,0.0,0.0,0.0,0.0,0.0,0.0,0.0,0.0,0.0,0.0,0.0,0.0,0.0,0.0,0.0,0.0,0.0,0.0,0.0,0.0,0.0,0.0,0.0,0.0,0.0,0.0,0.0,0.0,0.0,0.0,0.0,0.0,0.0,0.0,0.0,0.0,0.0,0.0,0.0,0.0,0.0,0.0,0.0,0.0,0.0,0.0,0.0,0.0,0.0,0.0,0.0,0.0,0.0,0.0,0.0,0.0,0.0,0.0,0.0,0.0,0.0,0.0,0.0,0.0,0.0,0.0,0.0,0.0,0.0,0.0,0.0,0.0,0.0,0.0,0.0,0.0,0.0,0.0,0.0,0.0,0.0,0.0,0.0,0.0,0.0,0.0,0.0,0.0,0.0,0.0,0.0,0.0,0.0,0.0,0.0,0.0,0.0,0.0,0.0,0.0,0.0,0.0,0.0,0.0,0.0,0.0,0.0,0.0,0.0,0.0,0.0,0.0,0.0,0.0,0.0,0.0,0.0,0.0,0.0,0.0,0.0,0.0,0.0,0.0,0.0,0.0,0.0,0.0,0.0,0.0,0.0,0.0,0.0,0.0,0.0,0.0,0.0,0.0,0.0,0.0,0.0,0.0,0.0,0.0,0.0,0.0,0.0,0.0,0.0,0.0,0.0,0.0,0.0,0.0,0.0,0.0,0.0,0.0,0.0,0.0,0.0,0.0,0.0,0.0,0.0,0.0,0.0,0.0,0.0,0.0,0.0,0.0,0.0,0.0,0.0,0.0,0.0,0.0,0.0,0.0,0.0,0.0,0.0,0.0,0.0,0.0,0.0,0.0,0.0,0.0,0.0,0.0,0.0,0.0,0.0,0.0,0.0,0.0,0.0,0.0,0.0,0.0,0.0,0.0,0.0,0.0,0.0,0.0,0.0,0.0,0.0,0.0,0.0,0.0,0.0,0.0,0.0,0.0,0.0,0.0,0.0,0.0,0.0,0.0,0.0,0.0,0.0,0.0,0.0,0.0,0.0,0.0,0.0,0.0,0.0,0.0,0.0,0.0,0.0,0.0,0.0,0.0,0.0,0.0,0.0,0.0,0.0,0.0,0.0,0.0,0.0,0.0,0.0,0.0,0.0,0.0,0.0,0.0,0.0,0.0,0.0,0.0,0.0,0.0,0.0,0.0,0.0,0.0,0.0,0.0,0.0,0.0,0.0,0.0,0.0,0.0,0.0,0.0,0.0,0.0,0.0,0.0,0.0,0.0,0.0,0.0,0.0,0.0,0.0,0.0,0.0,0.0,0.0,0.0,0.0,0.0,0.0,0.0,0.0,0.0,0.0,0.0,0.0,0.0,0.0,0.0,0.0,0.0,0.0,0.0,0.0,0.0,0.0,0.0,0.0,0.0,0.0,0.0,0.0,0.0,0.0,0.0,0.0,0.0,0.0,0.0,0.0,0.0,0.0,0.0,0.0,0.0,0.0,0.0,0.0,0.0,0.0,0.0,0.0,0.0,0.0,0.0,0.0,0.0,0.0,0.0,0.0,0.0,0.0,0.0,0.0,0.0,0.0,0.0,0.0,0.0,0.0,0.0,0.0,0.0,0.0,0.0,0.0,0.0,0.0,0.0,0.0,0.0,0.0,0.0,0.0,0.0,0.0,0.0,0.0,0.0,0.0,0.0,0.0,0.0,0.0,0.0,0.0,0.0,0.0,0.0,0.0,0.0,0.0,0.0,0.0,0.0,0.0,0.0,0.0,0.0,0.0,0.0,0.0,0.0,0.0,0.0,0.0,0.0,0.0,0.0,0.0,0.0,0.0,0.0,0.0,0.0,0.0,0.0,0.0,0.0,0.0,0.0,0.0,0.0,0.0,0.0,0.0,0.0,0.0,0.0,0.0,0.0,0.0,0.0,0.0,0.0,0.0,0.0,0.0,0.0,0.0,0.0,0.0,0.0,0.0,0.0,0.0,0.0,0.0,0.0,0.0,0.0,0.0,0.0,0.0,0.0,0.0,0.0,0.0,0.0,0.0,0.0,0.0,0.0,0.0,0.0,0.0,0.0,0.0,0.0,0.0,0.0,0.0,0.0,0.0,0.0,0.0,0.0,0.0,0.0,0.0,0.0,0.0,0.0,0.0,0.0,0.0,0.0,0.0,0.0,0.0,0.0,0.0,0.0,0.0,0.0,0.0,0.0,0.0,0.0,0.0,0.0,0.0,0.0,0.0,0.0,0.0,0.0,0.0,0.0,0.0,0.0,0.0,0.0,0.0,0.0,0.0,0.0,0.0,0.0,0.0,0.0,0.0,0.0,0.0,0.0,0.0,0.0,0.0,0.0,0.0,0.0,0.0,0.0,0.0,0.0,0.0,0.0,0.0,0.0,0.0,0.0,0.0,0.0,0.0,0.0,0.0,0.0,0.0,0.0,0.0,0.0,0.0,0.0,0.0,0.0,0.0,0.0,0.0,0.0,0.0,0.0,0.0,0.0,0.0,0.0,0.0,0.0,0.0,0.0,0.0,0.0,0.0,0.0,0.0,0.0,0.0,0.0,0.0,0.0,0.0,0.0,0.0,0.0,0.0,0.0,0.0,0.0,0.0,0.0,0.0,0.0,0.0,0.0,0.0,0.0,0.0,0.0,0.0,0.0,0.0,0.0,0.0,0.0,0.0,0.0,0.0,0.0,0.0,0.0,0.0,0.0,0.0,0.0,0.0,0.0,0.0,0.0,0.0,0.0,0.0,0.0,0.0,0.0,0.0,0.0,0.0,0.0,0.0,0.0,0.0,0.0,0.0,0.0,0.0,0.0,0.0,0.0,0.0,0.0,0.0,0.0,0.0,0.0,0.0,0.0,0.0,0.0,0.0,0.0,0.0,0.0,0.0,0.0,0.0,0.0,0.0,0.0,0.0,0.0,0.0,0.0,0.0,0.0,0.0,0.0,0.0,0.0,0.0,0.0,0.0,0.0,0.0,0.0,0.0,0.0,0.0,0.0,0.0,0.0,0.0,0.0,0.0,0.0,0.0,0.0,0.0,0.0,0.0,0.0,0.0,0.0,0.0,0.0,0.0,0.0,0.0,0.0,0.0,0.0,0.0,0.0,0.0,0.0,0.0,0.0,0.0,0.0,0.0,0.0,0.0,0.0,0.0,0.0,0.0,0.0,0.0,0.0,0.0,0.0,0.0,0.0,0.0,0.0,0.0,0.0,0.0,0.0,0.0,0.0,0.0,0.0,0.0,0.0,0.0,0.0,0.0,0.0,0.0,0.0,0.0,0.0,0.0,0.0,0.0,0.0,0.0,0.0,0.0,0.0,0.0,0.0,0.0,0.0,0.0,0.0,0.0,0.0,0.0,0.0,0.0,0.0,0.0,0.0,0.0,0.0,0.0,0.0,0.0,0.0,0.0,0.0,0.0,0.0,0.0,0.0,0.0,0.0,0.0,0.0,0.0,0.0,0.0,0.0,0.0,0.0,0.0,0.0,0.0,0.0,0.0,0.0,0.0,0.0,0.0,0.0,0.0,0.0,0.0,0.0,0.0,0.0,0.0,0.0,0.0,0.0,0.0,1.5272,1.5569,0.0,0.0,0.0,0.0,0.0,0.0,0.0,0.0,0.0,0.0,0.0,0.0,0.0,0.0,0.0,0.0,0.0,0.0,0.0,0.0,0.0,0.0,0.0,0.0,0.0,0.0,0.0,0.0,0.0,0.0,0.0,0.0,0.0,0.0,0.0,0.0,0.0,0.0,2.9996,3.0389,2.9043,2.0334,1.177,0.3408,0.0,0.0,0.0,0.0,0.0,0.0,0.0,0.0,0.0,0.0,0.0,0.0,0.0,0.0,0.0,0.0,0.0,0.0,0.0,0.0,0.0,0.0,0.0,0.0,0.0,0.0,0.0,0.0,0.0,0.0,0.0,0.0,0.0,0.0,0.0,0.0,0.0,0.0,0.0,0.0,0.0,0.0,0.0,0.0,0.0,0.0,0.0,0.0,0.0,0.0,0.0,0.0,0.0,0.0,0.0,0.0,0.0,0.0,0.0,0.0,0.0,0.0,0.0,0.0,0.0,0.0,0.0,0.0,0.0,0.0,1.59,1.597,0.0,0.0,0.0,0.0,0.0,0.0,0.0,0.0,0.0,0.0,0.0,0.0,0.0,0.0,0.0,0.0,0.0,0.0,0.0,0.0,0.0,0.0,0.0,0.0,1.0673,1.1132,1.2315,1.3142,0.0,0.0,0.0,0.0,0.0,0.0,0.0,0.0,0.0,3.2242,3.2787,3.1533,2.8522,2.4594,1.7843,0.8823,0.3439,0.0,0.0,0.0,0.0,0.0,0.0,0.0,0.0,0.0,0.0,0.0,0.0,0.0,0.0,0.0,0.0,0.0,0.0,0.0,0.0,0.0,0.0,0.0,0.0,0.0,0.0,0.0,0.0,0.0,0.0,0.0,0.0,0.0,0.0,0.0,0.0,0.0,0.0,0.0,0.0,0.0,0.0,0.0,0.0,0.0,0.0,0.0,0.0,0.0,0.0,0.0,0.0,0.0,0.0,0.0,0.0,0.0,0.0,0.0,0.0,0.0,0.0,0.0,1.4173,1.465,1.5696,1.5538,1.6519,1.8301,1.6675,1.6601,1.7496,1.6437,0.0,0.0,0.0,0.0,0.0,0.0,0.0,0.0,0.0,0.0,0.0,0.0,0.0,0.0,0.0,0.0,0.0,0.0,0.0,0.0,0.0,1.1758,1.213,1.2949,1.5386,1.713,0.0,0.0,0.0,0.0,0.0,0.0,0.0,3.1972,3.3118,3.3957,3.4336,3.2765,2.9425,2.8793,2.3455,1.4145,0.7938,0.281,-0.1865,0.0,0.0,0.0,0.0,0.0,0.0,0.0,0.0,0.0,0.0,0.0,0.0,0.0,0.0,0.0,0.0,0.0,0.0,0.0,0.0,0.0,0.0,0.0,0.0,0.0,0.0,0.0,0.0,0.0,0.0,0.0,0.0,0.0,0.0,0.0,0.0,0.0,0.0,0.0,0.0,0.0,2.4442,2.1008,0.0,0.0,0.0,0.0,0.0,0.0,0.0,0.0,0.0,0.0,0.0,0.0,0.0,1.4173,1.4334,1.4166,1.4573,1.5455,1.4573,1.465,1.5703,1.4734,1.4977,1.6191,1.6846,0.0,1.8718,1.7577,0.0,0.0,0.0,0.0,0.0,0.0,0.0,0.0,0.0,0.0,0.0,0.0,0.0,0.0,0.0,0.0,0.0,0.0,0.0,0.0,0.0,1.4253,1.5709,1.7159,1.9244,2.0827,2.1452,2.3761,0.0,0.0,0.0,0.0,3.187,3.3295,3.418,3.4527,3.472,3.3105,2.9892,2.9245,2.565,1.9545,1.4837,0.8005,-0.0268,-0.4322,0.0,0.0,0.0,0.0,0.0,0.0,0.0,0.0,0.0,0.0,0.0,0.0,0.0,0.0,0.0,0.0,0.0,0.0,0.0,0.0,0.0,0.0,0.0,0.0,0.0,0.0,0.0,0.0,0.0,0.0,0.0,0.0,0.0,0.0,0.0,0.0,0.0,0.0,0.0,2.6505,2.505,2.1069,2.0625,2.0584,0.0,0.0,0.0,0.0,0.0,0.0,0.0,0.0,0.0,1.5884,1.4741,1.4412,1.497,1.4412,1.4328,1.4817,1.4328,1.465,1.5696,1.5876,1.6519,1.7568,1.87,1.9432,1.9835,1.8709,1.798,1.7496,0.0,0.0,0.0,0.0,1.7009,1.7649,0.0,0.0,0.0,0.0,0.0,0.0,0.0,0.0,0.0,0.0,0.0,0.0,1.4698,1.7045,1.9318,2.1303,2.2854,2.401,2.4805,2.6653,0.0,0.0,0.0,3.2509,3.2845,3.4036,3.4797,3.5014,3.4839,3.3424,3.0773,2.9655,2.7355,2.4012,2.0743,1.2132,0.0,0.0,-1.1539,-2.9623,0.0,0.0,0.0,0.0,0.0,0.0,0.0,0.0,0.0,0.0,0.0,0.0,0.0,0.0,0.0,0.0,0.0,0.0,0.0,0.0,0.0,0.0,0.0,0.0,0.0,0.0,0.0,0.0,0.0,0.0,0.0,0.0,0.0,0.0,0.0,0.0,0.0,2.5648,2.4249,2.2306,2.1206,2.0625,0.0,0.0,0.0,0.0,0.0,0.0,1.6927,1.6108,1.5944,1.6445,1.4901,1.4489,1.5296,1.4489,1.4088,1.4088,1.4088,1.465,1.5703,1.6519,1.7658,1.9036,1.9844,2.0323,2.0566,1.9756,1.9283,1.8957,1.8069,1.7585,1.7334,1.7666,1.831,1.9036,0.0,0.0,0.0,0.0,0.0,0.0,0.0,0.0,0.0,0.0,0.0,1.573,1.844,2.0284,2.2221,2.4585,2.561,2.6667,2.7962,2.9079,2.9947,3.0673,3.1864,3.2813,3.3532,3.4603,3.5398,3.5832,3.5084,3.4003,3.2635,3.1572,2.9619,2.686,2.41,1.4325,0.0,0.0,-1.3771,-3.5108,-2.9724,0.0,0.0,0.0,0.0,0.0,0.0,0.0,0.0,0.0,0.0,0.0,0.0,0.0,0.0,0.0,0.0,0.0,0.0,0.0,0.0,0.0,0.0,0.0,0.0,0.0,0.0,0.0,0.0,0.0,0.0,0.0,0.0,0.0,0.0,0.0,0.0,0.0,0.0,2.5819,2.2897,0.0,0.0,0.0,0.0,1.8541,1.8388,1.7629,1.5869,1.5703,1.5296,1.425,1.4166,1.4173,1.4166,1.4173,1.4088,1.4088,1.4088,1.465,1.5696,1.5786,1.6919,1.9036,1.9036,1.9678,2.0566,2.0566,1.9923,1.8957,1.8957,1.823,1.7423,1.8559,1.8957,1.9125,0.0,0.0,0.0,0.0,0.0,0.0,0.0,0.0,1.1864,1.2926,1.5696,1.8157,1.9683,2.2585,2.5024,2.6431,2.7618,2.8777,2.992,3.0301,3.0913,3.1881,3.2746,3.3621,3.4559,3.4974,3.5357,3.5718,3.5285,3.5019,3.4846,3.4457,3.267,2.9809,3.0909,2.8349,2.2142,0.6593,-1.3936,-3.582,-3.3813,-3.3513,0.0,0.0,0.0,0.0,0.0,0.0,0.0,0.0,0.0,0.0,0.0,0.0,0.0,0.0,0.0,0.0,0.0,0.0,0.0,0.0,0.0,0.0,0.0,0.0,0.0,0.0,0.0,0.0,0.0,0.0,0.0,0.0,0.0,0.0,0.0,0.0,0.0,2.6017,2.3041,0.0,1.9068,1.9416,1.9495,1.8807,1.8901,1.8711,1.8029,1.6771,1.5945,1.5779,1.4515,1.3895,1.4082,1.4088,1.4088,1.4088,1.4088,1.4334,1.4734,1.6116,1.7172,1.7989,1.9432,2.0245,2.0566,2.0566,2.0401,2.0001,2.0001,1.9756,1.9432,1.9844,2.0001,2.0079,0.0,0.0,0.0,0.0,0.0,0.0,0.0,0.0,1.3331,1.5175,1.8055,2.0414,2.1801,2.4515,2.6733,2.7954,2.8903,2.9913,3.1125,3.1202,3.1576,3.2451,3.3033,3.3618,3.4151,3.4567,3.4827,3.4889,3.5128,3.5311,3.5472,3.5837,3.4856,3.2897,3.5042,3.4933,3.1709,0.9444,-1.2264,-3.1811,-3.3643,-3.4372,-3.4491,0.0,0.0,0.0,0.0,0.0,0.0,0.0,0.0,0.0,0.0,0.0,0.0,0.0,0.0,0.0,0.0,0.0,0.0,0.0,0.0,0.0,0.0,0.0,0.0,0.0,0.0,0.0,0.0,0.0,0.0,0.0,0.0,0.0,0.0,2.3609,2.2405,2.5046,2.3006,2.0737,1.9023,1.8896,1.902,1.9407,1.9403,1.9141,1.8756,1.7459,1.6649,1.6505,1.4815,1.4054,1.4262,1.3946,1.3841,1.3941,1.3941,1.44,1.5228,1.669,1.7738,1.847,2.0001,2.0566,2.0566,2.0566,2.0566,2.0566,2.0566,2.0566,2.0566,2.0566,2.0789,2.1155,0.0,0.0,0.0,0.0,0.0,0.0,0.0,1.239,1.4911,1.8527,2.0545,2.2575,2.4914,2.5983,2.7333,2.921,2.9406,3.01,3.1662,3.1789,3.1986,3.2484,3.2724,3.2683,3.2305,3.3368,3.378,3.3483,3.451,3.4809,3.4451,3.5458,3.5939,3.5935,3.5808,3.2592,2.6149,0.8165,-0.8588,-2.3574,-2.8803,-3.0927,-3.131,0.0,0.0,0.0,0.0,0.0,0.0,0.0,0.0,0.0,0.0,0.0,0.0,0.0,0.0,0.0,0.0,0.0,0.0,0.0,0.0,0.0,0.0,0.0,0.0,0.0,0.0,0.0,0.0,0.0,0.0,0.0,0.0,0.0,2.6095,2.448,2.3066,2.3086,2.3092,2.2465,2.0816,1.9084,1.873,2.0448,1.9735,1.88,1.7748,1.7674,1.7133,1.6059,1.5081,1.4639,1.4569,1.3666,1.3353,1.3627,1.3627,1.4902,1.7236,1.7236,1.8452,2.0557,2.0566,2.0566,2.0566,2.0566,2.0566,2.0566,2.0566,2.0644,2.0644,2.0644,2.1221,2.2328,0.0,0.0,0.0,0.0,0.0,0.0,0.0,1.2998,1.559,1.7899,2.0734,2.2968,2.4253,2.6562,2.8158,2.8685,2.954,3.0352,3.1125,3.1554,3.1986,3.2484,3.214,3.1999,3.2075,3.2389,3.2691,3.2979,3.3045,3.3796,3.5195,3.4648,3.4397,3.4265,3.1238,2.6451,2.0311,1.5214,-0.091,-2.3219,-2.4733,-2.5307,-2.5397,0.0,0.0,0.0,0.0,0.0,0.0,0.0,0.0,0.0,0.0,0.0,0.0,0.0,0.0,0.0,0.0,0.0,0.0,0.0,0.0,0.0,0.0,0.0,0.0,0.0,0.0,0.0,0.0,0.0,0.0,0.0,2.4932,2.5824,2.4262,2.3505,2.3118,2.3131,2.3103,2.2898,2.2484,2.0512,1.9323,1.9676,1.8823,1.822,1.7932,1.7263,1.6813,1.6732,1.5848,1.5078,1.4569,1.4343,1.393,1.3327,1.3327,1.4184,1.5909,1.6691,1.7873,1.9441,2.0245,2.0566,2.0566,2.0566,2.0566,2.0566,2.0566,2.1011,2.1593,2.1593,2.2253,2.3294,0.0,0.0,0.0,0.0,0.0,0.0,0.0,1.2846,1.5556,1.8507,2.0922,2.3052,2.4871,2.6657,2.7913,2.8463,2.9361,3.0185,3.0858,3.124,3.137,3.1202,3.0864,3.083,3.1175,3.1416,3.1504,3.1391,3.2402,3.3204,3.3666,3.197,3.1185,3.0962,2.5876,2.148,1.7775,1.4496,0.2834,-1.3601,-1.5371,-1.7044,-1.8582,-1.8605,-2.1516,-2.6091,-2.9407,-2.9689,-2.9243,-3.4288,0.0,0.0,0.0,0.0,0.0,0.0,0.0,0.0,0.0,0.0,0.0,0.0,0.0,0.0,0.0,0.0,0.0,0.0,0.0,0.0,0.0,0.0,0.0,0.0,2.6442,2.6975,2.5208,2.3916,2.3115,2.3078,2.3106,2.3083,2.3083,2.1458,2.0268,1.9879,1.9044,1.8395,1.8008,1.7501,1.726,1.7432,1.6483,1.5858,1.5412,1.5048,1.4607,1.4223,1.4223,1.4926,1.6333,1.6944,1.792,1.9172,1.9976,2.0293,2.0303,2.0488,2.0857,2.1155,0.0,0.0,0.0,0.0,2.3599,2.4264,0.0,0.0,0.0,0.0,0.0,0.0,0.0,1.2244,1.5096,1.9276,2.0934,2.2852,2.5795,2.6336,2.6967,2.8174,2.8919,2.9805,3.0834,3.0767,3.0286,2.9451,2.9268,2.9428,2.9932,3.0451,3.025,2.9215,3.1821,3.212,3.0225,2.8103,2.6872,2.6274,2.0523,1.7781,1.6891,0.9451,0.383,-0.0375,-0.4632,-0.8417,-1.1626,-1.1612,-1.3733,-1.7058,-2.0127,-1.9532,-1.8825,-2.8622,0.0,0.0,0.0,0.0,0.0,0.0,0.0,0.0,0.0,0.0,0.0,0.0,0.0,0.0,0.0,0.0,0.0,0.0,0.0,0.0,0.0,0.0,0.0,0.0,2.7617,2.7596,2.7574,2.4969,2.3083,2.3097,2.3113,2.3078,2.3078,2.2091,2.126,2.0771,1.9814,1.8998,1.8271,1.8144,0.0,0.0,0.0,1.6842,1.6772,1.5928,1.5588,1.5675,1.5675,1.6402,1.7773,1.7773,1.8406,1.9453,1.9824,1.999,2.0019,2.0554,2.1298,2.2103,2.1385,2.1603,2.2553,2.448,2.5158,2.53,0.0,0.0,0.0,0.0,0.0,0.0,0.0,1.1825,1.445,1.6865,1.9791,2.2201,2.3508,2.5384,2.6602,2.6849,2.8137,2.9561,3.1041,2.9913,2.9259,2.9406,2.8482,2.8448,2.949,2.9652,2.9143,2.793,2.8506,2.7378,2.4653,2.4186,2.2506,1.9772,1.8575,1.6273,1.3114,0.8296,0.3865,-0.0385,-0.4603,-0.6743,-0.7497,-0.7436,-0.7893,-0.8672,-0.9297,-1.123,-1.2738,-0.8451,-0.6941,-0.355,1.6082,2.6989,0.0,0.0,0.0,0.0,0.0,0.0,0.0,0.0,0.0,0.0,0.0,0.0,0.0,0.0,0.0,0.0,0.0,0.0,0.0,2.751,2.7602,2.7617,2.7607,2.497,2.3111,2.3129,2.3081,2.3078,2.3078,2.2298,2.1791,2.169,2.0204,1.94,1.9493,1.8844,1.8682,1.9033,1.8889,1.8436,1.7697,1.7476,1.6976,1.6271,1.6271,0.0,1.833,1.833,1.9049,2.0322,2.041,2.0439,2.0517,2.141,2.2328,2.3294,2.3891,2.4264,2.4564,2.5804,2.6233,2.6245,0.0,0.0,0.0,0.0,0.0,0.0,0.0,0.9849,1.2485,1.5394,1.8177,2.066,2.2807,2.4129,2.5383,2.6935,2.7758,2.8774,3.0212,2.9537,2.892,2.8525,2.7919,2.7913,2.8488,2.8488,2.7475,2.5371,2.5329,2.461,2.3065,2.1351,1.9659,1.7908,1.5981,1.4089,1.2048,0.8001,0.5061,0.2803,-0.1483,-0.3115,-0.3165,-0.3146,-0.3123,-0.3174,-0.3167,-0.4417,-0.5197,0.1044,0.4499,0.8685,2.3056,3.0358,3.3608,0.0,0.0,0.0,0.0,0.0,0.0,0.0,0.0,0.0,0.0,0.0,0.0,0.0,0.0,2.7584,2.7573,0.0,2.7584,2.7573,2.7593,2.7584,2.7587,2.6318,2.4957,2.3966,2.3395,2.3078,2.3078,2.3022,2.2797,2.2333,2.172,2.1297,2.1054,2.0663,2.0292,2.0053,2.0063,1.9548,1.8609,1.8609,1.8369,1.7823,1.7823,1.8239,1.891,1.891,1.9259,1.9941,2.0146,2.0539,2.1135,2.2826,2.3818,2.4337,2.5358,2.5441,2.5158,2.6094,2.6533,2.6533,0.0,0.0,0.0,0.0,0.0,0.0,0.0,0.8009,1.0749,1.4644,1.6859,1.908,2.1784,2.2701,2.4321,2.7328,2.7585,2.7768,2.815,2.8734,2.8345,2.6792,2.6722,2.6735,2.6754,2.6089,2.4557,2.208,2.2125,2.2088,2.2005,1.8512,1.7292,1.7796,1.401,1.2322,1.2013,0.7988,0.627,0.6038,0.2581,0.0703,0.0078,0.0935,0.0701,0.0,0.0,0.0,0.0619,0.4857,0.9437,1.4875,2.3149,2.8256,3.1815,3.4978,3.5762,0.0,0.0,0.0,0.0,0.0,0.0,0.0,0.0,2.831,2.8169,2.7716,2.7613,2.7579,2.7595,2.76,2.7585,2.761,2.7625,2.77,2.7961,2.772,2.6992,2.554,2.4301,2.3606,2.3682,2.3941,2.389,2.314,2.3341,2.3203,2.2617,2.2411,2.204,2.1375,2.1161,2.0669,1.9816,1.9679,1.9541,1.9541,1.9541,1.9541,1.9531,1.9742,1.9816,1.9836,2.0396,2.1197,2.2244,2.4174,2.5087,2.537,2.6164,2.6013,2.537,2.6164,2.6533,2.6533,0.0,0.0,0.0,0.0,0.0,0.0,0.0,0.0,1.0733,1.4702,1.6857,1.8121,1.8532,2.1267,2.4275,2.7356,2.7579,2.6491,2.3944,2.6311,2.6541,2.3725,2.3619,2.3573,2.3626,2.0603,1.893,1.8557,1.8589,1.8573,1.8516,1.4728,1.4759,1.7831,1.4042,1.2265,1.2011,0.8009,0.6263,0.6278,0.5802,0.3355,0.0389,0.4146,0.3279,0.0,0.0,0.0,0.0613,0.4908,1.1224,1.7561,1.8695,2.467,3.1791,3.4697,3.5747,3.5845,3.5438,3.3294,3.1124,3.0857,3.0816,3.0807,0.0,3.0794,3.0202,2.806,2.7597,2.7581,2.759,2.7588,2.7613,2.7615,2.7625,2.8006,2.9191,2.8243,2.7561,2.7911,2.6435,2.5501,2.5722,2.5103,2.4668,2.4591,2.3886,2.3649,2.3975,2.3223,2.2921,2.3201,2.2317,2.1805,2.173,2.0861,2.042,2.042,2.042,2.042,2.0497,2.1298,2.173,2.1741,2.2668,2.3666,2.4637,2.4909,2.5511,2.6314,2.6452,2.6452,2.6383,2.6452,2.6533,2.6533,0.0,0.0,0.0,0.0,0.0,0.0,0.0,0.0,0.0,1.2994,1.4166,1.5498,1.7784,1.9296,2.0637,2.191,2.3801,2.3577,2.0358,2.3169,2.3505,2.0255,2.0127,2.0135,2.0107,1.8726,1.7979,1.7978,1.5764,1.4669,1.4656,1.3031,1.3177,1.4595,1.3018,1.2331,1.2037,0.7973,0.628,0.6271,0.6274,0.524,0.3898,0.5643,0.5165,0.3661,0.3653,0.3639,0.0,0.8427,1.3453,1.8349,2.0357,2.4696,2.9811,3.3451,3.5082,3.5681,3.5535,3.462,3.3291,3.163,3.1185,3.119,3.119,3.1191,3.0904,2.9927,2.8592,2.8011,2.9454,2.8543,2.7883,2.8629,2.8763,2.9033,2.9841,2.9445,2.9163,2.9554,2.8511,2.734,2.6206,2.6073,2.5846,2.5272,2.5227,2.5296,2.5529,2.5172,2.4767,2.4409,2.3963,2.3441,2.285,2.2489,2.2264,2.2264,2.2264,2.2264,2.2264,2.2702,2.285,2.2925,2.3963,2.4636,2.5087,2.5664,2.6094,2.6533,2.6533,2.6782,2.7162,2.6658,2.6533,2.6589,0.0,0.0,0.0,0.0,0.0,0.0,0.0,0.0,0.0,0.0,1.2328,1.3737,1.7598,1.8012,1.7991,1.7996,2.0235,2.0669,1.8166,2.032,2.0586,1.809,1.8001,1.8015,1.7978,1.6992,1.6399,1.6394,1.363,1.2305,1.2303,1.2267,1.2328,1.2305,1.2271,1.1719,1.0447,0.7503,0.6283,0.6338,0.6271,0.6338,0.6318,0.6328,0.6318,0.6297,0.627,0.7015,0.8407,1.1301,1.5444,1.9986,2.3293,2.583,2.8434,3.2577,3.4605,3.5521,3.56,3.5353,3.4539,3.2448,3.1915,3.1777,3.1303,3.1176,3.1213,3.1199,2.9799,2.9231,3.1397,3.0378,2.9423,3.0064,3.0382,3.0624,3.093,3.0723,3.0637,3.0788,3.0249,2.9213,2.7441,2.7422,2.7103,2.6266,2.6595,2.6714,2.6533,2.6533,2.6164,2.5441,2.5146,2.4636,2.3891,2.3672,2.3514,2.3514,2.3514,2.3514,2.3514,2.3818,2.4036,2.4397,2.5075,2.5441,2.5441,2.6164,2.6533,2.6521,2.6714,2.7162,2.767,2.7284,2.7162,2.7297,0.0,0.0,0.0,0.0,0.0,0.0,0.0,0.0,0.0,0.0,0.0,0.0,0.0,1.8021,1.7997,1.8006,1.8094,1.8128,1.8032,1.8125,1.8103,1.8015,1.7986,1.7998,1.7975,1.4388,1.2452,1.2487,1.2328,1.2317,1.2298,1.2291,1.2291,1.2305,1.2305,1.0112,0.6507,0.6356,0.6332,0.6338,0.6338,0.6311,0.627,0.627,0.6318,0.6277,0.6317,0.8837,1.2168,1.229,1.7031,2.3472,2.654,2.7555,2.8418,3.2561,3.4619,3.5563,3.5908,3.4942,3.3825,3.3732,3.3715,3.3283,3.1585,3.1177,3.1196,3.1208,3.1146,3.1564,3.3082,3.3278,3.284,3.1725,3.2272,3.2885,3.2846,3.2101,3.1559,3.1477,3.1452,3.1116,3.0271,2.94,2.8593,2.771,2.7657,2.7284,2.6521,2.6533,2.6465,2.6452,2.5523,2.5016,2.4933,2.3963,2.3514,2.3514,2.3514,2.3514,2.3514,2.4492,2.5511,2.6383,2.6452,2.6452,2.6452,2.6465,2.6533,2.6589,2.7351,2.767,2.7802,2.862,2.8939,2.8939,0.0,0.0,0.0,0.0,0.0,0.0,0.0,0.0,0.0,0.0,0.0,0.0,0.0,0.0,0.0,0.0,1.8021,1.8033,1.7997,1.8014,1.7992,1.7985,1.7992,1.7986,1.8033,1.4237,1.2267,1.2311,1.2311,1.2331,1.2305,1.2305,1.2305,1.2311,1.2289,1.1546,1.0116,0.7456,0.6307,0.6338,0.6338,0.6328,0.6553,0.9259,1.0297,1.0312,0.0,1.2811,1.6448,1.8664,2.1088,2.3618,2.6671,2.8714,3.047,3.3042,3.4623,3.5562,3.5918,3.548,3.4943,3.4924,3.4377,3.3651,3.3063,3.2029,3.121,3.1206,3.1964,3.2734,3.2883,3.3038,3.3061,3.2878,3.2805,3.2899,3.3284,3.2714,3.2284,3.2241,3.1796,3.1409,3.1087,3.0329,2.9504,2.862,2.8556,2.8182,2.7351,2.7284,2.704,2.6521,2.6164,2.6025,2.6025,2.5652,2.5499,2.5499,2.5499,2.5499,2.5499,2.5873,2.6164,2.6521,2.704,2.7284,2.7351,2.792,2.8182,2.8182,2.8427,2.8939,2.9442,2.9766,3.0208,3.0584,0.0,0.0,0.0,0.0,0.0,0.0,0.0,0.0,0.0,0.0,0.0,0.0,0.0,0.0,0.0,0.0,0.0,1.5948,1.5982,1.5973,1.5994,1.5945,1.5945,1.5959,1.5931,1.3578,1.2317,1.2305,1.2305,1.2305,1.2305,1.2331,1.2331,1.2311,1.228,1.1526,0.996,0.7395,0.6321,0.6338,0.6338,0.72,0.8698,1.1294,1.2329,0.0,1.3077,1.5715,1.9551,2.3382,2.4378,2.4412,2.7328,2.9833,3.1975,3.3634,3.466,3.5398,3.5866,3.5782,3.5573,3.5513,3.4964,3.4306,3.3876,3.2949,3.217,3.2389,3.2965,3.3488,3.3613,3.3584,3.3684,3.416,3.3917,3.373,3.3922,3.3582,3.3251,3.2986,3.2788,3.2512,3.2228,3.2018,3.1202,2.9594,2.9442,2.9066,2.8247,2.8182,2.7802,2.6973,2.6905,2.6782,2.6533,2.6533,2.6658,2.6905,2.6658,2.6658,2.6905,2.6658,2.6658,2.6973,2.7484,2.7855,2.8247,2.8748,2.9002,2.9002,2.9317,2.9827,3.0329,3.0644,3.1087,3.1409,0.0,0.0,0.0,0.0,0.0,0.0,0.0,0.0,0.0,0.0,0.0,0.0,0.0,0.0,0.0,0.0,0.0,0.0,1.2412,1.2318,1.2278,1.2315,1.2301,1.2298,1.2303,1.2303,1.2298,1.2277,1.2264,1.2331,1.2264,1.233,1.2162,1.1996,1.2205,1.0041,0.6284,0.6329,0.6297,0.6338,0.65,0.8928,1.2296,1.2283,1.2322,1.2693,1.4566,1.7525,2.1241,2.579,2.659,2.6078,2.8735,3.0938,3.284,3.4288,3.4823,3.509,3.5805,3.5855,3.5667,3.5526,3.5488,3.5229,3.4154,3.3879,3.4008,3.4536,3.4181,3.4036,3.5104,3.4915,3.482,3.5504,3.5622,3.5379,3.4785,3.469,3.4448,3.3832,3.4338,3.4489,3.3706,3.4286,3.3597,3.0758,3.0491,3.0097,2.917,2.9107,2.8712,2.7802,2.7802,2.7417,2.6658,2.6658,2.704,2.7736,2.6973,2.704,2.7736,2.6973,2.704,2.7802,2.7802,2.8298,2.9066,2.9129,2.9129,2.9192,3.0011,3.0329,3.045,3.1278,3.1582,3.1582,0.0,0.0,0.0,0.0,0.0,0.0,0.0,0.0,0.0,0.0,0.0,0.0,0.0,0.0,0.0,0.0,0.0,0.0,1.3599,1.2797,1.2324,1.2338,1.2331,1.2273,1.2312,1.2312,1.2279,1.2296,1.2267,1.2286,1.2261,1.2329,1.0721,0.7961,1.0983,1.004,0.6332,0.63,0.6328,0.6574,0.954,1.1407,1.2292,1.23,1.3237,1.4514,1.5,1.7227,2.0366,2.3123,2.599,2.8784,3.1001,3.251,3.3623,3.4465,3.5077,3.5573,3.5921,3.5884,3.5729,3.5543,3.5496,3.5487,3.5461,3.5101,3.4869,3.5273,3.5366,3.5357,3.5322,3.5618,3.5831,3.5616,3.5622,3.5763,3.6182,3.5773,3.5547,3.5956,3.572,3.546,3.5243,3.5418,3.4983,3.3717,3.3006,3.2115,3.0697,3.0668,3.0017,2.8698,2.8684,2.8556,2.8363,2.8363,2.8492,2.8684,2.8427,2.8492,2.8684,2.8427,2.8492,2.8684,2.938,2.9766,3.0011,3.0644,3.0837,3.0896,3.1087,3.1219,3.1278,3.2048,3.2327,3.2382,0.0,0.0,0.0,0.0,0.0,0.0,0.0,0.0,0.0,0.0,0.0,0.0,0.0,0.0,0.0,0.0,0.0,0.0,0.0,1.3447,1.3113,1.3127,1.3074,1.3074,1.3121,1.3121,1.3087,1.3087,1.1039,0.99,0.9682,0.968,0.8456,0.6397,0.869,0.8383,0.6304,0.6517,0.6621,0.0,0.0,1.1551,1.1926,1.3258,1.4215,1.4956,1.6217,1.8942,2.2323,2.4465,2.7384,3.032,3.1674,3.286,3.3833,3.4506,3.5096,3.5574,3.5805,3.5857,3.5791,3.5626,3.5573,3.5649,3.6045,3.5788,3.5669,3.647,3.6457,3.6346,3.6429,3.6427,3.6308,3.6028,3.6072,3.6282,3.6721,3.6726,3.6802,3.7203,3.7217,3.7088,3.6685,3.6961,3.6828,3.6143,3.4796,3.3457,3.2261,3.2185,3.1492,3.0037,2.9946,2.9631,2.9002,2.9002,2.9192,2.9566,2.9192,2.9192,2.9566,2.9192,2.9192,2.9566,3.0072,3.0524,3.0837,3.1278,3.1482,3.1524,3.1853,3.1951,3.2064,3.2788,3.3039,3.3093,0.0,0.0,0.0,0.0,0.0,0.0,0.0,0.0,0.0,0.0,0.0,0.0,0.0,0.0,0.0,0.0,0.0,0.0,0.0,0.0,0.0,1.409,1.4065,1.3783,1.3154,1.3804,1.3777,1.3137,0.9127,0.6855,0.644,0.6368,0.644,0.6413,0.6401,0.6414,0.6473,0.6936,0.7465,0.8143,0.9635,1.0854,1.2067,0.0,1.5296,1.5306,1.8283,2.1895,2.5582,2.7765,2.9583,3.0997,3.1582,3.2603,3.3744,3.4532,3.5017,3.535,3.5624,3.5808,3.588,3.5749,3.5732,3.5905,3.6367,3.633,3.6566,3.7797,3.7477,3.7151,3.7767,3.7281,3.6719,3.6572,3.6816,3.708,3.7106,3.7635,3.8091,3.8176,3.8751,3.8858,3.816,3.8669,3.8745,3.7978,3.6289,3.479,3.3849,3.3681,3.2939,3.1438,3.1362,3.075,2.9331,2.9317,2.969,3.045,2.969,2.9752,3.045,2.969,2.9766,3.045,3.045,3.0896,3.164,3.164,3.1682,3.1838,3.2477,3.2749,3.2788,3.3495,3.3735,3.3735,0.0,0.0,0.0,0.0,0.0,0.0,0.0,0.0,0.0,0.0,0.7058,0.7115,0.0,0.0,0.0,0.0,0.0,0.0,0.0,0.0,0.0,0.0,1.4092,1.2272,0.8401,1.2079,1.2167,0.8312,0.7524,0.7077,0.6949,0.695,0.6976,0.6929,0.698,0.6987,0.6947,0.704,0.9349,1.2751,1.1137,1.2296,1.4941,1.497,0.0,0.0,2.2405,2.4844,2.6736,0.0,3.0228,3.1168,3.2317,3.3107,3.3795,3.4737,3.5158,3.535,3.5624,3.5851,3.595,3.5741,3.6234,3.6852,3.7206,3.7599,3.8089,3.8749,3.8586,3.8269,3.7962,3.8312,3.8322,3.7443,3.7888,3.8453,3.8611,3.8717,3.9039,3.9631,3.9817,3.9834,3.9716,3.9817,3.9558,3.8745,3.8406,3.7319,3.5334,3.4636,3.3692,3.2348,3.2243,3.1871,3.1102,3.1087,3.1161,3.1278,3.1161,3.1161,3.1278,3.1161,3.1161,3.1278,3.1278,3.1724,3.2437,3.2437,3.2734,3.3235,3.3391,3.3443,3.3495,3.4186,3.4431,3.4496,0.0,0.0,0.0,0.0,0.0,0.0,0.0,0.0,0.4304,0.6732,0.7081,0.7058,0.7112,0.7061,0.0,0.0,0.0,0.0,0.0,0.0,0.0,0.0,0.0,0.0,1.0826,1.2906,1.1837,0.7114,0.0,0.7107,0.7132,0.7062,0.8369,1.0655,0.8215,0.7079,0.7107,0.7107,0.8854,1.1601,1.0868,1.2318,1.4911,0.0,0.0,0.0,0.0,2.674,2.8873,3.0527,3.2039,3.3229,3.3273,3.3681,3.4282,3.4925,3.529,3.5546,3.5677,3.5845,3.605,3.6306,3.6689,3.7258,3.8212,3.8499,3.8691,3.9245,3.9117,3.8907,3.8944,3.9023,3.9086,3.8954,3.9108,3.9289,3.938,3.9521,3.9681,4.0037,4.007,4.007,4.007,4.007,3.9952,3.9542,3.9139,3.8251,3.6848,3.6076,3.5195,3.4164,3.3462,3.2786,3.2048,3.1646,3.1697,3.2064,3.1682,3.1697,3.2064,3.1697,3.1682,3.2064,3.2064,3.2477,3.3145,3.3145,3.3287,3.3633,3.3987,3.4137,3.4186,3.4894,3.5098,3.5161,0.0,0.0,0.0,0.0,0.0,0.0,0.0,0.0,0.1342,0.5107,0.6459,0.7081,0.7061,0.7102,0.8591,0.0,0.0,0.0,0.0,0.0,0.0,0.0,0.0,0.0,0.0,0.0,0.0,0.8581,0.8566,0.0,0.0,0.0,0.0,0.0,0.8752,0.7397,0.7856,0.7856,0.8911,0.0,0.0,1.2662,0.0,0.0,0.0,0.0,0.0,2.8397,3.0814,3.2262,3.3848,3.5078,3.4522,3.4674,3.5059,3.5171,3.5438,3.571,3.5749,3.6007,3.6382,3.6884,3.7284,3.7849,3.9036,3.9176,3.9164,3.9535,3.9339,3.925,3.981,3.9695,3.9749,4.042,4.0481,4.0333,4.0082,4.0168,4.0254,4.0121,4.007,4.007,4.007,4.007,4.007,4.007,3.9489,3.8761,3.7879,3.7319,3.6651,3.5873,3.4898,3.3929,3.2996,3.2421,3.241,3.2788,3.2216,3.2256,3.2788,3.2201,3.2272,3.2788,3.2788,3.3182,3.3836,3.3836,3.3887,3.4087,3.4592,3.4783,3.4894,3.5407,3.5622,3.5622,0.0,0.0,0.0,0.0,0.0,0.0,0.0,0.0,0.0179,0.0626,0.4387,0.7094,0.7084,0.7112,0.725,0.0,0.0,0.0,0.0,0.0,0.0,0.0,0.0,0.0,0.0,0.0,0.0,1.3461,1.3484,0.0,0.0,0.0,0.0,0.0,0.0,0.8257,1.0285,1.0285,0.0,0.0,0.0,0.0,0.0,0.0,0.0,0.0,0.0,3.0243,3.1522,3.3835,3.4746,3.5073,3.6367,3.6499,3.6069,3.5681,3.5629,3.5723,3.5845,3.6513,3.7144,3.7021,3.8179,3.9353,3.9306,3.9653,3.9907,3.9649,3.9339,3.925,3.981,4.0455,4.1003,4.127,4.1949,4.2055,4.0937,4.0822,4.0655,4.0171,4.007,4.007,4.007,4.007,4.007,4.007,4.002,3.9332,3.7863,3.7758,3.7406,3.6678,3.659,3.5879,3.451,3.4431,3.4117,3.3495,3.3427,3.3427,3.3495,3.3427,3.3427,3.3495,3.3495,3.3887,3.4528,3.4528,3.4847,3.5424,3.547,3.5515,3.5515,3.5577,3.5622,3.5622,0.0,0.0,0.0,0.0,0.0,0.0,0.0,0.0,0.0,0.0,0.4109,0.7084,0.7068,0.7129,0.7102,0.0,0.0,0.0,0.0,0.0,0.0,0.0,0.0,0.0,0.0,0.0,1.4142,1.4142,1.4097,0.0,0.0,0.0,0.0,0.0,0.0,1.0477,1.1316,1.085,0.0,0.0,0.0,0.0,0.0,0.0,0.0,0.0,0.0,0.0,3.3324,3.5019,3.6346,3.7279,3.7689,3.7966,3.7967,3.7356,3.7219,3.73,3.7375,3.7745,3.816,3.8481,3.9093,3.9664,3.9962,4.0194,4.0194,3.9712,3.9876,4.024,4.0578,4.1277,4.1999,4.2575,4.2666,4.2519,4.2038,4.1664,4.1223,4.0655,4.0577,4.0449,4.0121,4.007,4.007,4.007,4.007,3.985,3.9226,3.9172,3.8863,3.8101,3.7693,3.6831,3.5294,3.4915,3.4546,3.4186,3.3786,3.3836,3.4186,3.3786,3.3836,3.4186,3.4186,3.4592,3.5207,3.5207,3.5362,3.5622,3.5622,3.5622,3.5622,3.5622,3.5622,3.5622,0.0,0.0,0.0,0.0,0.0,-0.1611,-0.0179,0.0,0.0536,0.1874,0.5006,0.7078,0.7064,0.7143,0.7122,0.7075,0.0,0.0,0.0,0.0,0.0,0.0,0.0,0.0,0.0,0.0,1.4088,1.4088,1.4088,1.4088,0.0,0.0,1.2985,1.0942,0.0,0.0,0.0,0.0,0.0,0.0,0.0,0.0,0.0,0.0,0.0,0.0,0.0,0.0,0.0,0.0,0.0,3.871,3.8799,0.0,0.0,3.8496,3.8255,3.8319,3.8427,3.8726,3.9077,3.9494,3.9782,4.0053,4.0424,4.0489,4.0353,3.9861,4.0306,4.0884,4.1176,4.1801,4.2561,4.3369,4.3178,4.2902,4.2711,4.2342,4.1853,4.1223,4.1178,4.1013,4.0642,4.0594,4.0594,4.0594,4.0594,4.0594,4.0594,4.0417,4.0003,3.9262,3.885,3.8011,3.6678,3.5961,3.5497,3.5226,3.4546,3.4447,3.4894,3.4399,3.4447,3.4894,3.4894,3.5144,3.5622,3.5622,3.5622,3.5622,3.5622,3.5694,3.5827,3.5827,3.5941,3.6079,0.0,0.0,0.0,0.0,0.0,0.0,0.0,0.0,0.17,0.6403,0.7104,0.7084,0.7084,0.7064,0.7122,0.7075,0.0,0.0,0.0,0.0,0.0,0.0,0.0,0.0,0.0,0.0,1.4088,1.4088,1.4088,1.4088,1.4088,1.409,1.3272,1.177,0.0,0.0,0.0,0.0,0.0,0.0,0.0,0.0,0.0,0.0,0.0,0.0,0.0,0.0,0.0,0.0,0.0,0.0,0.0,0.0,0.0,0.0,3.8291,3.8332,3.8531,3.9238,3.9839,3.965,4.019,4.0742,4.054,4.0489,4.0406,4.0158,4.046,4.0961,4.1493,4.1957,4.2561,4.3369,4.3497,4.3304,4.277,4.2693,4.248,4.1853,4.181,4.181,4.1768,4.1768,4.1768,4.1768,4.1768,4.1768,4.1768,4.1223,4.0655,4.0121,4.007,3.9715,3.8988,3.8212,3.7516,3.6755,3.5932,3.5577,3.5577,3.5577,3.5577,3.5577,3.5577,3.5577,3.5622,3.5622,3.5622,3.5622,3.5622,3.5941,3.6374,3.6374,3.6724,3.7173,0.0,0.0,0.0,0.0,0.0,0.0,0.0,0.0,0.1695,0.6471,0.7084,0.7061,0.7061,0.7058,0.7122,0.7075,0.0,0.0,0.0,0.0,0.0,0.0,0.0,0.0,0.0,0.0,1.4088,1.4088,1.4088,1.4088,1.4088,1.4115,1.3848,1.3372,1.3404,1.3404,0.0,0.0,0.0,0.0,0.0,0.0,2.4637,0.0,0.0,0.0,0.0,0.0,0.0,0.0,0.0,0.0,0.0,0.0,0.0,4.0227,4.0072,4.0065,4.0308,4.0586,4.0737,4.0474,4.0599,4.0761,4.054,4.0489,4.0595,4.0864,4.1294,4.1788,4.2333,4.2802,4.3185,4.3442,4.3497,4.3444,4.325,4.325,4.305,4.248,4.2038,4.181,4.181,4.181,4.181,4.181,4.181,4.181,4.181,4.1621,4.1268,4.0655,4.0286,3.9732,3.9005,3.8278,3.7533,3.6772,3.5994,3.5622,3.5622,3.5622,3.5622,3.5622,3.5622,3.5622,3.5622,3.5622,3.5622,3.5622,3.6011,3.6266,3.6457,3.6803,3.7058,3.719,0.0,0.0,0.0,0.0,0.0,0.0,0.0,0.0,0.1691,0.6462,0.7071,0.7139,0.7139,0.7126,0.7095,0.7131,0.0,0.0,0.0,0.0,0.0,0.0,0.0,0.0,0.0,1.4088,1.4088,1.4088,1.4088,1.4088,1.4088,1.4088,1.4088,1.4088,1.4088,1.4328,0.0,0.0,0.0,0.0,0.0,0.0,2.6934,0.0,0.0,0.0,0.0,0.0,0.0,0.0,0.0,0.0,0.0,0.0,0.0,0.0,4.095,4.092,4.1149,4.1151,4.1077,4.0857,4.0788,4.0722,4.0545,4.0739,4.1091,4.1416,4.2115,4.2791,4.3126,4.3457,4.3693,4.3693,4.3563,4.3497,4.3497,4.3497,4.3375,4.305,4.2657,4.2426,4.2426,4.2426,4.2426,4.2426,4.2426,4.2426,4.2426,4.2244,4.1979,4.1578,4.1013,4.0375,3.9635,3.8877,3.8119,3.7361,3.6586,3.6207,3.6207,3.6207,3.6207,3.6207,3.6207,3.6207,0.0,3.6207,3.6207,3.6249,3.6563,3.6786,3.702,3.736,3.7596,3.7756,0.0,0.0,0.0,0.0,0.0,0.0,0.0,0.0,0.1689,0.6462,0.7071,0.7139,0.7139,0.7102,0.7232,0.7613,0.0,0.0,0.0,0.0,0.0,0.0,0.0,0.0,0.0,1.4088,1.4088,1.4088,1.4088,1.4088,1.4088,1.4166,1.425,1.425,1.425,1.4977,0.0,0.0,0.0,0.0,0.0,0.0,0.0,0.0,0.0,0.0,0.0,0.0,0.0,0.0,0.0,0.0,0.0,0.0,0.0,0.0,0.0,0.0,0.0,4.1082,4.0959,4.0836,4.0742,4.0655,4.0515,4.1162,0.0,4.1893,4.291,4.3817,4.3874,4.3962,4.4028,4.3998,4.3758,4.3513,4.3479,4.3497,4.3497,4.3497,4.3497,4.3497,4.3497,4.3497,4.3497,4.3497,4.3497,4.3497,4.3497,4.3014,4.275,4.275,4.2149,4.1428,4.0594,3.9881,3.912,3.8302,3.7562,3.719,3.719,3.719,3.719,3.719,3.719,3.719,3.719,3.719,3.719,3.721,3.7228,3.7506,3.7893,3.7946,3.8267,3.8707,0.0,0.0,0.0,0.0,0.0,0.0,0.0,0.0,0.0,0.0,0.7071,0.7139,0.7139,0.7129,0.8544,0.0,0.0,0.0,0.0,0.0,0.0,0.0,0.0,0.0,0.0,1.4088,1.4088,1.4088,1.4088,1.4088,1.4088,1.4977,1.5296,1.5379,1.6198,1.7543,0.0,0.0,0.0,0.0,0.0,0.0,0.0,0.0,0.0,0.0,3.7274,3.8236,0.0,0.0,0.0,0.0,0.0,0.0,0.0,0.0,4.1004,4.0977,4.0905,0.0,4.095,4.0772,4.0707,4.0655,0.0,0.0,0.0,0.0,0.0,4.3988,4.4677,4.46,4.4364,4.4058,4.3924,4.3804,4.3548,4.3497,4.3497,4.3497,4.3497,4.3497,4.3497,4.3497,4.3497,4.3497,4.3497,4.3497,4.3497,4.3375,4.3286,4.3286,4.2576,4.1665,4.0618,3.9881,3.912,3.8302,3.7562,3.719,3.719,3.719,3.719,3.719,3.719,3.719,3.719,3.719,3.719,3.7228,3.7578,3.779,3.7946,3.835,3.8578,3.8707,0.0,0.0,0.0,0.0,0.0,0.0,0.0,0.0,0.0,0.0,0.0,0.0,0.0,0.0,0.0,0.0,0.0,0.0,0.0,0.0,0.0,0.0,0.0,0.0,1.5553,1.5553,1.5553,1.5553,1.5553,1.5553,1.5553,1.6198,1.6437,1.6519,1.8017,1.9565,0.0,0.0,0.0,0.0,2.8324,0.0,0.0,0.0,0.0,0.0,3.7994,3.8838,0.0,4.003,4.0474,4.0867,0.0,0.0,0.0,0.0,4.0996,4.0959,4.0807,4.0807,4.0843,4.0718,4.0642,4.0582,4.0519,0.0,0.0,0.0,0.0,4.4767,4.5227,4.5052,4.4757,4.4535,4.4373,4.4165,4.3772,4.3597,4.3582,4.3693,4.3597,4.3563,4.3726,4.3597,4.3497,4.3497,4.3497,4.3497,4.3497,4.3497,4.3314,4.2947,4.2525,4.1845,4.0831,4.0076,3.9284,3.8474,3.8077,3.7895,3.7895,3.7895,3.7895,3.7895,3.7895,3.7895,3.7895,3.7895,3.7895,3.7895,3.815,3.8267,3.83,3.8578,3.8707,3.8707,0.0,0.0,0.0,0.0,0.0,0.0,0.0,0.0,0.0,0.0,0.0,0.0,0.0,0.0,0.0,0.0,0.0,0.0,0.0,0.0,0.0,0.0,0.0,1.7342,1.7342,1.7342,1.7342,1.7342,1.7342,1.7342,1.7342,1.7504,1.7738,1.8123,1.9896,2.1384,0.0,0.0,0.0,2.8082,2.9628,0.0,0.0,0.0,0.0,0.0,0.0,0.0,0.0,4.0284,4.0616,4.1,4.0994,0.0,0.0,0.0,0.0,0.0,4.0718,4.0667,4.0667,4.0667,4.0568,4.0489,4.0489,0.0,0.0,0.0,0.0,0.0,4.5586,4.5381,4.5159,4.5096,4.4825,4.4474,4.4146,4.3836,4.3791,4.4076,4.3836,4.3791,4.4058,4.3772,4.3563,4.3563,4.3513,4.3497,4.3497,4.3369,4.3002,4.2323,4.2066,4.1607,4.0928,4.023,3.9496,3.8707,3.8707,3.8707,3.8707,3.8707,3.8707,3.8707,3.8707,3.8707,3.8707,3.8707,3.8707,3.8707,3.8707,3.8707,3.8707,3.8707,3.8707,3.8707,0.0,0.0,0.0,0.0,0.0,0.0,0.0,0.0,0.0,0.0,0.0,0.0,0.0,0.0,0.0,0.0,0.0,0.0,0.0,0.0,0.0,0.0,1.831,1.7342,1.7342,1.7342,1.7342,1.7342,1.7342,1.7342,1.7334,1.831,1.964,2.1324,2.1638,2.3205,2.5607,2.5908,2.7512,3.0061,3.1851,0.0,0.0,0.0,0.0,0.0,0.0,0.0,0.0,4.0715,4.0935,4.0991,4.0991,0.0,0.0,0.0,0.0,0.0,4.0554,4.0515,4.0515,4.0515,4.0519,4.0489,4.0489,0.0,0.0,0.0,0.0,0.0,0.0,4.5568,4.5419,4.5159,4.4825,4.458,4.4527,4.4474,4.4447,4.4501,4.4474,4.4447,4.4501,4.4146,4.3924,4.3924,4.3679,4.3497,4.3497,4.2837,4.2433,4.2304,4.0983,4.0212,4.0084,3.9955,3.9496,3.8707,3.8707,3.8707,3.8707,3.8707,3.8707,3.8707,3.8707,3.8707,3.8707,3.8707,3.8707,3.8707,3.8707,3.8707,3.8707,3.8707,3.8707,3.8707,0.0,0.0,0.0,0.0,0.0,0.0,0.0,0.0,0.0,0.0,0.0,0.0,0.0,0.0,0.0,0.0,0.0,0.0,0.0,0.0,0.0,2.0557,2.011,1.9621,1.9107,1.9107,1.9107,1.9107,1.9107,1.9107,1.9107,2.0641,2.2413,2.4364,2.479,2.6181,2.8339,2.8795,3.0086,3.1943,0.0,0.0,0.0,0.0,0.0,0.0,0.0,0.0,0.0,0.0,4.1052,4.109,4.1016,0.0,0.0,0.0,0.0,0.0,4.0549,4.0489,4.0489,4.0489,4.0489,4.0489,4.0489,0.0,0.0,0.0,0.0,0.0,0.0,4.5586,4.555,4.54,4.5096,4.4872,4.4872,4.4707,4.4657,4.4849,4.4707,4.4657,4.4849,4.4535,4.4233,4.4016,4.3849,4.3693,4.3513,4.2745,4.2103,4.168,4.0506,3.968,3.9258,3.9239,3.9074,3.8707,3.8707,3.8707,3.8707,3.8707,3.8707,3.8707,3.8707,3.8707,3.8707,3.8707,3.8707,3.8707,3.8707,3.8707,3.8719,3.8855,3.8923,3.8952,0.0,0.0,0.0,0.0,0.0,0.0,0.0,0.0,0.0,0.0,0.0,0.0,0.0,0.0,0.0,0.0,0.0,0.0,0.0,0.0,2.0236,2.1562,2.2296,2.2081,2.0934,2.1155,2.1308,2.1308,2.1308,2.1364,2.1628,2.3003,2.4813,2.6863,2.7459,2.8761,3.0587,3.1366,3.2382,3.3665,0.0,0.0,0.0,0.0,0.0,0.0,0.0,0.0,0.0,0.0,0.0,0.0,0.0,0.0,0.0,4.0707,4.0642,4.0636,4.0534,4.0489,4.0489,4.0489,0.0,0.0,0.0,0.0,0.0,0.0,0.0,0.0,4.5432,4.5586,4.5586,4.5586,4.5381,4.5222,4.5222,4.4988,4.4943,4.5201,4.4988,4.4943,4.5201,4.4919,4.4606,4.429,4.4175,4.3942,4.3481,4.2691,4.1878,4.1052,4.0251,3.9531,3.8921,3.8902,3.8833,3.8707,3.8707,3.8707,3.8707,3.8707,3.8707,3.8707,3.8707,3.8707,3.8707,3.8707,3.8707,3.8707,3.8762,3.8833,3.896,3.9144,3.9212,3.9238,0.0,0.0,0.0,0.0,0.0,0.0,0.0,0.0,0.0,0.0,0.0,0.0,0.0,0.0,0.0,0.0,0.0,0.0,0.0,0.0,2.2529,2.4436,2.4578,2.3754,2.1952,2.2776,2.3294,2.3294,2.3294,2.3677,2.4507,2.4649,2.5983,2.8324,2.8436,2.9867,3.2183,3.2719,3.3632,3.4844,3.6553,0.0,0.0,0.0,0.0,0.0,0.0,0.0,0.0,0.0,0.0,0.0,0.0,0.0,4.0684,4.0559,4.0519,4.0519,4.0504,4.0489,4.0489,4.0489,4.0489,0.0,4.0489,4.1162,0.0,4.2912,0.0,0.0,4.5432,4.5586,4.5586,4.5586,4.5586,4.5568,4.5568,4.5531,4.555,4.5568,4.5531,4.555,4.5568,4.5263,4.5052,4.5011,4.4732,4.4188,4.3344,4.2561,4.1707,4.0835,4.0032,3.9585,3.9529,3.9529,3.9268,3.8707,3.8707,3.8707,3.8707,3.8707,3.8707,3.8707,3.8707,3.8707,3.8707,3.8707,3.8707,3.8719,3.8971,3.9257,3.9529,3.9552,3.9576,3.9576,0.0,0.0,0.0,0.0,0.0,0.0,0.0,0.0,0.0,0.0,0.0,0.0,0.0,0.0,0.0,0.0,0.0,0.0,0.0,0.0,2.5456,2.6181,2.7247,2.7464,2.6726,2.5673,2.5105,2.5105,2.5536,2.6435,2.7796,2.8671,2.9856,3.1393,3.2485,3.3686,3.4992,3.5471,3.6344,3.7467,3.8223,3.9136,0.0,0.0,0.0,0.0,0.0,0.0,0.0,0.0,4.25,4.2381,4.1729,4.1505,4.1383,4.0703,4.0489,4.0489,4.0489,4.0489,4.0489,4.0489,4.0489,0.0,0.0,4.0739,4.1393,4.2816,4.3335,4.397,4.5336,4.5586,4.5586,4.5586,4.5586,4.5586,4.5586,4.5586,4.5586,4.5586,4.5586,4.5586,4.5586,4.5495,4.5322,4.5137,4.4471,4.3872,4.3335,4.2027,4.1141,4.0796,4.0033,3.9599,3.9599,3.9599,3.95,3.9268,3.9268,3.9268,3.9268,3.9268,3.9268,3.9268,3.9268,3.9268,3.9268,3.9268,3.9268,3.9268,3.9383,3.9505,3.9622,3.9819,3.9901,3.9943,0.0,0.0,0.0,0.0,0.0,0.0,0.0,0.0,0.0,0.0,0.0,0.0,0.0,0.0,0.0,0.0,0.0,0.0,2.7948,2.8216,2.8524,2.8969,3.0231,3.1031,3.135,2.9884,2.8689,2.7908,2.8535,2.961,3.1121,3.199,3.3159,3.4418,3.5601,3.6486,3.7124,3.757,3.8282,3.9123,3.9538,4.0471,0.0,0.0,0.0,0.0,0.0,0.0,0.0,0.0,4.3335,4.3218,4.2563,4.2356,4.2212,4.1517,4.1123,4.0912,4.0912,4.07,4.0489,4.0489,0.0,0.0,4.0489,4.0489,4.0912,4.2393,4.3104,4.3912,4.5336,4.5586,4.5586,4.5586,4.5586,4.5586,4.5586,4.5586,4.5586,4.5586,4.5586,4.5586,4.5586,4.5336,4.5091,4.4861,4.4057,4.3344,4.2845,4.174,4.0981,4.0696,4.0167,3.9884,3.9884,3.9884,3.9884,3.9884,3.9884,3.9778,3.9599,3.9599,3.9599,3.9599,3.9599,3.9599,3.9599,3.9599,3.9668,3.9754,3.9754,3.98,3.9905,4.0139,4.0213,4.025,0.0,0.0,0.0,0.0,0.0,0.0,0.0,0.0,0.0,0.0,0.0,0.0,0.0,0.0,0.0,0.0,0.0,0.0,2.8547,3.0032,3.1558,3.3086,3.3598,3.4226,3.5098,3.5459,3.4387,3.1834,3.2403,3.3221,3.4346,3.4329,3.5367,3.7213,3.7224,3.7573,3.8249,3.8777,3.9139,3.939,4.0407,4.1209,4.1871,0.0,0.0,0.0,0.0,0.0,0.0,0.0,4.3215,4.3208,4.3131,4.3104,4.3104,4.3104,4.2489,4.1816,4.1816,4.1181,4.0508,4.0508,0.0,0.0,4.0489,4.0489,4.0739,4.1623,4.3124,4.4566,4.5432,4.5586,4.5586,4.5586,4.5586,4.5586,4.5586,4.5586,4.5586,4.5586,4.5586,4.5586,4.5586,4.4797,4.4297,4.4297,4.3547,4.272,4.1854,4.1797,4.1393,4.0527,4.0489,4.0489,4.0489,4.0489,4.0489,4.0489,4.0489,4.0175,3.9599,3.9599,3.9599,3.9599,3.9599,3.9599,3.9599,3.9599,3.9797,4.0101,4.0101,4.0269,4.0489,4.0489,4.0489,4.0489,0.0,0.0,0.0,0.0,0.0,0.0,0.0,0.0,0.0,0.0,0.0,0.0,0.0,0.0,0.0,0.0,0.0,0.0,3.28,3.3801,3.4796,3.5854,3.6486,3.6933,3.7198,3.7711,3.7176,3.5523,3.5719,3.6267,3.7057,3.7415,3.7904,3.8499,3.9012,3.9228,3.9204,3.9666,4.0093,4.0526,4.0877,4.177,4.2969,0.0,0.0,0.0,0.0,0.0,0.0,0.0,0.0,0.0,4.371,4.3578,4.3522,4.3208,4.2912,4.272,4.272,4.2085,4.1412,4.1412,4.095,4.0489,0.0,4.0489,0.0,0.0,4.3124,4.4374,4.4643,4.5182,4.5586,4.5586,4.5586,4.5586,4.5586,4.5586,4.5586,4.5586,4.5047,4.4682,4.4682,4.3932,4.3451,4.3451,4.2681,4.2066,4.1816,4.1219,4.0758,4.0508,4.0489,4.0489,4.0489,4.0489,4.0489,4.0489,4.0489,4.0406,4.0229,4.0229,4.0229,4.0229,4.0229,4.0229,4.0229,4.0229,4.0302,4.0372,4.0372,4.0441,4.0489,4.0489,4.0489,4.0489,0.0,0.0,0.0,0.0,0.0,0.0,0.0,0.0,0.0,0.0,0.0,0.0,0.0,0.0,0.0,0.0,0.0,0.0,0.0,0.0,3.7067,3.7887,3.8502,3.8851,3.8923,3.9254,3.9071,3.8289,3.8239,3.8472,3.8948,3.9151,3.9318,3.948,3.9824,3.9741,3.9383,3.9618,3.9945,4.0307,4.0514,4.1462,4.2709,0.0,0.0,0.0,0.0,0.0,0.0,0.0,0.0,0.0,4.4218,4.4136,4.3988,4.3365,4.3025,4.2793,4.2467,4.1846,4.1277,4.1277,4.0893,4.0489,4.0489,4.0489,4.0739,4.1623,4.2604,4.3412,4.3758,4.4239,4.4605,4.4605,4.4605,4.4605,4.4605,4.4605,4.4605,4.4605,4.4143,4.3816,4.3816,4.3066,4.2585,4.2585,4.1777,4.1277,4.1277,4.0777,4.0489,4.0489,4.0489,4.0489,4.0489,4.0489,4.0489,4.0489,4.0489,4.0489,4.0489,4.0489,4.0489,4.0489,4.0489,4.0489,4.0489,4.0489,4.0489,4.0489,4.0489,4.0489,4.0489,4.0489,4.0489,4.0489,0.0,0.0,0.0,0.0,0.0,0.0,0.0,0.0,0.0,0.0,0.0,0.0,0.0,0.0,0.0,0.0,0.0,0.0,0.0,0.0,3.848,3.9207,3.9644,3.9962,4.0162,4.0102,4.0078,4.0067,3.9931,3.9953,4.0064,3.9785,3.9817,4.0072,3.9809,3.9385,3.8874,3.8812,3.8943,3.9254,3.9626,4.0528,4.1663,4.2083,0.0,0.0,0.0,0.0,0.0,0.0,0.0,0.0,4.4527,4.4553,4.4403,4.3643,4.3046,4.2444,4.1721,4.107,4.0623,4.0623,4.0546,4.0489,4.0489,4.0489,4.0719,4.1527,4.1739,4.2047,4.2835,4.3047,4.3104,4.3104,4.3104,4.3104,4.3104,4.3104,4.3104,4.3104,4.3028,4.2989,4.2989,4.22,4.1681,4.1681,4.095,4.0489,4.0489,4.0489,4.0489,4.0489,4.0489,4.0489,4.0489,4.0489,4.0489,4.0489,4.0489,4.0489,4.0489,4.0489,4.0489,4.0489,4.0489,4.0489,4.0489,4.0489,4.0489,4.0489,4.0489,4.0489,4.0489,4.0489,4.0489,4.0489,0.0,0.0,0.0,0.0,0.0,0.0,0.0,0.0,0.0,0.0,0.0,0.0,0.0,0.0,0.0,0.0,0.0,0.0,0.0,0.0,3.8907,3.9484,3.9613,3.9739,3.9875,3.9871,3.9857,3.9865,4.031,4.0285,3.9874,4.002,3.9783,3.9242,3.9082,3.8596,3.7872,3.7332,3.8008,3.9412,3.8966,3.9988,4.1787,4.1861,4.1955,0.0,0.0,0.0,0.0,0.0,0.0,0.0,4.3918,4.4117,4.4138,4.4275,4.3933,4.3474,4.3302,4.2412,4.1527,4.1527,4.1008,4.0489,4.0489,4.0489,4.0546,4.0739,4.1316,4.1873,4.2047,4.2643,4.3104,4.3104,4.3104,4.3104,4.3104,4.3104,4.3104,4.3104,4.2508,4.2085,4.2085,4.1296,4.0777,4.0777,4.0604,4.0489,4.0489,4.0489,4.0489,4.0489,4.0489,4.0489,4.0489,4.0489,4.0489,4.0489,4.0489,4.0489,4.0489,4.0489,4.0489,4.0489,4.0489,4.0489,4.0489,4.0489,4.0489,4.0489,4.0489,4.0489,4.0489,4.0489,4.0489,4.0489,0.0,0.0,0.0,0.0,0.0,0.0,0.0,0.0,0.0,0.0,0.0,0.0,0.0,0.0,0.0,0.0,0.0,0.0,0.0,0.0,0.0,3.8999,3.8969,3.8948,3.9032,3.9012,3.8927,3.876,3.9222,3.9533,3.9691,3.918,3.8877,3.8689,3.823,3.7659,3.6976,3.6638,3.7146,3.8151,3.7764,3.8522,3.99,3.99,4.0114,4.0408,4.0408,0.0,0.0,0.0,0.0,0.0,0.0,0.0,4.3656,4.3074,4.2827,4.261,4.1961,4.1397,4.1029,4.1149,4.0835,4.0489,4.0489,4.0489,4.0489,4.0489,4.0854,4.1181,4.1181,4.1546,4.1854,4.1854,4.1854,4.1854,4.1854,4.1854,4.1854,4.1854,4.145,4.1181,4.1181,4.0758,4.0534,4.0582,4.0549,4.0534,4.0582,4.053,4.0489,4.0489,4.0489,4.0489,4.0489,4.0489,4.0489,4.0489,4.0489,4.0489,4.0489,4.0489,4.0489,4.0489,4.0489,4.0489,4.0489,4.0489,4.0489,4.0489,4.0489,4.0489,4.0504,4.0574,4.0559,4.05,0.0,0.0,0.0,0.0,0.0,0.0,0.0,0.0,0.0,0.0,0.0,0.0,0.0,0.0,0.0,0.0,0.0,0.0,0.0,0.0,0.0,3.778,3.7579,3.7514,3.7665,3.7603,3.751,3.7345,3.7546,3.8175,0.0,3.8081,3.776,3.8016,3.7234,3.6649,3.6259,3.6013,3.6191,3.6713,3.6557,3.7011,3.7822,3.7822,3.8189,3.8745,3.8854,3.9596,4.0603,4.081,0.0,0.0,0.0,0.0,4.2862,4.1501,4.1231,4.1148,4.0015,3.9911,4.0158,4.0422,4.0489,4.0489,4.0489,4.0489,4.0489,4.0489,4.0489,4.0489,4.0489,4.0489,4.0489,4.0489,4.0489,4.0489,4.0489,4.0489,4.0489,4.0489,4.0489,4.0489,4.0489,4.0519,4.0568,4.0692,4.0604,4.0604,4.0707,4.0617,4.054,4.053,4.053,4.0515,4.0489,4.0489,4.0489,4.0489,4.0489,4.0519,4.053,4.0504,4.0489,4.0489,4.0489,4.0489,4.0504,4.0515,4.053,4.0549,4.054,4.0554,4.0568,4.0672,4.0655,4.0577,0.0,0.0,0.0,0.0,0.0,0.0,0.0,0.0,0.0,0.0,0.0,0.0,0.0,0.0,0.0,0.0,0.0,0.0,0.0,0.0,0.0,3.5459,3.4805,3.4718,3.5521,3.5505,3.5742,3.6289,3.5956,0.0,0.0,0.0,0.0,3.6649,3.5942,3.5647,3.5639,3.439,3.499,3.6645,3.5995,3.6589,3.7822,3.7822,3.7863,3.8035,3.869,3.9016,3.9354,4.0508,4.0995,0.0,0.0,0.0,4.1615,4.1199,4.0806,4.0412,4.0244,4.0146,4.0158,4.0422,4.0489,4.0489,4.0489,4.0489,4.0489,4.0489,4.0489,4.0489,4.0489,4.0489,4.0489,4.0489,4.0489,4.0489,4.0489,4.0489,4.0489,4.0489,4.0489,4.0489,4.0489,4.0596,4.068,4.0692,4.0742,4.076,4.0796,4.076,4.0723,4.0667,4.0667,4.0623,4.0504,4.0489,4.0489,4.0489,4.0489,4.0559,4.0667,4.0545,4.0489,4.0489,4.0489,4.0489,4.0504,4.0623,4.0667,4.068,4.0733,4.0751,4.076,4.0768,4.0788,4.076,0.0,0.0,0.0,0.0,0.0,0.0,0.0,0.0,0.0,0.0,0.0,0.0,0.0,0.0,0.0,0.0,0.0,0.0,0.0,0.0,0.0,3.2764,3.2442,3.2426,3.2764,3.3267,3.368,3.3973,0.0,0.0,0.0,3.5694,3.5899,0.0,0.0,0.0,3.448,3.4606,3.4968,3.5483,3.5522,3.5922,3.6523,3.6507,3.6761,3.7262,3.8004,3.8525,3.9069,4.0086,4.038,4.0301,4.0461,0.0,0.0,0.0,4.002,4.0063,3.9956,3.9996,4.0158,4.0422,4.0489,4.0489,4.0489,4.0489,4.0489,4.0489,4.0489,4.0489,4.0489,4.0489,4.0489,4.0489,4.0489,4.0489,4.0489,4.0489,4.0489,4.0489,4.0489,4.0534,4.0596,4.0674,4.0751,4.0867,4.0828,4.0824,4.0914,4.085,4.0796,4.0762,4.0762,4.071,4.061,4.061,4.061,4.061,4.061,4.066,4.0762,4.0682,4.0668,4.0668,4.063,4.0623,4.0679,4.0732,4.0762,4.0762,4.0796,4.0801,4.0809,4.0877,4.0864,4.0816,0.0,0.0,0.0,0.0,0.0,0.0,0.0,0.0,0.0,0.0,0.0,0.0,0.0,0.0,0.0,0.0,0.0,0.0,0.0,0.0,0.0,3.0485,3.0294,3.0294,3.0485,3.1108,3.1663,3.2066,0.0,0.0,3.3582,3.3937,3.4284,0.0,3.4284,3.3987,0.0,0.0,0.0,3.4546,3.5042,3.5223,0.0,0.0,3.5355,0.0,0.0,3.7915,3.852,3.9496,3.9737,3.956,3.9299,3.9488,0.0,0.0,0.0,3.9607,3.9602,3.9775,4.0062,4.0406,4.0489,4.0489,4.0489,4.0489,4.0489,4.0489,4.0489,4.0489,4.0489,4.0489,4.0489,4.0489,4.0489,4.0489,4.0489,4.0489,4.0489,4.0489,4.0534,4.0582,4.0692,4.0751,4.0843,4.0988,4.095,4.095,4.1049,4.0955,4.0896,4.0857,4.0857,4.0805,4.074,4.074,4.0718,4.0703,4.0718,4.0771,4.0857,4.0809,4.0843,4.0902,4.0771,4.0752,4.0801,4.0843,4.0857,4.0857,4.0883,4.0908,4.0914,4.1,4.0992,4.0925,0.0,0.0,0.0,0.0,0.0,0.0,0.0,0.0,0.0,0.0,0.0,0.0,0.0,2.5436,2.609,2.5117,2.594,2.7207,2.8911,2.7591,2.7458,2.9038,2.8285,0.0,2.9101,2.9164,2.9864,0.0,0.0,0.0,3.3582,3.2986,3.2734,3.2734,3.2749,3.3391,3.4529,0.0,0.0,0.0,0.0,0.0,0.0,0.0,3.3636,3.397,3.609,3.6894,3.7116,3.8589,3.9071,3.8863,3.7912,3.7988,3.833,0.0,0.0,0.0,3.9451,3.9622,3.9757,4.0353,4.0489,4.0489,4.0489,4.0489,4.0489,4.0489,4.0489,4.0489,4.0489,4.0489,4.0489,4.0489,4.0489,4.0489,4.0489,4.0489,4.0489,4.0489,4.061,4.0692,4.0692,4.0863,4.0988,4.0996,4.1105,4.1171,4.1191,4.1171,4.1126,4.0992,4.0992,4.092,4.0793,4.0793,4.0752,4.0703,4.0752,4.0864,4.0988,4.0864,4.095,4.1151,4.0908,4.0793,4.0809,4.095,4.0992,4.0996,4.1128,4.1171,4.1171,4.1191,4.1191,4.1171,0.0,0.0,0.0,0.0,0.0,0.0,0.0,0.0,0.0,0.0,0.0,0.0,0.0,2.4074,2.4339,2.3967,2.4255,2.4756,2.5436,2.4933,2.4874,2.5436,2.5192,2.5414,2.6408,2.6979,2.7814,0.0,0.0,3.0807,3.1489,3.166,3.2084,3.2586,3.2586,3.2571,3.2656,3.3264,0.0,0.0,0.0,0.0,0.0,0.0,3.3502,3.3683,3.4998,3.542,3.5688,3.7094,3.727,3.6901,3.7012,3.7297,3.7696,3.8241,3.8546,3.8833,3.9451,3.9599,3.9757,4.0353,4.0489,4.0489,4.0489,4.0489,4.0489,4.0489,4.0489,4.0489,4.0489,4.0489,4.0489,4.0489,4.0489,4.0489,4.0489,4.0489,4.0489,4.0489,4.0623,4.0718,4.0771,4.0902,4.1046,4.1126,4.1171,4.1191,4.1191,4.1191,4.1171,4.1128,4.1128,4.1055,4.0925,4.0831,4.0836,4.0896,4.0908,4.0996,4.1128,4.108,4.1105,4.1191,4.1103,4.1055,4.1055,4.1105,4.1128,4.1128,4.1171,4.1191,4.1191,4.1191,4.1191,4.1191,0.0,0.0,0.0,0.0,0.0,0.0,0.0,0.0,0.0,0.0,0.0,0.0,0.0,0.0,2.2999,2.2999,2.2999,2.3147,2.3514,2.3514,2.3514,2.3514,2.3514,2.3963,2.5004,2.5578,2.6463,0.0,0.0,0.0,0.0,3.0749,3.1405,3.2216,3.2216,3.212,0.0,0.0,0.0,3.3155,3.3155,3.3562,3.4117,3.3412,3.3155,3.3272,3.4326,3.455,3.4601,3.5961,3.6125,3.5794,3.6249,3.6748,0.0,0.0,0.0,0.0,3.9282,0.0,0.0,4.025,4.0422,4.0489,4.0489,4.0489,4.0489,4.0489,4.0489,4.0489,4.0489,4.0489,4.0489,4.0489,4.0489,4.0489,4.0489,4.0489,4.0519,4.0559,4.066,4.0771,4.0857,4.0992,4.1103,4.1191,4.1191,4.1191,4.1191,4.1191,4.1191,4.1191,4.1191,4.1149,4.0996,4.0955,4.0955,4.0996,4.1049,4.1105,4.1191,4.1191,4.1191,4.1191,4.1191,4.1191,4.1191,4.1191,4.1191,4.1191,4.1191,4.1191,4.1191,4.1191,4.1191,4.1191,0.0,0.0,0.0,0.0,0.0,0.0,0.0,0.0,0.0,2.2103,0.0,0.0,0.0,0.0,0.0,2.1952,2.1952,2.2403,2.3368,2.3441,2.3441,2.3441,2.3441,2.3891,2.4862,2.4933,2.5824,2.7604,2.767,2.8556,0.0,0.0,3.0703,3.1467,3.1482,3.191,3.2578,0.0,3.2497,3.2512,3.2497,3.2871,3.3456,3.2736,3.2482,3.2676,3.4106,3.425,3.3865,3.5228,3.5646,3.5678,3.5643,0.0,0.0,0.0,0.0,0.0,0.0,0.0,0.0,4.0022,4.0304,4.0489,4.0489,4.0489,4.0489,4.0489,4.0489,4.0489,4.0489,4.0489,4.0489,4.0489,4.0489,4.0489,4.0489,4.0504,4.0559,4.068,4.0771,4.0857,4.0992,4.1126,4.1191,4.1191,4.1191,4.1191,4.1191,4.1191,4.1191,4.1191,4.1191,4.1149,4.1019,4.1128,4.1128,4.1019,4.1149,4.1191,4.1191,4.1191,4.1191,4.1191,4.1191,4.1191,4.1191,4.1191,4.1191,4.1191,4.1191,4.1191,4.1191,4.1191,4.1191,4.1191,0.0,0.0,0.0,0.0,0.0,0.0,0.0,2.2339,2.1527,0.0,0.0,0.0,2.0644,2.0857,2.1011,2.1011,2.1011,2.1078,2.1385,2.1385,2.1385,2.1385,2.1385,2.1821,2.2776,2.3514,2.4541,2.5755,2.6483,2.7351,2.8427,2.9066,2.9827,0.0,3.1219,3.1582,3.1811,3.1777,3.2078,3.2482,3.2003,3.2445,3.338,3.2208,3.2125,3.2634,3.3042,3.3091,3.3123,3.4429,3.4872,3.5032,3.5915,0.0,0.0,0.0,0.0,0.0,3.8915,0.0,0.0,0.0,0.0,0.0,4.0489,4.0489,4.0489,4.0489,4.0489,4.0489,4.0489,4.0489,4.0489,4.0489,4.0489,4.0489,4.0489,4.0568,4.0674,4.0692,4.084,4.0959,4.0996,4.1126,4.1191,4.1191,4.1191,4.1191,4.1191,4.1191,4.1191,4.1191,4.1191,4.1171,4.1149,4.1171,4.1171,4.1149,4.1171,4.1191,4.1191,4.1191,4.1191,4.1191,4.1191,4.1191,4.1191,4.1191,4.1191,4.1191,4.1191,4.1191,4.1191,4.1191,4.1191,4.1191,0.0,0.0,0.0,0.0,0.0,0.0,2.2188,2.1308,2.0789,0.0,0.0,0.0,2.0566,2.0566,2.0566,2.0566,2.0566,2.0566,2.0566,2.0566,2.0566,2.0566,2.0566,2.1011,2.1952,2.2553,2.3368,2.4337,2.537,2.6321,2.7152,2.8025,2.9129,3.0329,0.0,0.0,0.0,0.0,3.1764,3.2078,3.2004,3.2403,3.3035,3.254,3.2403,3.2573,3.2894,3.2613,3.2367,3.4021,3.4783,3.5128,3.582,3.6224,0.0,0.0,0.0,0.0,0.0,0.0,0.0,0.0,0.0,0.0,4.0489,4.0489,4.0489,4.0489,4.0489,4.0489,4.0489,4.0489,4.0489,4.0489,4.0489,4.0519,4.0588,4.0642,4.0729,4.0818,4.0928,4.1023,4.108,4.115,4.1191,4.1191,4.1191,4.1191,4.1191,4.1191,4.1191,4.1191,4.1191,4.1191,4.1191,4.1191,4.1191,4.1191,4.1191,4.1191,4.1191,4.1191,4.1191,4.1191,4.1191,4.1191,4.1191,4.1191,4.1191,4.1191,4.1191,4.1191,4.1191,4.1191,4.1191,4.1191,0.0,0.0,0.0,2.1344,2.1068,2.0566,2.0566,2.0566,2.0566,0.0,2.0323,2.0235,2.0235,2.0323,2.0401,2.0235,2.0323,2.0401,2.0235,2.0323,2.0401,2.0401,2.0566,2.1011,2.1811,2.1962,2.2403,2.3294,2.448,2.5392,2.6152,2.7232,2.8556,3.0147,0.0,0.0,0.0,0.0,3.1539,3.1697,3.2327,3.2583,3.2554,3.3229,3.3073,3.2613,3.3326,3.2803,3.2048,3.4021,3.5098,3.5622,3.5622,3.5941,3.6416,3.6943,3.747,0.0,0.0,0.0,0.0,0.0,4.0024,0.0,4.0489,4.0489,4.0489,4.0489,4.0489,4.0504,4.0519,4.0534,4.0515,4.0545,4.053,4.0574,4.068,4.0715,4.0781,4.0983,4.1,4.1077,4.1191,4.1191,4.1191,4.1191,4.1191,4.1191,4.1191,4.1191,4.1191,4.1191,4.1191,4.1191,4.1191,4.1191,4.1191,4.1191,4.1191,4.1191,4.1191,4.1191,4.1191,4.1191,4.1191,4.1191,4.1191,4.1191,4.1191,4.1191,4.1191,4.1191,4.1191,4.1191,4.1191,4.1191,0.0,0.0,0.0,1.9659,2.0148,2.0566,2.0566,2.0566,2.0323,1.9441,1.855,1.79,1.79,1.8789,1.8957,1.798,1.8789,1.8957,1.798,1.8789,1.9274,1.9274,2.0157,2.0722,2.0857,2.1593,2.2103,2.2328,2.4108,2.5075,2.5264,2.6909,2.8247,2.9254,3.0011,0.0,0.0,3.1482,3.1853,3.2382,3.2532,3.257,3.2622,3.3335,3.3175,3.2733,3.3928,3.3882,3.3427,3.4894,3.547,3.5622,3.5622,3.565,3.5854,3.6416,3.6921,3.7433,0.0,0.0,0.0,3.9529,3.9882,0.0,4.0457,4.0489,4.0489,4.0489,4.0489,4.053,4.0649,4.0655,4.0672,4.0733,4.0699,4.0667,4.0692,4.0742,4.0836,4.0988,4.1101,4.1171,4.1191,4.1191,4.1191,4.1191,4.1191,4.1191,4.1191,4.1191,4.1191,4.1191,4.1191,4.1191,4.1191,4.1191,4.1191,4.1191,4.1191,4.1191,4.1191,4.1191,4.1191,4.1191,4.1191,4.1191,4.1191,4.1191,4.1191,4.1191,4.1191,4.1191,4.1191,4.1191,4.1191,4.1191,0.0,0.0,0.0,1.8957,1.9923,2.0566,2.0566,2.0566,2.0235,1.9116,1.847,1.8149,1.8149,1.8638,1.8798,0.0,0.0,1.7908,1.7334,1.7827,1.839,1.8957,1.952,2.0079,2.0566,2.1078,2.1298,2.1298,2.3305,2.4264,2.4264,2.6183,2.7802,2.9002,2.9442,3.0329,0.0,3.1482,3.1682,3.2104,3.2841,3.2895,3.2695,3.3735,3.3235,3.2272,3.3971,3.4592,3.4657,3.5005,3.5316,3.5622,3.5622,3.5622,3.5694,3.6249,3.6764,3.7285,3.7755,3.8505,3.9133,3.9314,3.9731,0.0,0.0,4.0406,4.0489,4.0489,4.0489,4.0519,4.0602,4.0596,4.0604,4.0633,4.061,4.0642,4.0752,4.0779,4.087,4.108,4.1151,4.1191,4.1191,4.1191,4.1191,4.1191,4.1191,4.1191,4.1191,4.1191,4.1191,4.1191,4.1191,4.1191,4.1191,4.1191,4.1191,4.1191,4.1191,4.1191,4.1191,4.1191,4.1191,4.1191,4.1191,4.1191,4.1191,4.1191,4.1191,4.1191,4.1191,4.1191,4.1191,4.1191,4.1191,4.1191,1.6102,0.0,0.0,0.0,1.9599,2.0323,2.0566,0.0,0.0,0.0,0.0,0.0,0.0,1.8877,0.0,0.0,0.0,0.0,1.7009,1.7172,1.7585,1.8301,1.8789,1.9441,2.0245,2.0479,2.0566,2.0566,2.2563,2.3514,2.3514,2.5569,2.7284,2.8748,2.8939,2.9827,0.0,3.1409,3.164,3.1992,3.313,3.313,3.2532,3.4037,3.3411,3.1951,3.3921,3.5052,3.5515,3.4847,3.4941,3.5407,3.5407,3.5407,3.5543,3.6097,3.6684,3.7285,3.7649,3.8382,3.9036,3.9099,3.9505,3.9943,0.0,0.0,0.0,4.0489,4.0489,4.0504,4.053,4.053,4.0545,4.0568,4.0568,4.0616,4.0801,4.085,4.0925,4.1171,4.1191,4.1191,4.1191,4.1191,4.1191,4.1191,4.1191,4.1191,4.1191,4.1191,4.1191,4.1191,4.1191,4.1191,4.1191,4.1191,4.1191,4.1191,4.1191,4.1191,4.1191,4.1191,4.1191,4.1191,4.1191,4.1191,4.1191,4.1191,4.1191,4.1191,4.1191,4.1191,4.1191,4.1191,4.1191,4.1191,1.3649,1.5754,0.0,0.0,0.0,0.0,0.0,0.0,0.0,0.0,0.0,0.0,1.7415,1.839,1.855,0.0,1.831,1.798,1.6026,1.6764,1.6927,1.6108,1.798,1.9036,1.9195,2.0079,2.0566,2.0566,2.2563,2.3514,2.3514,2.5569,2.6973,2.7855,2.8684,2.9504,3.0464,3.1219,3.2201,3.3391,3.3531,3.2826,3.1838,3.382,3.3735,3.268,3.4087,3.5052,3.5515,3.4847,3.464,3.4736,3.4736,3.4736,3.483,3.5498,3.6399,3.721,3.7266,3.7998,3.8803,3.9036,3.9178,3.9364,3.9963,0.0,4.0213,4.0457,0.0,4.0549,4.0662,0.0,0.0,4.0761,4.076,4.0821,4.0955,4.0988,4.1026,4.1171,4.1191,4.1191,4.1191,4.1191,4.1191,4.1191,4.1191,4.1191,4.1191,4.1191,4.1191,4.1191,4.1191,4.1191,4.1191,4.1191,4.1191,4.1191,4.1191,4.1191,4.1191,4.1191,4.1191,4.1191,4.1191,4.1191,4.1191,4.1191,4.1191,4.1191,4.1191,4.1191,4.1191,4.1191,4.1191,4.1191,1.3277,1.4932,0.0,0.0,0.0,0.0,0.0,0.0,0.0,0.0,0.0,0.0,1.6355,1.7334,1.7819,1.7334,1.7738,1.7334,1.5779,1.6108,0.0,1.5696,1.6593,1.7407,1.7989,1.9116,1.9678,1.9678,2.2242,2.3514,2.3514,2.5569,2.6905,2.7736,2.862,2.9504,3.0329,3.1161,3.1838,3.2407,3.2407,3.2256,3.2367,3.4399,3.4847,3.435,3.4544,3.5052,3.5577,3.5253,3.5207,3.5207,3.5207,3.5207,3.5253,3.5515,3.6139,3.6803,3.7114,3.7703,3.8346,3.8766,3.8971,3.916,3.9457,3.9819,4.0139,4.0232,0.0,0.0,0.0,0.0,0.0,0.0,4.0679,4.0781,4.0864,4.0955,4.1052,4.1171,4.1191,4.1191,4.1191,4.1191,4.1191,4.1191,4.1191,4.1191,4.1191,4.1191,4.1191,4.1191,4.1191,4.1191,4.1191,4.1191,4.1191,4.1191,4.1191,4.1191,4.1191,4.1191,4.1191,4.1191,4.1191,4.1191,4.1191,4.1191,4.1191,4.1191,4.1191,4.1191,4.1191,4.1191,4.1191,4.1191,1.2648,0.0,0.0,0.0,0.0,0.0,0.0,0.0,1.6108,1.7172,1.6355,1.5779,1.6108,1.709,1.7747,1.7747,1.806,1.7658,1.6191,1.6108,1.6026,1.5696,1.5696,1.6191,1.7261,1.839,1.9036,1.9036,2.178,2.322,2.3514,2.5288,2.6564,2.7417,2.8492,2.9476,3.0257,3.1349,3.1992,3.2351,3.2351,3.2772,3.3547,3.4864,3.5453,3.5532,3.5052,3.5207,3.5577,3.5362,3.5316,3.5316,3.5316,3.5316,3.5362,3.5577,3.5985,3.6498,3.6865,3.7433,3.798,3.8382,3.8748,3.9027,3.9072,3.9481,3.988,4.0061,4.025,0.0,0.0,0.0,4.0489,0.0,0.0,4.071,4.0785,4.0914,4.1052,4.1171,4.1191,4.1191,4.1191,4.1191,4.1191,4.1191,4.1191,4.1191,4.1191,4.1191,4.1191,4.1191,4.1191,4.1191,4.1191,4.1191,4.1191,4.1191,4.1191,4.1191,4.1191,4.1191,4.1191,4.1191,4.1191,4.1191,4.1191,4.1191,4.1191,4.1191,4.1191,4.1171,4.115,4.1191,4.1171,4.115,1.101,1.238,0.0,0.0,0.0,0.0,0.0,1.6355,1.6108,1.7172,1.6355,1.6108,1.7172,1.823,1.8957,1.8957,1.9923,1.959,1.7415,1.7253,1.6764,1.5779,1.5696,1.6191,1.7261,1.839,1.9036,1.9036,2.1038,2.2553,2.3514,2.4564,2.5581,2.6589,2.8247,2.9358,3.0144,3.183,3.3339,3.4479,3.4479,3.4894,3.5424,3.4847,3.5035,3.5622,3.5577,3.5577,3.5515,3.4847,3.4624,3.4624,3.4624,3.4624,3.4736,3.5407,3.5985,3.6416,3.6416,3.7173,3.7893,3.7911,3.8332,3.8773,3.9036,3.9125,3.9314,3.9982,4.0101,4.0195,4.0457,4.0489,4.0489,0.0,0.0,0.0,0.0,4.0914,4.1052,4.1171,4.1191,4.1191,4.1191,4.1191,4.1191,4.1191,4.1191,4.1191,4.1191,4.1191,4.1191,4.1191,4.1191,4.1191,4.1191,4.1191,4.1191,4.1191,4.1191,4.1191,4.1191,4.1191,4.1191,4.1191,4.1191,4.1191,4.1191,4.1191,4.1191,4.1191,4.1191,4.1126,4.1023,4.115,4.1126,4.1019,0.0,0.0,0.0,0.0,1.4065,1.4614,1.6062,1.5304,1.5304,1.7098,1.6355,1.6108,1.7172,1.831,1.9036,1.9036,2.0001,2.0001,1.855,1.7738,1.7172,1.6764,1.5387,1.547,1.7261,1.7658,1.823,1.9036,2.1028,2.2478,2.3514,2.4564,2.5523,2.6521,2.767,2.8843,3.0069,3.1243,3.2571,3.3987,3.4431,3.4479,3.435,3.5005,3.5407,3.5622,3.5622,3.5622,3.5577,3.5362,3.5253,3.5253,3.5253,3.5253,3.5316,3.5515,3.5739,3.5941,3.6291,3.6904,3.7506,3.7825,3.83,3.8719,3.8815,3.8971,3.9231,3.9668,3.9962,4.0177,4.0457,4.0489,0.0,0.0,0.0,0.0,0.0,4.0992,4.115,4.1191,4.1191,4.1191,4.1191,4.1191,4.1191,4.1191,4.1191,4.1191,4.1191,4.1191,4.1191,4.1191,4.1191,4.1191,4.1191,4.1191,4.1191,4.1191,4.1191,4.1191,4.1191,4.1191,4.1191,4.1191,4.1191,4.1191,4.1191,4.1191,4.1191,4.1191,4.1191,4.1126,4.1016,4.1052,4.0988,4.087,1.004,0.0,0.0,1.2875,1.338,1.3947,1.4771,1.4823,1.5137,1.6519,1.6437,1.6519,1.7253,1.831,1.9036,1.9036,2.0001,2.0157,1.9036,1.831,1.7908,1.7908,1.6206,1.6041,1.7908,1.7908,1.823,1.9036,2.0663,2.2188,2.3514,2.4192,2.5205,2.6521,2.7351,2.8525,3.0069,3.1168,3.2562,3.4037,3.4688,3.4704,3.4399,3.527,3.547,3.5253,3.5515,3.5622,3.5622,3.5622,3.5622,3.5622,3.5622,3.5622,3.5622,3.5622,3.5622,3.5694,3.6249,3.6803,3.7323,3.779,3.83,3.8707,3.8707,3.8844,3.9082,3.9505,3.9775,4.0043,4.0422,4.0489,0.0,0.0,0.0,0.0,0.0,4.1026,4.1191,4.1191,4.1191,4.1191,4.1191,4.1191,4.1191,4.1191,4.1191,4.1191,4.1191,4.1191,4.1191,4.1191,4.1191,4.1191,4.1191,4.1191,4.1191,4.1191,4.1191,4.1191,4.1191,4.1191,4.1191,4.1191,4.1191,4.1191,4.1191,4.1191,4.1191,4.1191,4.1191,4.1082,4.0925,4.0988,4.0896,4.0752,0.9296,1.095,1.2392,1.2755,1.322,1.3546,1.3641,1.4771,1.5696,1.5779,1.6683,1.7415,1.7496,1.839,1.9116,1.9116,2.0001,2.0167,1.9125,1.9045,1.9036,1.9116,1.7908,1.7827,1.9036,1.9045,1.9045,1.9116,2.0079,2.1603,2.3514,2.3514,2.4541,2.6521,2.7351,2.8589,3.0174,3.1673,3.3216,3.4688,3.5362,3.5577,3.556,3.5577,3.5191,3.4688,3.5362,3.5622,3.5622,3.5622,3.5622,3.5622,3.5622,3.5622,3.5622,3.5622,3.5622,3.5694,3.6249,3.6803,3.7323,3.779,3.83,3.8707,3.8707,3.8689,3.8873,3.9481,3.9622,3.98,4.0406,4.0489,4.0489,0.0,0.0,0.0,0.0,4.1023,4.1191,4.1191,4.1191,4.1191,4.1191,4.1191,4.1191,4.1191,4.1191,4.1191,4.1191,4.1191,4.1191,4.1191,4.1191,4.1191,4.1191,4.1191,4.1191,4.1191,4.1191,4.1191,4.1191,4.1191,4.1191,4.1191,4.1191,4.1191,4.1191,4.1191,4.1191,4.1191,4.1191,4.1026,4.0801,4.092,4.0848,4.0667,0.9145,1.095,1.2325,1.2405,1.2919,1.3394,1.3614,1.4771,1.6026,1.6764,1.7908,1.8868,1.9678,2.0001,2.0167,2.0167,2.0401,2.0479,2.0245,1.9441,1.9362,2.0157,1.8301,1.8221,2.0167,1.9441,1.9362,2.0167,2.0489,2.1603,2.3514,2.3514,2.4541,2.6521,2.7351,2.885,3.0789,3.1879,3.3473,3.5362,3.5515,3.5316,3.4894,3.5407,3.5191,3.4688,3.5362,3.5622,3.5622,3.5622,3.5622,3.5622,3.5622,3.5622,3.5622,3.5622,3.5622,3.5694,3.6249,3.6803,3.7323,3.779,3.83,3.8707,3.8707,3.8855,3.9117,3.9529,3.9797,4.0081,4.0422,4.0489,4.0489,0.0,0.0,0.0,4.0796,4.095,4.1082,4.1191,4.1191,4.1191,4.1191,4.1191,4.1191,4.1191,4.1191,4.1191,4.1191,4.1191,4.1191,4.1191,4.1191,4.1191,4.1191,4.1191,4.1191,4.1191,4.1191,4.1191,4.1191,4.1191,4.1191,4.1191,4.1191,4.1191,4.1191,4.1191,4.1191,4.1191,4.1082,4.0922,4.0729,4.066,4.059,4.0545,0.9069,1.095,1.2305,1.2305,1.3065,1.3677,1.3852,1.5188,1.6605,1.7573,1.884,1.9923,2.0557,2.0566,2.0566,2.0566,2.0566,2.0566,2.0566,2.0001,2.0001,2.0566,1.9432,1.9353,2.0566,2.044,2.044,2.0566,2.1011,2.1973,2.3514,2.3514,2.4541,2.6521,2.7351,2.8589,3.0248,3.2121,3.374,3.5207,3.547,3.5362,0.0,3.547,3.5362,3.5098,3.547,3.5622,3.5622,3.5622,3.5622,3.5622,3.5622,3.5622,3.5667,3.5898,3.5941,3.6097,3.6847,3.7285,3.7614,3.8117,3.8465,3.8707,3.8707,3.8894,3.9205,3.9529,3.988,4.0177,4.0457,4.0489,4.0489,0.0,0.0,4.0707,4.0752,4.0896,4.1026,4.1103,4.1151,4.1191,4.1191,4.1191,4.1191,4.1191,4.1191,4.1191,4.1191,4.1191,4.1191,4.1191,4.1191,4.1191,4.1191,4.1191,4.1191,4.1191,4.1191,4.1191,4.1191,4.1191,4.1191,4.1191,4.1191,4.1191,4.1191,4.1191,4.1171,4.1101,4.0928,4.08,4.068,4.0545,4.0489,4.0489,0.9448,1.1099,1.2372,1.2445,1.34,1.4246,1.4469,1.594,1.7329,1.8127,1.9534,2.04,2.04,2.04,2.04,2.04,2.0449,2.0478,2.0478,2.0682,2.0789,2.0789,2.0934,2.1011,2.1011,2.1821,2.1745,2.0789,2.1593,2.2478,2.3514,2.3514,2.4541,2.6521,2.7484,2.8542,2.9803,3.254,3.4137,3.4783,3.5362,3.5622,3.5622,3.5622,3.5622,3.5622,3.5622,3.5622,3.5622,3.5622,3.5622,3.5622,3.5622,3.5622,3.5694,3.6249,3.6374,3.6603,3.7649,3.7893,3.8013,3.8578,3.8707,3.8707,3.8707,3.8952,3.9238,3.9552,3.9882,4.0213,4.0457,4.0489,4.0489,4.0489,4.0596,4.068,4.0707,4.0855,4.0992,4.1023,4.1128,0.0,4.1191,4.1191,4.1191,4.1191,4.1191,4.1191,4.1191,4.1191,4.1191,4.1191,4.1191,4.1191,4.1191,4.1191,4.1191,4.1191,4.1191,4.1191,4.1191,4.1191,4.1191,4.1191,4.1191,4.1191,4.1191,4.1171,4.108,4.0939,4.0781,4.0692,4.0655,4.0545,4.0489,4.0489,1.1397,1.2077,1.2519,1.331,1.3645,1.4328,1.5955,1.6987,1.765,1.7809,1.8778,1.9512,1.9512,1.9512,1.9512,1.9512,1.9824,2.0029,2.0029,2.1085,2.1735,2.1735,2.2563,2.2999,2.2999,2.3147,2.2776,2.1735,2.1886,2.2478,2.3514,2.3514,2.4541,2.6589,0.0,0.0,3.2892,3.3955,3.4783,3.5424,3.556,3.5622,3.5622,3.5622,3.5622,3.5622,3.5622,3.5622,3.5622,3.5622,3.5622,3.5622,3.5622,3.5622,3.5694,3.6249,3.6374,3.6603,3.7649,3.7893,3.8013,3.8578,3.8707,3.8707,3.8707,3.9127,3.9529,3.9599,4.0043,4.0438,4.0489,4.0489,4.0489,4.0489,4.0519,4.059,4.0761,4.0801,4.092,4.1149,4.1191,4.1191,4.1191,4.1191,4.1191,4.1191,4.1191,4.1191,4.1191,4.1191,4.1191,4.1191,4.1191,4.1191,4.1191,4.1191,4.1191,4.1191,4.1191,4.1191,4.1191,4.1191,4.1191,4.1191,4.1191,4.1191,4.1191,4.108,4.0922,4.0751,4.0715,4.0636,4.053,4.0504,4.0489,4.0489,1.1316,1.2358,1.3171,1.36,1.4522,1.5508,1.6498,1.7333,1.79,1.8106,1.8851,1.9287,1.9287,1.9287,1.9287,1.9287,1.9473,1.9802,2.0222,2.0917,2.147,2.1894,2.2712,2.3061,2.3061,2.391,2.3818,2.2776,2.3294,2.3818,2.4264,2.4264,2.5063,2.6589,0.0,3.0881,3.3145,3.4186,3.4783,3.5098,3.547,3.5622,3.5622,3.5622,3.5783,3.6011,3.6011,3.6207,3.6357,3.5766,3.5766,3.6011,3.6011,3.6207,3.6522,3.7041,3.7155,3.7342,3.8117,3.83,3.8382,3.8627,3.8707,3.8707,3.8707,3.9181,3.9599,3.9599,4.0082,4.0489,4.0489,4.0489,4.0489,4.0489,4.0489,4.0554,4.0712,4.0779,4.087,4.1077,4.1151,4.1191,4.1191,4.1191,4.1191,4.1191,4.1191,4.1191,4.1191,4.1191,4.1191,4.1191,4.1191,4.1191,4.1191,4.1191,4.1191,4.1191,4.1191,4.1191,4.1191,4.1191,4.1191,4.1191,4.1191,4.1191,4.1171,4.0988,4.0824,4.0692,4.0623,4.0559,4.0489,4.0489,4.0489,4.0489,1.1378,1.2631,1.3818,1.4235,1.5579,1.6706,1.7111,1.7628,1.8125,1.8457,1.8799,1.9085,1.929,1.929,1.9352,1.9565,1.9646,1.9971,2.0656,2.1032,2.1494,2.2184,2.2776,2.3132,2.3132,2.4318,2.4449,2.3489,2.4342,2.4778,2.4671,2.4909,2.5824,2.7365,2.9383,3.1312,3.3077,3.3974,3.4457,3.4598,3.4959,3.5176,3.5263,3.5263,3.5616,3.6035,3.6035,3.6295,3.6547,3.5707,3.5786,3.6278,3.6278,3.6474,3.6734,3.7252,3.7406,3.7525,3.8034,3.8193,3.8193,3.8193,3.8193,3.8205,3.8265,3.8693,3.915,3.9388,4.0005,4.0489,4.0489,4.0489,4.0489,4.0489,4.0489,4.0545,4.068,4.0762,4.0828,4.0988,4.1082,4.1171,4.1191,4.1191,4.1191,4.1191,4.1191,4.1191,4.1191,4.1191,4.1191,4.1191,4.1191,4.1191,4.1191,4.1191,4.1191,4.1191,4.1191,4.1191,4.1191,4.1191,4.1191,4.1191,4.1191,4.1171,4.1103,4.0877,4.0732,4.0649,4.053,4.0489,4.0489,4.0489,4.0489,4.0489,1.323,1.3593,1.4235,1.6,1.6498,1.7179,1.8824,1.8452,1.8018,1.8057,1.8105,1.8388,1.9235,1.9302,1.9624,2.0401,2.0798,2.104,2.1107,2.234,2.3077,2.3144,2.4103,2.4623,2.4623,2.4738,2.4345,2.3285,2.3985,2.3985,2.3443,2.4483,2.6646,2.9722,3.0734,3.2385,3.4382,3.3853,3.396,3.4452,3.3837,3.3884,3.4254,3.4254,3.4512,3.4869,3.4869,3.4906,3.4906,3.4833,3.5291,3.5927,3.5927,3.547,3.5049,3.5565,3.5714,3.5828,3.6369,3.6523,3.6523,3.6523,3.6523,3.6591,3.6819,3.7122,3.7629,3.867,3.9749,4.0489,4.0489,4.0489,4.0489,4.0489,4.0489,4.0545,4.068,4.0715,4.0781,4.0983,4.1019,4.1077,4.1191,4.1191,4.1191,4.1191,4.1191,4.1191,4.1191,4.1191,4.1191,4.1191,4.1191,4.1191,4.1191,4.1191,4.1191,4.1191,4.1191,4.1191,4.1191,4.1191,4.1191,4.1191,4.1191,4.1055,4.0836,4.0742,4.063,4.0519,4.0504,4.0489,4.0489,4.0489,4.0489,4.0489,1.36,1.4665,1.572,1.6498,1.707,1.7833,1.91,1.8977,1.8977,1.9497,1.911,1.911,2.002,2.0074,2.0204,2.059,2.077,2.1076,2.1591,2.2174,2.2687,2.3142,2.3941,2.433,2.433,2.5052,2.523,2.4887,2.5114,2.5114,2.4887,2.5717,2.7495,3.0108,3.0859,3.196,3.3307,3.3389,3.3597,3.3812,3.3525,3.3515,3.3704,3.4007,3.4361,3.4801,3.5096,3.54,3.5661,3.5661,3.5648,3.5681,3.5681,3.5652,3.5693,3.5915,3.5994,3.6042,3.6256,3.6303,3.6303,3.6303,3.6303,3.6352,3.6649,3.6921,3.727,3.789,3.8961,3.9931,4.0412,4.0489,4.0489,4.0489,4.0489,4.0545,4.068,4.0731,4.0832,4.0988,4.1077,4.1149,4.1191,4.1191,4.1191,4.1191,4.1191,4.1191,4.1191,4.1191,4.1191,4.1191,4.1191,4.1191,4.1191,4.1191,4.1191,4.1191,4.1191,4.1191,4.1191,4.1191,4.1191,4.1191,4.1105,4.0964,4.0793,4.0721,4.0623,4.0489,4.0489,4.0489,4.0489,4.0489,4.0489,4.0489,1.4522,1.5843,1.7092,1.7385,1.8152,1.9044,1.9944,1.9814,2.0074,2.1164,2.059,2.0268,2.091,2.0974,2.1101,2.129,2.1353,2.1616,2.2187,2.2261,2.2628,2.3424,2.3879,2.4218,2.4387,2.5282,2.5768,2.5768,2.5942,2.5928,2.5768,2.6812,2.8378,3.0429,3.1182,3.1938,3.2691,3.2984,3.3068,3.3051,3.2978,3.302,3.3179,3.3641,3.4111,3.4566,3.4888,3.5235,3.555,3.555,3.5294,3.5036,3.5289,3.5447,3.555,3.555,3.555,3.555,3.555,3.555,3.555,3.555,3.5616,3.5761,3.6056,3.6324,3.6672,3.7161,3.8342,3.9469,4.0027,4.0335,4.0489,4.0489,4.0489,4.053,4.0636,4.0721,4.0816,4.0909,4.1046,4.1149,4.1149,4.1171,4.1191,4.1191,4.1191,4.1191,4.1191,4.1191,4.1191,4.1191,4.1191,4.1191,4.1191,4.1191,4.1191,4.1191,4.1191,4.1191,4.1191,4.1191,4.1191,4.1191,4.1023,4.0902,4.0785,4.0696,4.0602,4.0489,4.0489,4.0489,4.0489,4.0489,4.0489,4.0489,1.6349,1.7279,1.815,1.909,2.0009,2.0846,2.1753,2.1175,2.1164,2.2884,2.2384,2.1877,2.1877,2.1877,2.2187,2.3005,2.3078,2.3078,2.3065,2.3078,2.3424,2.4234,2.4292,2.4637,2.5356,2.5425,2.5425,2.5425,2.5962,2.5949,2.5425,2.7418,2.9322,3.1118,3.1987,3.2752,3.3355,3.2611,3.229,3.2303,3.1949,3.2092,3.2535,3.3032,3.3455,3.3798,3.3825,3.3825,3.3825,3.3825,3.3825,3.3972,3.4752,3.444,3.3825,3.3825,3.3825,3.3825,3.3825,3.3825,3.3825,3.3825,3.403,3.4307,3.4651,3.4926,3.5422,3.6503,3.8084,3.9296,3.9296,3.995,4.0489,4.0489,4.0489,4.0504,4.0504,4.0623,4.0703,4.0703,4.0889,4.0996,4.0996,4.1126,4.1191,4.1191,4.1191,4.1191,4.1191,4.1191,4.1191,4.1191,4.1191,4.1191,4.1191,4.1191,4.1191,4.1191,4.1191,4.1191,4.1191,4.1191,4.1191,4.1191,4.092,4.0801,4.0785,4.0571,4.0504,4.0489,4.0489,4.0489,4.0489,4.0489,4.0489,4.0489,1.6567,1.7852,1.8936,1.9233,2.0009,2.091,2.1753,2.1678,2.1865,2.2944,2.2884,2.2702,2.2702,2.2702,2.2823,2.3078,2.359,2.3943,2.3943,2.4381,2.4781,2.5063,2.5063,2.5175,2.5398,2.5892,2.6176,2.6176,2.6732,2.7357,2.801,2.8622,2.9723,3.1157,3.1466,3.1833,3.229,3.2049,3.2115,3.2423,3.2301,3.2384,3.255,3.3014,3.3273,3.3437,3.3707,3.3807,3.3807,3.3807,3.3807,3.3844,3.41,3.4009,3.3807,3.3807,3.3807,3.3807,3.3807,3.3807,3.3842,3.4018,3.4147,3.4338,3.4851,3.519,3.5614,3.6531,3.7603,3.8604,3.9181,3.995,4.0489,4.0489,4.0489,4.0489,4.0489,4.0653,4.0761,4.0761,4.0983,4.1149,4.1149,4.1171,4.1191,4.1191,4.1191,4.1191,4.1191,4.1191,4.1191,4.1191,4.1191,4.1191,4.1191,4.1191,4.1191,4.1191,4.1191,4.1191,4.1191,4.1191,4.1191,4.1191,4.0914,4.0801,4.0785,4.0571,4.0489,4.0489,4.0489,4.0489,4.0489,4.0489,4.0489,4.0489,1.7139,1.8546,1.9814,1.9814,2.0782,2.1741,2.2261,2.2384,2.2506,2.3005,2.3078,2.3185,2.3543,2.3543,2.3424,2.3138,2.3826,2.4292,2.4292,2.5007,2.5508,2.5783,2.5783,2.604,2.6544,2.7041,2.7348,2.757,2.7984,2.8638,2.9615,2.9783,3.0418,3.1449,3.162,3.1806,3.2057,3.2057,3.223,3.2517,3.2681,3.2745,3.2809,3.3273,3.3437,3.3465,3.3707,3.3807,3.3807,3.3807,3.3807,3.3807,3.3807,3.3807,3.3807,3.3807,3.3807,3.3807,3.3807,3.3876,3.3986,3.4171,3.436,3.4676,3.5138,3.5383,3.5641,3.6161,3.718,3.8161,3.87,3.9738,4.0489,4.0489,4.0489,4.0519,4.0574,4.0692,4.0801,4.0801,4.1049,4.1171,4.1128,4.1171,4.1191,4.1191,4.1191,4.1191,4.1191,4.1191,4.1191,4.1191,4.1191,4.1191,4.1191,4.1191,4.1191,4.1191,4.1191,4.1191,4.1191,4.115,4.1126,4.1105,4.087,4.0752,4.0752,4.0563,4.0489,4.0489,4.0489,4.0489,4.0489,4.0489,4.0489,4.0489,1.8076,1.9431,2.059,2.0655,2.2051,2.3138,2.3185,2.3185,2.3198,2.3245,2.3245,2.3531,2.4292,2.4408,2.4105,2.3399,2.3989,2.4452,2.4452,2.5161,2.5932,2.6602,2.6654,2.7312,2.8559,2.8559,2.8873,2.9451,2.9451,2.9761,3.0377,3.079,3.124,3.1825,3.2282,3.2517,3.255,3.255,3.255,3.2616,3.3075,3.3273,3.3314,3.3689,3.3842,3.3868,3.3868,3.3868,3.3868,3.3868,3.3868,3.3868,3.3868,3.3868,3.3842,3.3815,3.3815,3.3815,3.3815,3.4018,3.4223,3.4246,3.4696,3.519,3.5446,3.5493,3.5493,3.5493,3.6834,3.8007,3.8007,3.9373,4.0504,4.0519,4.0519,4.0559,4.0692,4.0781,4.0809,4.0809,4.1049,4.115,4.1026,4.1128,4.1191,4.1191,4.1191,4.1191,4.1191,4.1191,4.1191,4.1191,4.1191,4.1191,4.1191,4.1191,4.1191,4.1191,4.1191,4.1191,4.1171,4.1055,4.0992,4.0983,4.0781,4.0703,4.0692,4.0559,4.0489,4.0489,4.0489,4.0489,4.0489,4.0489,4.0489,4.0489,1.8844,1.9879,2.0782,2.1491,2.2445,2.3305,2.3943,2.4002,2.4221,2.4781,2.4838,2.4951,2.5119,2.5119,2.5245,2.552,2.5835,2.596,2.596,2.7078,2.7849,2.8012,2.8465,2.8872,2.918,2.918,2.9496,3.0081,3.0081,3.0393,3.1015,3.1418,3.1645,3.1825,3.2282,3.2713,3.3045,3.3045,3.3196,3.3504,3.3606,3.376,3.3981,3.4074,3.4242,3.4505,3.4505,3.4505,3.4505,3.4505,3.4505,3.4505,3.4505,3.4505,3.4416,3.3947,3.3935,3.4117,3.4117,3.4334,3.4634,3.4851,3.5155,3.5432,3.5493,3.5493,3.5493,3.5493,3.6834,3.8007,3.8007,3.9373,4.053,4.0636,4.0642,4.0684,4.0761,4.089,4.0955,4.0955,4.1103,4.1191,4.1151,4.1171,4.1191,4.1191,4.1191,4.1191,4.1191,4.1191,4.1191,4.1191,4.1191,4.1191,4.1191,4.1191,4.1191,4.1191,4.1191,4.115,4.1052,4.1,4.093,4.085,4.0742,4.0703,4.0692,4.0559,4.0489,4.0489,4.0489,4.0489,4.0489,4.0489,4.0489,4.0489,1.9814,2.059,2.1365,2.1815,2.2859,2.3826,2.4234,2.4567,2.4951,2.5342,2.5398,2.5508,2.5837,2.6172,2.6605,2.7244,2.7085,2.7049,2.7309,2.829,2.8919,2.8919,2.9225,2.954,2.9805,2.9805,3.0218,3.0993,3.1193,3.1476,3.1787,3.2248,3.2433,3.2466,3.2903,3.3225,3.3476,3.3607,3.3795,3.4012,3.416,3.4307,3.4423,3.4423,3.4551,3.4694,3.4694,3.4694,3.4694,3.4694,3.4694,3.4694,3.4694,3.4694,3.4632,3.4325,3.4307,3.4423,3.4423,3.4655,3.4944,3.5207,3.5383,3.5493,3.5493,3.5493,3.5493,3.5493,3.6834,3.8007,3.8007,3.9408,4.061,4.068,4.074,4.0781,4.087,4.0955,4.1023,4.108,4.1151,4.1191,4.1191,4.1191,4.1191,4.1191,4.1191,4.1191,4.1191,4.1191,4.1191,4.1191,4.1191,4.1191,4.1191,4.1191,4.1191,4.1191,4.1191,4.1128,4.0996,4.0944,4.0843,4.0752,4.0648,4.061,4.0596,4.0534,4.0489,4.0489,4.0489,4.0489,4.0489,4.0489,4.0489,4.0489,2.0782,2.1365,2.1939,2.2063,2.3327,2.435,2.4452,2.5063,2.5618,2.5728,2.5823,2.6094,2.6759,2.7354,2.7969,2.8732,2.8227,2.8021,2.8467,2.9162,2.954,2.954,2.9685,2.9989,3.0526,3.0592,3.1055,3.1933,3.2298,3.2484,3.2517,3.2983,3.3214,3.3214,3.3606,3.3815,3.3895,3.4099,3.4223,3.4311,3.4591,3.4714,3.4754,3.4754,3.4793,3.4813,3.4813,3.4813,3.4813,3.4813,3.4813,3.4813,3.4813,3.4813,3.4813,3.4813,3.4813,3.4813,3.4774,3.4963,3.5207,3.5446,3.5493,3.5493,3.5493,3.5493,3.5493,3.5493,3.6834,3.8022,3.8031,3.9483,4.0715,4.074,4.0779,4.087,4.1019,4.1026,4.1077,4.1191,4.1191,4.1191,4.1191,4.1191,4.1191,4.1191,4.1191,4.1191,4.1191,4.1191,4.1191,4.1191,4.1191,4.1191,4.1191,4.1191,4.1191,4.1191,4.1171,4.1103,4.0959,4.0843,4.0742,4.0655,4.0545,4.0489,4.0489,4.0489,4.0489,4.0489,4.0489,4.0489,4.0489,4.0489,4.0489,4.0489,2.1553,2.1815,2.2125,2.2823,2.3708,2.4509,2.5119,2.5837,2.6549,2.7188,2.7715,2.8046,2.8158,2.8748,2.9329,2.9995,2.9919,2.9685,2.9239,2.9789,3.0166,3.0166,3.096,3.1459,3.1551,3.1969,3.223,3.2384,3.2451,3.2484,3.2517,3.2983,3.3214,3.3214,3.3606,3.3928,3.4147,3.4176,3.4357,3.4632,3.4674,3.4851,3.5053,3.5053,3.519,3.5369,3.5369,3.5369,3.5369,3.5369,3.5369,3.5369,3.5369,3.5369,3.5369,3.5369,3.5369,3.5339,3.5105,3.5223,3.5446,3.5493,3.5493,3.5493,3.5493,3.5493,3.5493,3.5493,3.6834,3.8026,3.816,3.9569,4.0761,4.0928,4.0955,4.1019,4.115,4.1171,4.1171,4.1191,4.1191,4.1191,4.1191,4.1191,4.1191,4.1191,4.1191,4.1191,4.1191,4.1191,4.1191,4.1191,4.1191,4.1191,4.1191,4.1191,4.1191,4.1191,4.108,4.0959,4.0836,4.0742,4.0655,4.0534,4.0504,4.0489,4.0489,4.0489,4.0489,4.0489,4.0489,4.0489,4.0489,4.0489,4.0489,4.0489,2.3027,2.3207,2.3446,2.4208,2.4951,2.5618,2.596,2.6886,2.7715,2.8042,2.8591,2.8996,2.8996,2.954,2.9995,3.0267,3.0617,3.0658,3.0393,3.0617,3.0781,3.0781,3.1435,3.1915,3.2161,3.2648,3.289,3.289,3.3087,3.3277,3.3423,3.3652,3.3836,3.4031,3.4213,3.4353,3.4486,3.4615,3.4774,3.4926,3.507,3.5207,3.5304,3.5304,3.5383,3.5493,3.5493,3.5493,3.5493,3.5493,3.5493,3.5493,3.5493,3.5493,3.5493,3.5493,3.5493,3.546,3.5354,3.5417,3.5493,3.5493,3.5493,3.5493,3.5493,3.5493,3.5515,3.5546,3.6921,3.8141,3.8239,3.9688,4.0896,4.0988,4.1055,4.1128,4.1191,4.1191,4.1191,4.1191,4.1191,4.1191,4.1191,4.1191,4.1191,4.1191,4.1191,4.1191,4.1191,4.1191,4.1191,4.1191,4.1191,4.1191,4.1191,4.1191,4.1151,4.1082,4.1026,4.0902,4.0762,4.0707,4.0636,4.0489,4.0489,4.0489,4.0489,4.0489,4.0489,4.0489,4.0489,4.0489,4.0489,4.0489,4.0489,4.0489,2.4176,2.4452,2.4738,2.5287,2.6147,2.6692,2.6692,2.7834,2.8701,2.8701,2.9225,2.9629,2.9629,3.0166,3.0559,3.0649,3.1083,3.1389,3.1504,3.1487,3.1449,3.1351,3.1825,3.2332,3.2809,3.3166,3.3372,3.3439,3.3752,3.4037,3.4334,3.4334,3.4445,3.4694,3.4694,3.4734,3.4812,3.4999,3.5138,3.5207,3.5417,3.5493,3.5493,3.5493,3.5493,3.5493,3.5493,3.5493,3.5493,3.5493,3.5493,3.5493,3.5493,3.5493,3.5493,3.5493,3.5493,3.5493,3.5493,3.5493,3.5493,3.5493,3.5493,3.5493,3.5493,3.5515,3.554,3.559,3.6997,3.8248,3.8312,3.9799,4.1019,4.1049,4.1128,4.1191,4.1191,4.1191,4.1191,4.1191,4.1191,4.1191,4.1191,4.1191,4.1191,4.1191,4.1191,4.1191,4.1191,4.1191,4.1191,4.1191,4.1191,4.1191,4.115,4.115,4.1082,4.0955,4.0939,4.0859,4.0692,4.0655,4.0596,4.0489,4.0489,4.0489,4.0489,4.0489,4.0489,4.0489,4.0489,4.0489,4.0489,4.0489,4.0489,4.0489,2.4292,2.4851,2.5342,2.5398,2.6462,2.7309,2.7309,2.8466,2.9316,2.9316,2.9848,3.0208,3.0208,3.0781,3.1257,3.1679,3.1716,3.1933,3.2384,3.2417,3.2213,3.1789,3.2598,3.3302,3.3707,3.3734,3.3884,3.4128,3.4152,3.4334,3.4653,3.4653,3.4674,3.4694,3.4694,3.4851,3.507,3.5088,3.5239,3.546,3.5493,3.5493,3.5493,3.5493,3.5493,3.5493,3.5493,3.5493,3.5493,3.5493,3.5493,3.5493,3.5493,3.5493,3.5493,3.5493,3.5493,3.5493,3.5493,3.5493,3.5493,3.5493,3.5493,3.5493,3.5493,3.5546,3.56,3.5611,3.7044,3.8305,3.8389,3.9825,4.1049,4.1171,4.1191,4.1191,4.1191,4.1191,4.1191,4.1191,4.1191,4.1191,4.1191,4.1191,4.1191,4.1191,4.1191,4.1191,4.1191,4.1191,4.1191,4.1191,4.1191,4.1149,4.1023,4.1,4.0955,4.0809,4.0752,4.0696,4.0692,4.0574,4.0504,4.0489,4.0489,4.0489,4.0489,4.0489,4.0489,4.0489,4.0489,4.0489,4.0489,4.0489,4.0489,4.0489,2.5453,2.5892,2.6361,2.7166,2.772,2.8209,2.856,2.9419,2.9935,2.9935,3.0697,3.121,3.121,3.1679,3.2092,3.2196,3.223,3.2316,3.2484,3.2777,3.284,3.2681,3.3014,3.339,3.3788,3.3961,3.4099,3.42,3.4401,3.4655,3.4944,3.4944,3.5053,3.5207,3.5207,3.5239,3.5354,3.5354,3.5417,3.5493,3.5493,3.5493,3.5493,3.5493,3.5493,3.5493,3.5493,3.5493,3.5493,3.5493,3.5493,3.5493,3.5493,3.5493,3.5493,3.5493,3.5493,3.5493,3.5493,3.5493,3.5493,3.5493,3.5493,3.5515,3.5538,3.5588,3.564,3.5768,3.7161,3.8409,3.8506,3.9956,4.1149,4.1191,4.1191,4.1191,4.1191,4.1191,4.1191,4.1191,4.1191,4.1191,4.1191,4.1191,4.1191,4.1191,4.1191,4.1191,4.1191,4.1126,4.108,4.108,4.0992,4.0964,4.0996,4.092,4.0828,4.0742,4.0707,4.0662,4.0568,4.0534,4.0489,4.0489,4.0489,4.0489,4.0489,4.0489,4.0489,4.0489,4.0489,4.0489,4.0489,4.0489,4.0489,4.0489,2.6558,2.6953,2.7449,2.8591,2.8919,2.9255,2.9783,3.0394,3.0818,3.096,3.1571,3.2022,3.2022,3.2316,3.255,3.2713,3.2713,3.2777,3.2903,3.3277,3.3505,3.3505,3.3505,3.3688,3.4062,3.4242,3.4401,3.447,3.4715,3.4963,3.5223,3.5223,3.533,3.5528,3.5528,3.5534,3.5562,3.5562,3.5562,3.5562,3.5562,3.5562,3.5562,3.5562,3.5562,3.5562,3.5562,3.5546,3.5528,3.5528,3.5528,3.5493,3.5493,3.5493,3.5493,3.5493,3.5509,3.5528,3.5528,3.5546,3.5538,3.5515,3.5528,3.5534,3.559,3.565,3.5728,3.5869,3.7262,3.8487,3.8574,4.0019,4.1191,4.1191,4.1191,4.1191,4.1191,4.1191,4.1191,4.1191,4.1191,4.1191,4.1191,4.1191,4.1191,4.1191,4.1191,4.1171,4.1149,4.1019,4.095,4.095,4.0821,4.0805,4.089,4.0805,4.0722,4.0649,4.0649,4.0582,4.0489,4.0489,4.0489,4.0489,4.0489,4.0489,4.0489,4.0489,4.0489,4.0489,4.0489,4.0489,4.0489,4.0489,4.0489,4.0489,2.7324,2.8015,2.8685,2.9316,2.9892,3.0452,3.0858,3.1408,3.1951,3.2451,3.2517,3.2517,3.2517,3.2517,3.2713,3.3184,3.3214,3.339,3.3762,3.4068,3.42,3.42,3.42,3.4357,3.4694,3.4694,3.4832,3.5105,3.5105,3.5239,3.5507,3.5507,3.554,3.5591,3.5591,3.5648,3.5703,3.5703,3.5703,3.5703,3.5703,3.5703,3.5703,3.5703,3.5703,3.5703,3.5703,3.5663,3.5591,3.5591,3.557,3.5507,3.5507,3.5507,3.5507,3.5507,3.5546,3.5591,3.5591,3.5646,3.5679,3.554,3.5558,3.5591,3.5591,3.5768,3.5903,3.5903,3.7336,3.8594,3.8594,4.0019,4.1191,4.1191,4.1191,4.1191,4.1191,4.1191,4.1191,4.1191,4.1191,4.1191,4.1191,4.1191,4.1191,4.1191,4.1191,4.1149,4.1016,4.087,4.0801,4.0801,4.0731,4.0692,4.0692,4.0692,4.0636,4.0489,4.0489,4.0489,4.0489,4.0489,4.0489,4.0489,4.0489,4.0489,4.0489,4.0489,4.0489,4.0489,4.0489,4.0489,4.0489,4.0489,4.0489,4.0489,2.856,2.898,2.9435,3.0361,3.063,3.1009,3.1881,3.2178,3.235,3.2484,3.2795,3.2983,3.2983,3.3413,3.3766,3.3887,3.4128,3.4292,3.442,3.4508,3.4634,3.4813,3.4655,3.4612,3.4694,3.4918,3.5094,3.5172,3.5419,3.5553,3.5648,3.5648,3.5646,3.5659,3.5659,3.5675,3.5703,3.5703,3.5703,3.5703,3.5703,3.5703,3.5703,3.5703,3.5703,3.5703,3.5703,3.5689,3.5659,3.5659,3.5655,3.5648,3.5648,3.5648,3.5648,3.5648,3.5655,3.5659,3.5659,3.5682,3.5689,3.5646,3.5655,3.5702,3.58,3.586,3.591,3.5951,3.7362,3.8594,3.8594,4.0019,4.1191,4.1191,4.1191,4.1191,4.1191,4.1191,4.1191,4.1191,4.1191,4.1191,4.1191,4.1191,4.1151,4.1077,4.0964,4.0908,4.0864,4.0781,4.0731,4.0731,4.0617,4.0559,4.0559,4.0559,4.053,4.0489,4.0489,4.0489,4.0489,4.0489,4.0489,4.0489,4.0489,4.0489,4.0489,4.0489,4.0489,4.0489,4.0489,4.0489,4.0489,4.0489,4.0489,4.0489,2.9569,2.9886,3.0261,3.1159,3.1445,3.1828,3.2663,3.2777,3.2885,3.3135,3.3431,3.3643,3.3784,3.4152,3.4401,3.4401,3.4572,3.4753,3.4832,3.487,3.4981,3.5258,3.5105,3.5032,3.5076,3.5257,3.5377,3.5394,3.5605,3.5703,3.5703,3.5703,3.5723,3.5772,3.5772,3.5788,3.581,3.581,3.581,3.581,3.581,3.581,3.581,3.581,3.581,3.581,3.581,3.5797,3.5772,3.5772,3.5735,3.5703,3.5703,3.5703,3.5703,3.5703,3.5749,3.5772,3.5772,3.5792,3.581,3.581,3.5792,3.5802,3.5877,3.5916,3.5948,3.5996,3.7383,3.8594,3.8594,4.0019,4.1191,4.1191,4.1191,4.1191,4.1191,4.1191,4.1171,4.1128,4.1126,4.1103,4.1052,4.1049,4.1019,4.0925,4.0813,4.0771,4.0771,4.0672,4.0623,4.0623,4.053,4.0489,4.0489,4.0489,4.0489,4.0489,4.0489,4.0489,4.0489,4.0489,4.0489,4.0489,4.0489,4.0489,4.0489,4.0489,4.0489,4.0489,4.0489,4.0489,4.0489,4.0489,4.0489,4.0489,3.0318,3.0767,3.1223,3.1826,3.2264,3.2745,3.3225,3.3284,3.3524,3.4152,3.4246,3.4357,3.4674,3.4714,3.4753,3.4753,3.4754,3.4889,3.5122,3.5155,3.5251,3.5501,3.5495,3.5546,3.5621,3.5611,3.5629,3.5717,3.5723,3.5729,3.5729,3.5729,3.5783,3.5907,3.5907,3.5945,3.5996,3.5996,3.5996,3.5996,3.5996,3.5996,3.5996,3.5996,3.5996,3.5996,3.5996,3.5951,3.5907,3.5907,3.5841,3.5729,3.5729,3.5729,3.5729,3.5729,3.5812,3.5907,3.5907,3.595,3.5996,3.5996,3.595,3.5907,3.5907,3.597,3.5996,3.5996,3.7383,3.8594,3.8594,4.0019,4.1191,4.1191,4.1191,4.1191,4.1191,4.1191,4.1149,4.1,4.0992,4.0925,4.0809,4.0793,4.0785,4.0785,4.0721,4.068,4.068,4.0574,4.0489,4.0489,4.0489,4.0489,4.0489,4.0489,4.0489,4.0489,4.0489,4.0489,4.0489,4.0489,4.0489,4.0489,4.0489,4.0489,4.0489,4.0489,4.0489,4.0489,4.0489,4.0489,4.0489,4.0489,4.0489,4.0489,3.1346,3.1845,3.2297,3.2809,3.2983,3.3266,3.3887,3.3981,3.4128,3.4529,3.4593,3.4632,3.4694,3.4889,3.4999,3.4999,3.5207,3.5354,3.5417,3.5457,3.5523,3.5577,3.563,3.5709,3.5827,3.573,3.5736,3.5864,3.5901,3.593,3.593,3.593,3.5953,3.5975,3.5975,3.5995,3.5996,3.5996,3.5996,3.5996,3.5996,3.5996,3.5996,3.5996,3.5996,3.5996,3.5996,3.5996,3.5975,3.5975,3.5954,3.593,3.593,3.593,3.593,3.593,3.5953,3.5975,3.5975,3.5996,3.5996,3.5996,3.5996,3.5975,3.5975,3.5996,3.5996,3.5996,3.7383,3.8594,3.8594,4.0019,4.1191,4.1191,4.1191,4.1191,4.1191,4.1105,4.1026,4.0996,4.0914,4.0824,4.0801,4.0752,4.0729,4.0729,4.0604,4.0545,4.0545,4.0519,4.0489,4.0489,4.0489,4.0489,4.0489,4.0489,4.0489,4.0489,4.0489,4.0489,4.0489,4.0489,4.0489,4.0489,4.0489,4.0489,4.0489,4.0489,4.0489,4.0489,4.0489,4.0489,4.0489,4.0489,4.0489,4.0473,3.2074,3.25,3.2921,3.3154,3.3468,3.3802,3.4152,3.4334,3.4551,3.4851,3.4889,3.4944,3.507,3.5207,3.5296,3.5345,3.5477,3.5562,3.559,3.563,3.5646,3.5646,3.5675,3.5761,3.59,3.5836,3.5849,3.5947,3.5975,3.5996,3.5996,3.5996,3.5996,3.5996,3.5996,3.5996,3.5996,3.5996,3.5996,3.5996,3.5996,3.5996,3.5996,3.5996,3.5996,3.5996,3.5996,3.5996,3.5996,3.5996,3.5996,3.5996,3.5996,3.5996,3.5996,3.5996,3.5996,3.5996,3.5996,3.5996,3.5996,3.5996,3.5996,3.5996,3.5996,3.5996,3.5996,3.5996,3.7383,3.8594,3.8594,4.0019,4.1191,4.1191,4.1191,4.1171,4.1105,4.103,4.0955,4.0875,4.079,4.0732,4.0668,4.0642,4.0596,4.0596,4.053,4.0489,4.0489,4.0489,4.0489,4.0489,4.0489,4.0489,4.0489,4.0489,4.0489,4.0489,4.0489,4.0489,4.0489,4.0489,4.0489,4.0489,4.0489,4.0489,4.0489,4.0489,4.0489,4.0489,4.0489,4.0489,4.0489,4.0356,4.0212,4.0024,3.2677,3.3112,3.3468,3.3468,3.3931,3.4292,3.4338,3.4593,3.4851,3.5122,3.5174,3.5254,3.5495,3.5534,3.557,3.5611,3.5621,3.5638,3.5684,3.5683,3.5708,3.5708,3.5719,3.5786,3.5913,3.5913,3.5947,3.5996,3.5996,3.5996,3.5996,3.5996,3.5996,3.5996,3.5996,3.5996,3.5996,3.5996,3.5996,3.5996,3.5996,3.5996,3.5996,3.5996,3.5996,3.5996,3.5996,3.5996,3.5996,3.5996,3.5996,3.5996,3.5996,3.5996,3.5996,3.5996,3.5996,3.5996,3.5996,3.5996,3.5996,3.5996,3.5996,3.5996,3.5996,3.5996,3.5996,3.5996,3.7383,3.8594,3.8594,4.0019,4.1191,4.1191,4.1171,4.1128,4.1019,4.0979,4.0896,4.0726,4.068,4.0623,4.0504,4.0489,4.0489,4.0489,4.0489,4.0489,4.0489,4.0489,4.0489,4.0489,4.0489,4.0489,4.0489,4.0489,4.0489,4.0489,4.0489,4.0489,4.0489,4.0489,4.0489,4.0489,4.0489,4.0489,4.0489,4.0489,4.0489,4.0489,4.0457,4.0422,4.0389,4.012,3.9797,3.9462,3.3451,3.4024,3.4508,3.4508,3.4572,3.4714,3.4944,3.5016,3.5138,3.5417,3.5446,3.5476,3.5588,3.5648,3.5675,3.5682,3.5689,3.5665,3.5615,3.5671,3.5701,3.5701,3.5817,3.5912,3.5976,3.5995,3.5996,3.5996,3.5996,3.5996,3.5996,3.5996,3.5996,3.5996,3.5996,3.5996,3.5996,3.5996,3.5996,3.5996,3.5996,3.5996,3.5996,3.5996,3.5996,3.5996,3.5996,3.5996,3.5996,3.5996,3.5996,3.5996,3.5996,3.5996,3.5996,3.5996,3.5996,3.5996,3.5996,3.5996,3.5996,3.5996,3.5996,3.5996,3.5996,3.5996,3.5996,3.5996,3.7383,3.8594,3.8594,4.0019,4.1191,4.1191,4.1103,4.1023,4.0996,4.0859,4.0729,4.0703,4.0596,4.0519,4.0504,4.0489,4.0489,4.0489,4.0489,4.0489,4.0489,4.0489,4.0489,4.0489,4.0489,4.0489,4.0489,4.0489,4.0489,4.0489,4.0489,4.0489,4.0489,4.0489,4.0489,4.0489,4.0489,4.0489,4.0489,4.0489,4.0489,4.0473,4.0232,4.0158,4.0101,3.9797,3.9457,3.916,3.4213,3.4489,3.4694,3.4694,3.4813,3.4963,3.5088,3.5223,3.5393,3.5546,3.557,3.5588,3.5646,3.5645,3.5665,3.5695,3.5673,3.5644,3.5652,3.5749,3.581,3.581,3.5909,3.5948,3.5947,3.5947,3.5918,3.5838,3.5933,3.5996,3.5996,3.5996,3.5975,3.5947,3.5947,3.5899,3.5838,3.5838,3.5838,3.5838,3.5838,3.5838,3.5838,3.5838,3.5871,3.5948,3.5995,3.5996,3.5996,3.5996,3.5996,3.5996,3.5996,3.5996,3.5996,3.5996,3.5996,3.5996,3.5996,3.5996,3.5996,3.5996,3.5996,3.5996,3.5996,3.5996,3.5996,3.5996,3.7383,3.8594,3.8594,4.0019,4.1191,4.1191,4.1082,4.0964,4.0908,4.0791,4.0667,4.0596,4.0549,4.0489,4.0489,4.0489,4.0489,4.0489,4.0489,4.0489,4.0489,4.0489,4.0489,4.0489,4.0489,4.0489,4.0489,4.0489,4.0489,4.0489,4.0489,4.0489,4.0489,4.0489,4.0489,4.0489,4.0489,4.0489,4.0489,4.0339,4.0286,4.025,3.9943,3.9709,3.951,3.9364,3.9144,3.8884]}]]